| time (UTC) | temp F | wind direction | speed knots | gust knots | rain 1hr in | rain 24hr in | rain mn in | humidity % | barometer mb |
| 20260831185740 | 82 | 253 | 0.0 | 1.7 | 0.00 | 0.00 | 0.00 | 67 | 1018.1 |
| 20260831185638 | 82 | 250 | 0.0 | 2.6 | 0.00 | 0.00 | 0.00 | 66 | 1018.1 |
| 20260831185536 | 82 | 253 | 0.0 | 2.6 | 0.00 | 0.00 | 0.00 | 66 | 1018.1 |
| 20260831185435 | 82 | 250 | 0.0 | 2.6 | 0.00 | 0.00 | 0.00 | 66 | 1018.1 |
| 20260831185333 | 82 | 254 | 0.0 | 2.6 | 0.00 | 0.00 | 0.00 | 65 | 1018.1 |
| 20260831185257 | 82 | 253 | 0.0 | 2.6 | 0.00 | 0.00 | 0.00 | 65 | 1018.1 |
| 20260831185133 | 82 | 251 | 0.0 | 2.6 | 0.00 | 0.00 | 0.00 | 65 | 1018.1 |
| 20260831185031 | 82 | 250 | 0.9 | 2.6 | 0.00 | 0.00 | 0.00 | 65 | 1018.1 |
| 20260831184930 | 82 | 253 | 0.9 | 2.6 | 0.00 | 0.00 | 0.00 | 65 | 1018.1 |
| 20260831184849 | 82 | 253 | 1.7 | 2.6 | 0.00 | 0.00 | 0.00 | 65 | 1018.1 |
| 20260831184750 | 82 | 253 | 1.7 | 1.7 | 0.00 | 0.00 | 0.00 | 65 | 1018.1 |
| 20260831184657 | 82 | 251 | 0.9 | 1.7 | 0.00 | 0.00 | 0.00 | 65 | 1018.1 |
| 20260831184535 | 82 | 247 | 0.9 | 1.7 | 0.00 | 0.00 | 0.00 | 64 | 1018.1 |
| 20260831184439 | 82 | 251 | 0.0 | 1.7 | 0.00 | 0.00 | 0.00 | 63 | 1018.1 |
| 20260831184339 | 82 | 253 | 0.0 | 2.6 | 0.00 | 0.00 | 0.00 | 62 | 1018.1 |
| 20260831184258 | 82 | 253 | 0.0 | 2.6 | 0.00 | 0.00 | 0.00 | 63 | 1018.2 |
| 20260831184135 | 82 | 253 | 0.0 | 2.6 | 0.00 | 0.00 | 0.00 | 64 | 1018.2 |
| 20260831184033 | 82 | 253 | 0.9 | 2.6 | 0.00 | 0.00 | 0.00 | 67 | 1018.2 |
| 20260831183933 | 82 | 251 | 0.9 | 2.6 | 0.00 | 0.00 | 0.00 | 68 | 1018.2 |
| 20260831183851 | 82 | 253 | 0.0 | 2.6 | 0.00 | 0.00 | 0.00 | 69 | 1018.2 |
| 20260831183730 | 82 | 251 | 0.0 | 2.6 | 0.00 | 0.00 | 0.00 | 70 | 1018.2 |
| 20260831183633 | 82 | 253 | 0.9 | 2.6 | 0.00 | 0.00 | 0.00 | 70 | 1018.2 |
| 20260831183552 | 82 | 253 | 1.7 | 2.6 | 0.00 | 0.00 | 0.00 | 69 | 1018.2 |
| 20260831183429 | 82 | 253 | 0.9 | 1.7 | 0.00 | 0.00 | 0.00 | 69 | 1018.2 |
| 20260831183327 | 82 | 253 | 0.0 | 2.6 | 0.00 | 0.00 | 0.00 | 69 | 1018.2 |
| 20260831183226 | 82 | 253 | 0.0 | 2.6 | 0.00 | 0.00 | 0.00 | 69 | 1018.2 |
| 20260831183157 | 82 | 253 | 0.0 | 2.6 | 0.00 | 0.00 | 0.00 | 69 | 1018.2 |
| 20260831183054 | 82 | 253 | 0.0 | 2.6 | 0.00 | 0.00 | 0.00 | 68 | 1018.2 |
| 20260831182931 | 82 | 247 | 0.9 | 2.6 | 0.00 | 0.00 | 0.00 | 68 | 1018.2 |
| 20260831182833 | 82 | 251 | 1.7 | 2.6 | 0.00 | 0.00 | 0.00 | 68 | 1018.2 |
| 20260831182733 | 82 | 251 | 0.9 | 2.6 | 0.00 | 0.00 | 0.00 | 68 | 1018.2 |
| 20260831182631 | 82 | 253 | 0.9 | 2.6 | 0.00 | 0.00 | 0.00 | 67 | 1018.2 |
| 20260831182529 | 82 | 253 | 1.7 | 2.6 | 0.00 | 0.00 | 0.00 | 67 | 1018.2 |
| 20260831182427 | 82 | 253 | 1.7 | 2.6 | 0.00 | 0.00 | 0.00 | 67 | 1018.2 |
| 20260831182326 | 82 | 251 | 0.9 | 2.6 | 0.00 | 0.00 | 0.00 | 66 | 1018.2 |
| 20260831182230 | 82 | 253 | 1.7 | 2.6 | 0.00 | 0.00 | 0.00 | 67 | 1018.2 |
| 20260831182130 | 82 | 250 | 1.7 | 2.6 | 0.00 | 0.00 | 0.00 | 67 | 1018.2 |
| 20260831182028 | 82 | 250 | 0.9 | 1.7 | 0.00 | 0.00 | 0.00 | 67 | 1018.2 |
| 20260831181926 | 82 | 253 | 0.9 | 1.7 | 0.00 | 0.00 | 0.00 | 68 | 1018.2 |
| 20260831181846 | 82 | 253 | 0.0 | 1.7 | 0.00 | 0.00 | 0.00 | 67 | 1018.2 |
| 20260831181738 | 82 | 251 | 0.9 | 1.7 | 0.00 | 0.00 | 0.00 | 68 | 1018.2 |
| 20260831181648 | 82 | 253 | 0.0 | 1.7 | 0.00 | 0.00 | 0.00 | 68 | 1018.2 |
| 20260831181525 | 82 | 253 | 0.0 | 1.7 | 0.00 | 0.00 | 0.00 | 68 | 1018.2 |
| 20260831181445 | 82 | 250 | 0.0 | 1.7 | 0.00 | 0.00 | 0.00 | 68 | 1018.2 |
| 20260831181347 | 82 | 253 | 0.0 | 2.6 | 0.00 | 0.00 | 0.00 | 68 | 1018.2 |
| 20260831181244 | 82 | 248 | 0.0 | 2.6 | 0.00 | 0.00 | 0.00 | 68 | 1018.4 |
| 20260831181204 | 82 | 253 | 0.9 | 2.6 | 0.00 | 0.00 | 0.00 | 68 | 1018.4 |
| 20260831181102 | 82 | 250 | 0.9 | 2.6 | 0.00 | 0.00 | 0.00 | 68 | 1018.4 |
| 20260831180940 | 82 | 251 | 0.9 | 2.6 | 0.00 | 0.00 | 0.00 | 68 | 1018.4 |
| 20260831180839 | 82 | 251 | 0.9 | 2.6 | 0.00 | 0.00 | 0.00 | 68 | 1018.4 |
| 20260831180736 | 82 | 253 | 0.0 | 2.6 | 0.00 | 0.00 | 0.00 | 67 | 1018.4 |
| 20260831180635 | 82 | 251 | 0.0 | 2.6 | 0.00 | 0.00 | 0.00 | 68 | 1018.4 |
| 20260831180554 | 82 | 253 | 1.7 | 2.6 | 0.00 | 0.00 | 0.00 | 68 | 1018.4 |
| 20260831180436 | 82 | 251 | 0.9 | 1.7 | 0.00 | 0.00 | 0.00 | 68 | 1018.4 |
| 20260831180355 | 82 | 251 | 0.0 | 1.7 | 0.00 | 0.00 | 0.00 | 68 | 1018.4 |
| 20260831180234 | 82 | 251 | 0.0 | 1.7 | 0.00 | 0.00 | 0.00 | 67 | 1018.4 |
| 20260831180204 | 82 | 250 | 0.9 | 1.7 | 0.00 | 0.00 | 0.00 | 67 | 1018.4 |
| 20260831180042 | 82 | 251 | 0.0 | 0.9 | 0.00 | 0.00 | 0.00 | 67 | 1018.4 |
| 20260831175939 | 81 | 250 | 0.0 | 0.9 | 0.00 | 0.00 | 0.00 | 66 | 1018.4 |
| 20260831175839 | 81 | 250 | 0.0 | 0.9 | 0.00 | 0.00 | 0.00 | 69 | 1018.4 |
| 20260831175738 | 81 | 248 | 0.0 | 0.9 | 0.00 | 0.00 | 0.00 | 68 | 1018.7 |
| 20260831175641 | 81 | 251 | 0.0 | 0.9 | 0.00 | 0.00 | 0.00 | 68 | 1018.7 |
| 20260831175541 | 81 | 251 | 0.0 | 0.0 | 0.00 | 0.00 | 0.00 | 68 | 1018.7 |
| 20260831175440 | 81 | 250 | 0.0 | 0.0 | 0.00 | 0.00 | 0.00 | 68 | 1018.7 |
| 20260831175340 | 81 | 253 | 0.0 | 0.0 | 0.00 | 0.00 | 0.00 | 68 | 1018.7 |
| 20260831175238 | 81 | 253 | 0.0 | 0.0 | 0.00 | 0.00 | 0.00 | 67 | 1018.7 |
| 20260831175136 | 81 | 253 | 0.0 | 0.0 | 0.00 | 0.00 | 0.00 | 68 | 1018.7 |
| 20260831175034 | 81 | 250 | 0.0 | 0.0 | 0.00 | 0.00 | 0.00 | 68 | 1018.7 |
| 20260831174937 | 81 | 253 | 0.0 | 0.0 | 0.00 | 0.00 | 0.00 | 68 | 1018.7 |
| 20260831174836 | 81 | 253 | 0.0 | 0.0 | 0.00 | 0.00 | 0.00 | 69 | 1018.7 |
| 20260831174733 | 81 | 251 | 0.0 | 0.0 | 0.00 | 0.00 | 0.00 | 70 | 1018.7 |
| 20260831174704 | 81 | 253 | 0.0 | 0.0 | 0.00 | 0.00 | 0.00 | 71 | 1018.7 |
| 20260831174542 | 81 | 253 | 0.0 | 0.9 | 0.00 | 0.00 | 0.00 | 72 | 1018.7 |
| 20260831174501 | 81 | 251 | 0.0 | 1.7 | 0.00 | 0.00 | 0.00 | 72 | 1018.7 |
| 20260831174339 | 81 | 253 | 0.0 | 1.7 | 0.00 | 0.00 | 0.00 | 71 | 1018.7 |
| 20260831174237 | 81 | 248 | 0.0 | 1.7 | 0.00 | 0.00 | 0.00 | 71 | 1018.8 |
| 20260831174140 | 81 | 251 | 0.0 | 1.7 | 0.00 | 0.00 | 0.00 | 71 | 1018.8 |
| 20260831174039 | 81 | 251 | 0.0 | 1.7 | 0.00 | 0.00 | 0.00 | 71 | 1018.8 |
| 20260831173938 | 81 | 253 | 0.0 | 1.7 | 0.00 | 0.00 | 0.00 | 71 | 1018.8 |
| 20260831173837 | 81 | 253 | 0.0 | 1.7 | 0.00 | 0.00 | 0.00 | 70 | 1018.8 |
| 20260831173737 | 81 | 253 | 0.9 | 1.7 | 0.00 | 0.00 | 0.00 | 68 | 1018.8 |
| 20260831173635 | 81 | 253 | 0.9 | 1.7 | 0.00 | 0.00 | 0.00 | 68 | 1018.8 |
| 20260831173537 | 81 | 251 | 0.9 | 1.7 | 0.00 | 0.00 | 0.00 | 71 | 1018.8 |
| 20260831173455 | 81 | 253 | 0.0 | 0.0 | 0.00 | 0.00 | 0.00 | 72 | 1018.8 |
| 20260831173353 | 81 | 251 | 0.0 | 0.0 | 0.00 | 0.00 | 0.00 | 72 | 1018.8 |
| 20260831173312 | 81 | 250 | 0.0 | 0.9 | 0.00 | 0.00 | 0.00 | 72 | 1018.8 |
| 20260831173200 | 81 | 253 | 0.0 | 0.9 | 0.00 | 0.00 | 0.00 | 72 | 1018.8 |
| 20260831173041 | 81 | 251 | 0.0 | 0.9 | 0.00 | 0.00 | 0.00 | 71 | 1018.8 |
| 20260831172941 | 81 | 253 | 0.0 | 0.9 | 0.00 | 0.00 | 0.00 | 71 | 1018.8 |
| 20260831172840 | 81 | 253 | 0.0 | 0.9 | 0.00 | 0.00 | 0.00 | 71 | 1018.8 |
| 20260831172738 | 81 | 251 | 0.0 | 0.9 | 0.00 | 0.00 | 0.00 | 71 | 1018.9 |
| 20260831172701 | 81 | 251 | 0.0 | 0.9 | 0.00 | 0.00 | 0.00 | 71 | 1018.9 |
| 20260831172540 | 81 | 253 | 0.0 | 0.9 | 0.00 | 0.00 | 0.00 | 71 | 1018.9 |
| 20260831172438 | 81 | 250 | 0.0 | 1.7 | 0.00 | 0.00 | 0.00 | 71 | 1018.9 |
| 20260831172358 | 81 | 247 | 0.0 | 1.7 | 0.00 | 0.00 | 0.00 | 71 | 1018.9 |
| 20260831172235 | 81 | 253 | 0.0 | 1.7 | 0.00 | 0.00 | 0.00 | 71 | 1018.9 |
| 20260831172134 | 81 | 251 | 0.0 | 1.7 | 0.00 | 0.00 | 0.00 | 71 | 1018.9 |
| 20260831172033 | 81 | 253 | 0.0 | 1.7 | 0.00 | 0.00 | 0.00 | 70 | 1018.9 |
| 20260831171951 | 81 | 253 | 0.0 | 2.6 | 0.00 | 0.00 | 0.00 | 71 | 1018.9 |
| 20260831171832 | 81 | 247 | 0.9 | 2.6 | 0.00 | 0.00 | 0.00 | 71 | 1018.9 |
| 20260831171751 | 81 | 250 | 0.9 | 2.6 | 0.00 | 0.00 | 0.00 | 71 | 1018.9 |
| 20260831171701 | 81 | 251 | 0.9 | 2.6 | 0.00 | 0.00 | 0.00 | 71 | 1018.9 |
| 20260831171540 | 81 | 253 | 0.9 | 2.6 | 0.00 | 0.00 | 0.00 | 70 | 1018.9 |
| 20260831171439 | 81 | 248 | 0.0 | 2.6 | 0.00 | 0.00 | 0.00 | 70 | 1018.9 |
| 20260831171337 | 81 | 253 | 0.0 | 2.6 | 0.00 | 0.00 | 0.00 | 70 | 1018.9 |
| 20260831171235 | 81 | 253 | 0.9 | 2.6 | 0.00 | 0.00 | 0.00 | 70 | 1019.0 |
| 20260831171133 | 81 | 251 | 0.9 | 2.6 | 0.00 | 0.00 | 0.00 | 70 | 1019.0 |
| 20260831171037 | 81 | 251 | 1.7 | 2.6 | 0.00 | 0.00 | 0.00 | 71 | 1019.0 |
| 20260831170956 | 81 | 251 | 0.9 | 2.6 | 0.00 | 0.00 | 0.00 | 70 | 1019.0 |
| 20260831170832 | 81 | 251 | 0.9 | 2.6 | 0.00 | 0.00 | 0.00 | 71 | 1019.0 |
| 20260831170731 | 81 | 253 | 1.7 | 2.6 | 0.00 | 0.00 | 0.00 | 71 | 1019.0 |
| 20260831170631 | 81 | 250 | 1.7 | 2.6 | 0.00 | 0.00 | 0.00 | 71 | 1019.0 |
| 20260831170529 | 81 | 250 | 1.7 | 4.3 | 0.00 | 0.00 | 0.00 | 70 | 1019.0 |
| 20260831170427 | 81 | 250 | 0.9 | 5.2 | 0.00 | 0.00 | 0.00 | 70 | 1019.0 |
| 20260831170331 | 81 | 250 | 0.0 | 5.2 | 0.00 | 0.00 | 0.00 | 70 | 1019.0 |
| 20260831170241 | 81 | 250 | 0.0 | 5.2 | 0.00 | 0.00 | 0.00 | 70 | 1019.0 |
| 20260831170153 | 81 | 246 | 0.0 | 5.2 | 0.00 | 0.00 | 0.00 | 70 | 1019.0 |
| 20260831170029 | 81 | 248 | 0.0 | 5.2 | 0.00 | 0.00 | 0.00 | 70 | 1019.0 |
| 20260831165929 | 81 | 250 | 0.9 | 5.2 | 0.00 | 0.00 | 0.00 | 72 | 1019.0 |
| 20260831165829 | 81 | 247 | 0.0 | 5.2 | 0.00 | 0.00 | 0.00 | 72 | 1019.0 |
| 20260831165727 | 81 | 250 | 1.7 | 5.2 | 0.00 | 0.00 | 0.00 | 71 | 1019.1 |
| 20260831165631 | 81 | 250 | 3.5 | 5.2 | 0.00 | 0.00 | 0.00 | 71 | 1019.1 |
| 20260831165530 | 81 | 250 | 1.7 | 2.6 | 0.00 | 0.00 | 0.00 | 71 | 1019.1 |
| 20260831165430 | 81 | 248 | 0.9 | 2.6 | 0.00 | 0.00 | 0.00 | 70 | 1019.1 |
| 20260831165328 | 81 | 248 | 0.0 | 2.6 | 0.00 | 0.00 | 0.00 | 70 | 1019.1 |
| 20260831165246 | 81 | 244 | 0.0 | 2.6 | 0.00 | 0.00 | 0.00 | 70 | 1019.1 |
| 20260831165204 | 81 | 250 | 0.9 | 2.6 | 0.00 | 0.00 | 0.00 | 70 | 1019.1 |
| 20260831165043 | 81 | 248 | 1.7 | 2.6 | 0.00 | 0.00 | 0.00 | 70 | 1019.1 |
| 20260831164927 | 81 | 248 | 0.9 | 4.3 | 0.00 | 0.00 | 0.00 | 71 | 1019.1 |
| 20260831164830 | 81 | 250 | 1.7 | 4.3 | 0.00 | 0.00 | 0.00 | 71 | 1019.1 |
| 20260831164740 | 81 | 250 | 0.9 | 6.1 | 0.00 | 0.00 | 0.00 | 70 | 1019.1 |
| 20260831164649 | 81 | 248 | 1.7 | 6.1 | 0.00 | 0.00 | 0.00 | 70 | 1019.1 |
| 20260831164529 | 81 | 250 | 0.0 | 6.1 | 0.00 | 0.00 | 0.00 | 71 | 1019.1 |
| 20260831164427 | 81 | 250 | 0.0 | 6.1 | 0.00 | 0.00 | 0.00 | 71 | 1019.1 |
| 20260831164327 | 81 | 250 | 0.0 | 6.1 | 0.00 | 0.00 | 0.00 | 71 | 1019.1 |
| 20260831164247 | 81 | 247 | 1.7 | 6.1 | 0.00 | 0.00 | 0.00 | 70 | 1019.2 |
| 20260831164128 | 81 | 251 | 2.6 | 6.1 | 0.00 | 0.00 | 0.00 | 70 | 1019.2 |
| 20260831164047 | 81 | 247 | 1.7 | 6.1 | 0.00 | 0.00 | 0.00 | 71 | 1019.2 |
| 20260831163944 | 81 | 247 | 3.5 | 6.1 | 0.00 | 0.00 | 0.00 | 71 | 1019.2 |
| 20260831163842 | 81 | 246 | 3.5 | 6.1 | 0.00 | 0.00 | 0.00 | 69 | 1019.2 |
| 20260831163800 | 80 | 229 | 0.9 | 5.2 | 0.00 | 0.00 | 0.00 | 69 | 1019.2 |
| 20260831163638 | 80 | 232 | 0.0 | 5.2 | 0.00 | 0.00 | 0.00 | 69 | 1019.2 |
| 20260831163537 | 80 | 232 | 0.9 | 5.2 | 0.00 | 0.00 | 0.00 | 69 | 1019.2 |
| 20260831163435 | 80 | 229 | 0.0 | 5.2 | 0.00 | 0.00 | 0.00 | 69 | 1019.2 |
| 20260831163355 | 80 | 226 | 0.0 | 7.0 | 0.00 | 0.00 | 0.00 | 70 | 1019.2 |
| 20260831163237 | 80 | 224 | 0.0 | 7.0 | 0.00 | 0.00 | 0.00 | 70 | 1019.2 |
| 20260831163207 | 80 | 226 | 1.7 | 7.0 | 0.00 | 0.00 | 0.00 | 70 | 1019.2 |
| 20260831163104 | 80 | 224 | 3.5 | 7.0 | 0.00 | 0.00 | 0.00 | 71 | 1019.2 |
| 20260831162941 | 80 | 215 | 1.7 | 7.0 | 0.00 | 0.00 | 0.00 | 71 | 1019.2 |
| 20260831162900 | 80 | 215 | 0.9 | 7.0 | 0.00 | 0.00 | 0.00 | 72 | 1019.2 |
| 20260831162758 | 80 | 213 | 1.7 | 7.0 | 0.00 | 0.00 | 0.00 | 72 | 1019.2 |
| 20260831162635 | 80 | 215 | 2.6 | 7.0 | 0.00 | 0.00 | 0.00 | 72 | 1019.2 |
| 20260831162535 | 80 | 213 | 3.5 | 7.0 | 0.00 | 0.00 | 0.00 | 72 | 1019.2 |
| 20260831162436 | 80 | 215 | 4.3 | 7.0 | 0.00 | 0.00 | 0.00 | 72 | 1019.2 |
| 20260831162354 | 80 | 227 | 2.6 | 6.1 | 0.00 | 0.00 | 0.00 | 72 | 1019.2 |
| 20260831162234 | 80 | 227 | 2.6 | 6.1 | 0.00 | 0.00 | 0.00 | 72 | 1019.2 |
| 20260831162133 | 80 | 233 | 3.5 | 6.1 | 0.00 | 0.00 | 0.00 | 73 | 1019.2 |
| 20260831162033 | 80 | 243 | 0.9 | 2.6 | 0.00 | 0.00 | 0.00 | 73 | 1019.2 |
| 20260831161932 | 80 | 244 | 0.9 | 2.6 | 0.00 | 0.00 | 0.00 | 72 | 1019.2 |
| 20260831161830 | 80 | 243 | 0.9 | 2.6 | 0.00 | 0.00 | 0.00 | 72 | 1019.2 |
| 20260831161733 | 80 | 241 | 0.0 | 2.6 | 0.00 | 0.00 | 0.00 | 73 | 1019.2 |
| 20260831161703 | 80 | 244 | 0.0 | 4.3 | 0.00 | 0.00 | 0.00 | 73 | 1019.2 |
| 20260831161541 | 81 | 244 | 0.0 | 5.2 | 0.00 | 0.00 | 0.00 | 73 | 1019.2 |
| 20260831161440 | 81 | 244 | 0.9 | 5.2 | 0.00 | 0.00 | 0.00 | 72 | 1019.2 |
| 20260831161338 | 81 | 244 | 1.7 | 5.2 | 0.00 | 0.00 | 0.00 | 72 | 1019.2 |
| 20260831161258 | 81 | 244 | 2.6 | 5.2 | 0.00 | 0.00 | 0.00 | 72 | 1019.2 |
| 20260831161156 | 81 | 241 | 1.7 | 5.2 | 0.00 | 0.00 | 0.00 | 71 | 1019.2 |
| 20260831161033 | 81 | 243 | 1.7 | 5.2 | 0.00 | 0.00 | 0.00 | 71 | 1019.2 |
| 20260831160953 | 81 | 239 | 1.7 | 5.2 | 0.00 | 0.00 | 0.00 | 72 | 1019.2 |
| 20260831160835 | 81 | 240 | 1.7 | 5.2 | 0.00 | 0.00 | 0.00 | 71 | 1019.2 |
| 20260831160732 | 81 | 237 | 3.5 | 5.2 | 0.00 | 0.00 | 0.00 | 71 | 1019.2 |
| 20260831160632 | 81 | 240 | 3.5 | 5.2 | 0.00 | 0.00 | 0.00 | 71 | 1019.2 |
| 20260831160530 | 81 | 240 | 2.6 | 5.2 | 0.00 | 0.00 | 0.00 | 71 | 1019.2 |
| 20260831160449 | 81 | 236 | 2.6 | 5.2 | 0.00 | 0.00 | 0.00 | 71 | 1019.2 |
| 20260831160326 | 81 | 232 | 0.9 | 5.2 | 0.00 | 0.00 | 0.00 | 71 | 1019.2 |
| 20260831160225 | 81 | 229 | 0.9 | 5.2 | 0.00 | 0.00 | 0.00 | 71 | 1019.2 |
| 20260831160200 | 81 | 229 | 0.9 | 6.1 | 0.00 | 0.00 | 0.00 | 71 | 1019.2 |
| 20260831160040 | 81 | 229 | 2.6 | 6.1 | 0.00 | 0.00 | 0.00 | 71 | 1019.2 |
| 20260831155938 | 81 | 229 | 3.5 | 6.1 | 0.00 | 0.00 | 0.00 | 71 | 1019.2 |
| 20260831155835 | 81 | 206 | 0.9 | 6.1 | 0.00 | 0.00 | 0.00 | 71 | 1019.2 |
| 20260831155735 | 81 | 205 | 0.9 | 6.1 | 0.00 | 0.00 | 0.00 | 71 | 1019.2 |
| 20260831155636 | 81 | 205 | 1.7 | 6.1 | 0.00 | 0.00 | 0.00 | 72 | 1019.2 |
| 20260831155555 | 81 | 206 | 0.9 | 6.1 | 0.00 | 0.00 | 0.00 | 72 | 1019.2 |
| 20260831155437 | 81 | 206 | 2.6 | 6.1 | 0.00 | 0.00 | 0.00 | 72 | 1019.2 |
| 20260831155339 | 81 | 202 | 5.2 | 6.1 | 0.00 | 0.00 | 0.00 | 73 | 1019.2 |
| 20260831155259 | 81 | 234 | 3.5 | 6.1 | 0.00 | 0.00 | 0.00 | 73 | 1019.2 |
| 20260831155136 | 81 | 261 | 0.0 | 4.3 | 0.00 | 0.00 | 0.00 | 72 | 1019.2 |
| 20260831155034 | 81 | 263 | 0.0 | 3.5 | 0.00 | 0.00 | 0.00 | 73 | 1019.2 |
| 20260831154932 | 81 | 264 | 1.7 | 3.5 | 0.00 | 0.00 | 0.00 | 73 | 1019.2 |
| 20260831154830 | 81 | 265 | 1.7 | 4.3 | 0.00 | 0.00 | 0.00 | 73 | 1019.2 |
| 20260831154749 | 81 | 263 | 0.9 | 5.2 | 0.00 | 0.00 | 0.00 | 72 | 1019.2 |
| 20260831154657 | 81 | 265 | 0.9 | 5.2 | 0.00 | 0.00 | 0.00 | 72 | 1019.2 |
| 20260831154523 | 81 | 265 | 0.0 | 6.1 | 0.00 | 0.00 | 0.00 | 72 | 1019.2 |
| 20260831154442 | 81 | 263 | 0.9 | 6.1 | 0.00 | 0.00 | 0.00 | 72 | 1019.2 |
| 20260831154341 | 81 | 260 | 1.7 | 6.1 | 0.00 | 0.00 | 0.00 | 72 | 1019.2 |
| 20260831154237 | 81 | 261 | 2.6 | 6.1 | 0.00 | 0.00 | 0.00 | 72 | 1019.3 |
| 20260831154135 | 81 | 251 | 0.9 | 6.1 | 0.00 | 0.00 | 0.00 | 72 | 1019.3 |
| 20260831154032 | 81 | 248 | 1.7 | 6.1 | 0.00 | 0.00 | 0.00 | 72 | 1019.3 |
| 20260831153930 | 81 | 230 | 1.7 | 6.1 | 0.00 | 0.00 | 0.00 | 73 | 1019.3 |
| 20260831153835 | 81 | 230 | 3.5 | 7.0 | 0.00 | 0.00 | 0.00 | 73 | 1019.3 |
| 20260831153736 | 81 | 224 | 3.5 | 7.0 | 0.00 | 0.00 | 0.00 | 73 | 1019.3 |
| 20260831153655 | 81 | 230 | 4.3 | 7.0 | 0.00 | 0.00 | 0.00 | 72 | 1019.3 |
| 20260831153552 | 81 | 246 | 0.9 | 7.0 | 0.00 | 0.00 | 0.00 | 72 | 1019.3 |
| 20260831153430 | 80 | 251 | 2.6 | 7.0 | 0.00 | 0.00 | 0.00 | 72 | 1019.3 |
| 20260831153327 | 80 | 250 | 3.5 | 7.0 | 0.00 | 0.00 | 0.00 | 73 | 1019.3 |
| 20260831153224 | 80 | 241 | 1.7 | 7.0 | 0.00 | 0.00 | 0.00 | 73 | 1019.3 |
| 20260831153155 | 80 | 241 | 2.6 | 7.0 | 0.00 | 0.00 | 0.00 | 74 | 1019.3 |
| 20260831153032 | 80 | 232 | 4.3 | 7.0 | 0.00 | 0.00 | 0.00 | 74 | 1019.3 |
| 20260831152937 | 80 | 222 | 4.3 | 7.0 | 0.00 | 0.00 | 0.00 | 74 | 1019.3 |
| 20260831152836 | 80 | 271 | 0.9 | 6.1 | 0.00 | 0.00 | 0.00 | 73 | 1019.3 |
| 20260831152735 | 80 | 272 | 0.9 | 7.8 | 0.00 | 0.00 | 0.00 | 74 | 1019.3 |
| 20260831152634 | 80 | 253 | 1.7 | 8.7 | 0.00 | 0.00 | 0.00 | 74 | 1019.3 |
| 20260831152532 | 80 | 250 | 2.6 | 8.7 | 0.00 | 0.00 | 0.00 | 74 | 1019.3 |
| 20260831152435 | 80 | 251 | 3.5 | 8.7 | 0.00 | 0.00 | 0.00 | 74 | 1019.3 |
| 20260831152334 | 80 | 251 | 2.6 | 8.7 | 0.00 | 0.00 | 0.00 | 75 | 1019.3 |
| 20260831152237 | 80 | 251 | 2.6 | 8.7 | 0.00 | 0.00 | 0.00 | 75 | 1019.3 |
| 20260831152135 | 80 | 277 | 1.7 | 8.7 | 0.00 | 0.00 | 0.00 | 74 | 1019.3 |
| 20260831152053 | 79 | 257 | 2.6 | 8.7 | 0.00 | 0.00 | 0.00 | 74 | 1019.3 |
| 20260831151930 | 79 | 230 | 1.7 | 8.7 | 0.00 | 0.00 | 0.00 | 74 | 1019.3 |
| 20260831151829 | 79 | 216 | 3.5 | 8.7 | 0.00 | 0.00 | 0.00 | 75 | 1019.3 |
| 20260831151727 | 79 | 250 | 0.9 | 7.0 | 0.00 | 0.00 | 0.00 | 76 | 1019.3 |
| 20260831151657 | 79 | 251 | 2.6 | 7.0 | 0.00 | 0.00 | 0.00 | 75 | 1019.3 |
| 20260831151535 | 79 | 248 | 3.5 | 7.0 | 0.00 | 0.00 | 0.00 | 75 | 1019.3 |
| 20260831151438 | 79 | 239 | 0.9 | 8.7 | 0.00 | 0.00 | 0.00 | 76 | 1019.3 |
| 20260831151336 | 79 | 239 | 2.6 | 8.7 | 0.00 | 0.00 | 0.00 | 77 | 1019.3 |
| 20260831151255 | 79 | 240 | 5.2 | 8.7 | 0.00 | 0.00 | 0.00 | 77 | 1019.2 |
| 20260831151132 | 79 | 248 | 3.5 | 8.7 | 0.00 | 0.00 | 0.00 | 77 | 1019.2 |
| 20260831151030 | 79 | 257 | 3.5 | 8.7 | 0.00 | 0.00 | 0.00 | 77 | 1019.2 |
| 20260831150951 | 79 | 260 | 1.7 | 8.7 | 0.00 | 0.00 | 0.00 | 77 | 1019.2 |
| 20260831150829 | 79 | 258 | 1.7 | 8.7 | 0.00 | 0.00 | 0.00 | 77 | 1019.2 |
| 20260831150732 | 79 | 232 | 3.5 | 8.7 | 0.00 | 0.00 | 0.00 | 77 | 1019.2 |
| 20260831150632 | 79 | 230 | 5.2 | 8.7 | 0.00 | 0.00 | 0.00 | 78 | 1019.2 |
| 20260831150530 | 79 | 233 | 3.5 | 7.0 | 0.00 | 0.00 | 0.00 | 78 | 1019.2 |
| 20260831150453 | 79 | 241 | 4.3 | 7.0 | 0.00 | 0.00 | 0.00 | 78 | 1019.2 |
| 20260831150330 | 78 | 240 | 5.2 | 7.0 | 0.00 | 0.00 | 0.00 | 78 | 1019.2 |
| 20260831150251 | 78 | 236 | 5.2 | 7.0 | 0.00 | 0.00 | 0.00 | 78 | 1019.2 |
| 20260831150220 | 78 | 248 | 4.3 | 7.0 | 0.00 | 0.00 | 0.00 | 79 | 1019.2 |
| 20260831150038 | 78 | 217 | 0.9 | 4.3 | 0.00 | 0.00 | 0.00 | 79 | 1019.2 |
| 20260831145942 | 78 | 209 | 0.9 | 4.3 | 0.00 | 0.00 | 0.00 | 79 | 1019.2 |
| 20260831145901 | 78 | 203 | 2.6 | 5.2 | 0.00 | 0.00 | 0.00 | 80 | 1019.2 |
| 20260831145758 | 78 | 237 | 1.7 | 5.2 | 0.00 | 0.00 | 0.00 | 80 | 1019.3 |
| 20260831145655 | 78 | 236 | 2.6 | 5.2 | 0.00 | 0.00 | 0.00 | 80 | 1019.3 |
| 20260831145531 | 78 | 237 | 1.7 | 5.2 | 0.00 | 0.00 | 0.00 | 80 | 1019.3 |
| 20260831145450 | 78 | 232 | 1.7 | 5.2 | 0.00 | 0.00 | 0.00 | 80 | 1019.3 |
| 20260831145348 | 78 | 239 | 2.6 | 5.2 | 0.00 | 0.00 | 0.00 | 80 | 1019.3 |
| 20260831145227 | 78 | 236 | 1.7 | 5.2 | 0.00 | 0.00 | 0.00 | 80 | 1019.3 |
| 20260831145126 | 78 | 239 | 0.9 | 5.2 | 0.00 | 0.00 | 0.00 | 80 | 1019.3 |
| 20260831145024 | 78 | 239 | 2.6 | 5.2 | 0.00 | 0.00 | 0.00 | 80 | 1019.3 |
| 20260831144927 | 78 | 158 | 0.0 | 5.2 | 0.00 | 0.00 | 0.00 | 80 | 1019.3 |
| 20260831144828 | 78 | 160 | 0.0 | 5.2 | 0.00 | 0.00 | 0.00 | 80 | 1019.3 |
| 20260831144739 | 78 | 158 | 3.5 | 5.2 | 0.00 | 0.00 | 0.00 | 80 | 1019.3 |
| 20260831144646 | 78 | 157 | 1.7 | 3.5 | 0.00 | 0.00 | 0.00 | 80 | 1019.3 |
| 20260831144544 | 78 | 154 | 0.9 | 3.5 | 0.00 | 0.00 | 0.00 | 80 | 1019.3 |
| 20260831144444 | 78 | 151 | 0.0 | 5.2 | 0.00 | 0.00 | 0.00 | 80 | 1019.3 |
| 20260831144342 | 78 | 150 | 0.0 | 6.1 | 0.00 | 0.00 | 0.00 | 80 | 1019.3 |
| 20260831144239 | 78 | 148 | 0.0 | 6.1 | 0.00 | 0.00 | 0.00 | 80 | 1019.3 |
| 20260831144142 | 78 | 150 | 0.0 | 6.1 | 0.00 | 0.00 | 0.00 | 80 | 1019.3 |
| 20260831144042 | 77 | 148 | 0.9 | 6.1 | 0.00 | 0.00 | 0.00 | 80 | 1019.3 |
| 20260831143941 | 77 | 150 | 0.9 | 6.1 | 0.00 | 0.00 | 0.00 | 80 | 1019.3 |
| 20260831143839 | 77 | 147 | 1.7 | 6.1 | 0.00 | 0.00 | 0.00 | 80 | 1019.3 |
| 20260831143737 | 77 | 145 | 1.7 | 6.1 | 0.00 | 0.00 | 0.00 | 80 | 1019.3 |
| 20260831143657 | 77 | 143 | 3.5 | 6.1 | 0.00 | 0.00 | 0.00 | 80 | 1019.3 |
| 20260831143535 | 77 | 137 | 2.6 | 6.1 | 0.00 | 0.00 | 0.00 | 80 | 1019.3 |
| 20260831143435 | 77 | 140 | 3.5 | 6.1 | 0.00 | 0.00 | 0.00 | 80 | 1019.3 |
| 20260831143334 | 77 | 106 | 0.9 | 5.2 | 0.00 | 0.00 | 0.00 | 80 | 1019.3 |
| 20260831143235 | 77 | 178 | 0.9 | 5.2 | 0.00 | 0.00 | 0.00 | 80 | 1019.3 |
| 20260831143205 | 77 | 176 | 1.7 | 5.2 | 0.00 | 0.00 | 0.00 | 80 | 1019.3 |
| 20260831143105 | 77 | 178 | 0.9 | 5.2 | 0.00 | 0.00 | 0.00 | 80 | 1019.3 |
| 20260831143002 | 77 | 175 | 0.9 | 5.2 | 0.00 | 0.00 | 0.00 | 80 | 1019.3 |
| 20260831142900 | 77 | 175 | 0.0 | 5.2 | 0.00 | 0.00 | 0.00 | 79 | 1019.3 |
| 20260831142738 | 77 | 174 | 0.0 | 5.2 | 0.00 | 0.00 | 0.00 | 79 | 1019.3 |
| 20260831142636 | 77 | 176 | 1.7 | 5.2 | 0.00 | 0.00 | 0.00 | 79 | 1019.3 |
| 20260831142536 | 77 | 175 | 1.7 | 5.2 | 0.00 | 0.00 | 0.00 | 79 | 1019.3 |
| 20260831142438 | 77 | 168 | 2.6 | 5.2 | 0.00 | 0.00 | 0.00 | 79 | 1019.3 |
| 20260831142338 | 77 | 169 | 1.7 | 5.2 | 0.00 | 0.00 | 0.00 | 80 | 1019.3 |
| 20260831142256 | 77 | 165 | 1.7 | 5.2 | 0.00 | 0.00 | 0.00 | 79 | 1019.3 |
| 20260831142133 | 77 | 158 | 0.9 | 5.2 | 0.00 | 0.00 | 0.00 | 79 | 1019.3 |
| 20260831142051 | 77 | 164 | 1.7 | 5.2 | 0.00 | 0.00 | 0.00 | 79 | 1019.3 |
| 20260831141928 | 77 | 152 | 0.9 | 5.2 | 0.00 | 0.00 | 0.00 | 80 | 1019.3 |
| 20260831141827 | 77 | 151 | 1.7 | 6.1 | 0.00 | 0.00 | 0.00 | 80 | 1019.3 |
| 20260831141730 | 77 | 154 | 1.7 | 6.1 | 0.00 | 0.00 | 0.00 | 80 | 1019.3 |
| 20260831141659 | 77 | 152 | 1.7 | 6.1 | 0.00 | 0.00 | 0.00 | 80 | 1019.3 |
| 20260831141557 | 77 | 157 | 2.6 | 6.1 | 0.00 | 0.00 | 0.00 | 80 | 1019.3 |
| 20260831141435 | 77 | 152 | 4.3 | 6.1 | 0.00 | 0.00 | 0.00 | 80 | 1019.3 |
| 20260831141337 | 77 | 151 | 3.5 | 6.1 | 0.00 | 0.00 | 0.00 | 80 | 1019.3 |
| 20260831141235 | 77 | 133 | 1.7 | 7.0 | 0.00 | 0.00 | 0.00 | 79 | 1019.2 |
| 20260831141133 | 77 | 124 | 1.7 | 7.8 | 0.00 | 0.00 | 0.00 | 79 | 1019.2 |
| 20260831141033 | 77 | 117 | 2.6 | 7.8 | 0.00 | 0.00 | 0.00 | 80 | 1019.2 |
| 20260831140936 | 77 | 192 | 4.3 | 7.8 | 0.00 | 0.00 | 0.00 | 79 | 1019.2 |
| 20260831140836 | 77 | 185 | 2.6 | 7.8 | 0.00 | 0.00 | 0.00 | 79 | 1019.2 |
| 20260831140734 | 77 | 192 | 0.9 | 7.8 | 0.00 | 0.00 | 0.00 | 79 | 1019.2 |
| 20260831140632 | 77 | 192 | 2.6 | 7.8 | 0.00 | 0.00 | 0.00 | 79 | 1019.2 |
| 20260831140552 | 77 | 203 | 1.7 | 7.8 | 0.00 | 0.00 | 0.00 | 80 | 1019.2 |
| 20260831140451 | 77 | 230 | 0.9 | 7.8 | 0.00 | 0.00 | 0.00 | 80 | 1019.2 |
| 20260831140328 | 77 | 226 | 6.1 | 7.8 | 0.00 | 0.00 | 0.00 | 79 | 1019.2 |
| 20260831140236 | 77 | 219 | 4.3 | 7.0 | 0.00 | 0.00 | 0.00 | 79 | 1019.2 |
| 20260831140149 | 77 | 210 | 2.6 | 7.0 | 0.00 | 0.00 | 0.00 | 79 | 1019.2 |
| 20260831140025 | 77 | 178 | 1.7 | 7.0 | 0.00 | 0.00 | 0.00 | 79 | 1019.2 |
| 20260831135925 | 77 | 171 | 1.7 | 7.0 | 0.00 | 0.00 | 0.00 | 80 | 1019.2 |
| 20260831135843 | 77 | 167 | 2.6 | 7.0 | 0.00 | 0.00 | 0.00 | 80 | 1019.2 |
| 20260831135801 | 77 | 175 | 2.6 | 7.0 | 0.00 | 0.00 | 0.00 | 80 | 1019.2 |
| 20260831135639 | 77 | 157 | 2.6 | 7.0 | 0.00 | 0.00 | 0.00 | 80 | 1019.2 |
| 20260831135537 | 77 | 179 | 3.5 | 8.7 | 0.00 | 0.00 | 0.00 | 81 | 1019.2 |
| 20260831135437 | 77 | 202 | 4.3 | 8.7 | 0.00 | 0.00 | 0.00 | 81 | 1019.2 |
| 20260831135339 | 77 | 186 | 3.5 | 8.7 | 0.00 | 0.00 | 0.00 | 81 | 1019.2 |
| 20260831135238 | 77 | 192 | 2.6 | 8.7 | 0.00 | 0.00 | 0.00 | 81 | 1019.2 |
| 20260831135136 | 77 | 167 | 0.9 | 8.7 | 0.00 | 0.00 | 0.00 | 81 | 1019.2 |
| 20260831135054 | 77 | 158 | 3.5 | 8.7 | 0.00 | 0.00 | 0.00 | 81 | 1019.2 |
| 20260831134932 | 77 | 155 | 2.6 | 8.7 | 0.00 | 0.00 | 0.00 | 81 | 1019.2 |
| 20260831134832 | 77 | 140 | 2.6 | 8.7 | 0.00 | 0.00 | 0.00 | 81 | 1019.2 |
| 20260831134729 | 77 | 188 | 4.3 | 8.7 | 0.00 | 0.00 | 0.00 | 81 | 1019.2 |
| 20260831134700 | 77 | 186 | 3.5 | 8.7 | 0.00 | 0.00 | 0.00 | 81 | 1019.2 |
| 20260831134541 | 77 | 172 | 1.7 | 7.8 | 0.00 | 0.00 | 0.00 | 81 | 1019.2 |
| 20260831134440 | 77 | 172 | 2.6 | 7.8 | 0.00 | 0.00 | 0.00 | 81 | 1019.2 |
| 20260831134340 | 76 | 144 | 4.3 | 7.8 | 0.00 | 0.00 | 0.00 | 81 | 1019.2 |
| 20260831134239 | 76 | 162 | 3.5 | 7.8 | 0.00 | 0.00 | 0.00 | 81 | 1019.1 |
| 20260831134138 | 76 | 192 | 1.7 | 7.8 | 0.00 | 0.00 | 0.00 | 81 | 1019.1 |
| 20260831134039 | 76 | 169 | 0.9 | 5.2 | 0.00 | 0.00 | 0.00 | 81 | 1019.1 |
| 20260831133941 | 76 | 165 | 1.7 | 5.2 | 0.00 | 0.00 | 0.00 | 81 | 1019.1 |
| 20260831133839 | 76 | 167 | 2.6 | 5.2 | 0.00 | 0.00 | 0.00 | 81 | 1019.1 |
| 20260831133734 | 76 | 161 | 2.6 | 5.2 | 0.00 | 0.00 | 0.00 | 81 | 1019.1 |
| 20260831133653 | 76 | 164 | 2.6 | 5.2 | 0.00 | 0.00 | 0.00 | 81 | 1019.1 |
| 20260831133531 | 76 | 155 | 1.7 | 5.2 | 0.00 | 0.00 | 0.00 | 82 | 1019.1 |
| 20260831133430 | 76 | 154 | 2.6 | 5.2 | 0.00 | 0.00 | 0.00 | 81 | 1019.1 |
| 20260831133328 | 76 | 178 | 0.9 | 5.2 | 0.00 | 0.00 | 0.00 | 82 | 1019.1 |
| 20260831133246 | 76 | 181 | 0.9 | 5.2 | 0.00 | 0.00 | 0.00 | 82 | 1019.1 |
| 20260831133156 | 76 | 179 | 0.9 | 5.2 | 0.00 | 0.00 | 0.00 | 82 | 1019.1 |
| 20260831133036 | 76 | 179 | 2.6 | 5.2 | 0.00 | 0.00 | 0.00 | 82 | 1019.1 |
| 20260831132936 | 76 | 171 | 1.7 | 5.2 | 0.00 | 0.00 | 0.00 | 82 | 1019.1 |
| 20260831132833 | 76 | 172 | 0.9 | 5.2 | 0.00 | 0.00 | 0.00 | 82 | 1019.1 |
| 20260831132753 | 76 | 174 | 0.9 | 5.2 | 0.00 | 0.00 | 0.00 | 82 | 1019.0 |
| 20260831132630 | 76 | 174 | 2.6 | 5.2 | 0.00 | 0.00 | 0.00 | 82 | 1019.0 |
| 20260831132530 | 76 | 167 | 1.7 | 5.2 | 0.00 | 0.00 | 0.00 | 82 | 1019.0 |
| 20260831132429 | 76 | 161 | 0.9 | 5.2 | 0.00 | 0.00 | 0.00 | 82 | 1019.0 |
| 20260831132332 | 76 | 162 | 0.0 | 5.2 | 0.00 | 0.00 | 0.00 | 82 | 1019.0 |
| 20260831132232 | 76 | 162 | 0.0 | 5.2 | 0.00 | 0.00 | 0.00 | 82 | 1019.0 |
| 20260831132132 | 76 | 162 | 0.9 | 5.2 | 0.00 | 0.00 | 0.00 | 82 | 1019.0 |
| 20260831132030 | 76 | 161 | 1.7 | 5.2 | 0.00 | 0.00 | 0.00 | 82 | 1019.0 |
| 20260831131931 | 76 | 160 | 2.6 | 5.2 | 0.00 | 0.00 | 0.00 | 82 | 1019.0 |
| 20260831131831 | 76 | 150 | 1.7 | 5.2 | 0.00 | 0.00 | 0.00 | 82 | 1019.0 |
| 20260831131749 | 76 | 150 | 1.7 | 5.2 | 0.00 | 0.00 | 0.00 | 82 | 1019.0 |
| 20260831131703 | 76 | 151 | 2.6 | 5.2 | 0.00 | 0.00 | 0.00 | 82 | 1019.0 |
| 20260831131541 | 76 | 148 | 4.3 | 5.2 | 0.00 | 0.00 | 0.00 | 82 | 1019.0 |
| 20260831131500 | 76 | 154 | 3.5 | 5.2 | 0.00 | 0.00 | 0.00 | 82 | 1019.0 |
| 20260831131359 | 76 | 154 | 2.6 | 5.2 | 0.00 | 0.00 | 0.00 | 82 | 1019.0 |
| 20260831131235 | 76 | 152 | 3.5 | 5.2 | 0.00 | 0.00 | 0.00 | 82 | 1018.9 |
| 20260831131134 | 76 | 169 | 1.7 | 5.2 | 0.00 | 0.00 | 0.00 | 82 | 1018.9 |
| 20260831131031 | 76 | 171 | 2.6 | 5.2 | 0.00 | 0.00 | 0.00 | 82 | 1018.9 |
| 20260831130928 | 76 | 172 | 1.7 | 5.2 | 0.00 | 0.00 | 0.00 | 82 | 1018.9 |
| 20260831130828 | 76 | 169 | 1.7 | 5.2 | 0.00 | 0.00 | 0.00 | 82 | 1018.9 |
| 20260831130732 | 76 | 168 | 2.6 | 6.1 | 0.00 | 0.00 | 0.00 | 83 | 1018.9 |
| 20260831130631 | 76 | 171 | 2.6 | 6.1 | 0.00 | 0.00 | 0.00 | 83 | 1018.9 |
| 20260831130529 | 76 | 171 | 3.5 | 6.1 | 0.00 | 0.00 | 0.00 | 83 | 1018.9 |
| 20260831130427 | 76 | 172 | 1.7 | 6.1 | 0.00 | 0.00 | 0.00 | 83 | 1018.9 |
| 20260831130325 | 75 | 174 | 2.6 | 6.1 | 0.00 | 0.00 | 0.00 | 83 | 1018.9 |
| 20260831130244 | 75 | 175 | 1.7 | 6.1 | 0.00 | 0.00 | 0.00 | 83 | 1018.9 |
| 20260831130216 | 75 | 174 | 2.6 | 6.1 | 0.00 | 0.00 | 0.00 | 83 | 1018.9 |
| 20260831130036 | 75 | 175 | 2.6 | 6.1 | 0.00 | 0.00 | 0.00 | 83 | 1018.9 |
| 20260831125935 | 75 | 174 | 4.3 | 6.1 | 0.00 | 0.00 | 0.00 | 83 | 1018.9 |
| 20260831125834 | 75 | 176 | 3.5 | 6.1 | 0.00 | 0.00 | 0.00 | 83 | 1018.9 |
| 20260831125733 | 75 | 179 | 1.7 | 4.3 | 0.00 | 0.00 | 0.00 | 83 | 1018.7 |
| 20260831125633 | 75 | 178 | 1.7 | 4.3 | 0.00 | 0.00 | 0.00 | 83 | 1018.7 |
| 20260831125532 | 75 | 179 | 3.5 | 4.3 | 0.00 | 0.00 | 0.00 | 83 | 1018.7 |
| 20260831125451 | 75 | 182 | 2.6 | 4.3 | 0.00 | 0.00 | 0.00 | 83 | 1018.7 |
| 20260831125334 | 75 | 182 | 2.6 | 4.3 | 0.00 | 0.00 | 0.00 | 83 | 1018.7 |
| 20260831125233 | 75 | 182 | 2.6 | 4.3 | 0.00 | 0.00 | 0.00 | 83 | 1018.7 |
| 20260831125132 | 75 | 182 | 1.7 | 4.3 | 0.00 | 0.00 | 0.00 | 83 | 1018.7 |
| 20260831125032 | 75 | 181 | 1.7 | 4.3 | 0.00 | 0.00 | 0.00 | 83 | 1018.7 |
| 20260831124950 | 75 | 184 | 2.6 | 4.3 | 0.00 | 0.00 | 0.00 | 84 | 1018.7 |
| 20260831124848 | 75 | 182 | 2.6 | 4.3 | 0.00 | 0.00 | 0.00 | 84 | 1018.7 |
| 20260831124745 | 75 | 182 | 1.7 | 4.3 | 0.00 | 0.00 | 0.00 | 84 | 1018.7 |
| 20260831124715 | 75 | 185 | 1.7 | 5.2 | 0.00 | 0.00 | 0.00 | 84 | 1018.7 |
| 20260831124530 | 75 | 185 | 1.7 | 5.2 | 0.00 | 0.00 | 0.00 | 84 | 1018.7 |
| 20260831124433 | 75 | 184 | 1.7 | 5.2 | 0.00 | 0.00 | 0.00 | 84 | 1018.7 |
| 20260831124332 | 75 | 179 | 2.6 | 5.2 | 0.00 | 0.00 | 0.00 | 84 | 1018.7 |
| 20260831124231 | 75 | 176 | 0.9 | 5.2 | 0.00 | 0.00 | 0.00 | 84 | 1018.7 |
| 20260831124131 | 75 | 179 | 1.7 | 5.2 | 0.00 | 0.00 | 0.00 | 84 | 1018.7 |
| 20260831124030 | 75 | 181 | 1.7 | 5.2 | 0.00 | 0.00 | 0.00 | 84 | 1018.7 |
| 20260831123953 | 75 | 179 | 2.6 | 5.2 | 0.00 | 0.00 | 0.00 | 84 | 1018.7 |
| 20260831123830 | 75 | 179 | 3.5 | 5.2 | 0.00 | 0.00 | 0.00 | 84 | 1018.7 |
| 20260831123733 | 75 | 181 | 3.5 | 5.2 | 0.00 | 0.00 | 0.00 | 84 | 1018.7 |
| 20260831123653 | 74 | 175 | 4.3 | 5.2 | 0.00 | 0.00 | 0.00 | 84 | 1018.7 |
| 20260831123531 | 74 | 191 | 2.6 | 5.2 | 0.00 | 0.00 | 0.00 | 84 | 1018.7 |
| 20260831123430 | 74 | 203 | 1.7 | 4.3 | 0.00 | 0.00 | 0.00 | 84 | 1018.7 |
| 20260831123329 | 74 | 202 | 1.7 | 4.3 | 0.00 | 0.00 | 0.00 | 84 | 1018.7 |
| 20260831123238 | 74 | 200 | 0.9 | 4.3 | 0.00 | 0.00 | 0.00 | 84 | 1018.7 |
| 20260831123149 | 74 | 203 | 0.9 | 4.3 | 0.00 | 0.00 | 0.00 | 84 | 1018.7 |
| 20260831123026 | 74 | 202 | 0.9 | 4.3 | 0.00 | 0.00 | 0.00 | 83 | 1018.7 |
| 20260831122929 | 74 | 203 | 1.7 | 4.3 | 0.00 | 0.00 | 0.00 | 83 | 1018.7 |
| 20260831122827 | 74 | 202 | 2.6 | 5.2 | 0.00 | 0.00 | 0.00 | 83 | 1018.7 |
| 20260831122725 | 74 | 202 | 0.9 | 5.2 | 0.00 | 0.00 | 0.00 | 83 | 1018.5 |
| 20260831122644 | 74 | 202 | 1.7 | 5.2 | 0.00 | 0.00 | 0.00 | 83 | 1018.5 |
| 20260831122602 | 74 | 203 | 2.6 | 5.2 | 0.00 | 0.00 | 0.00 | 83 | 1018.5 |
| 20260831122501 | 74 | 203 | 2.6 | 7.0 | 0.00 | 0.00 | 0.00 | 83 | 1018.5 |
| 20260831122337 | 74 | 200 | 1.7 | 7.0 | 0.00 | 0.00 | 0.00 | 83 | 1018.5 |
| 20260831122235 | 74 | 200 | 1.7 | 7.0 | 0.00 | 0.00 | 0.00 | 83 | 1018.5 |
| 20260831122138 | 74 | 199 | 1.7 | 7.0 | 0.00 | 0.00 | 0.00 | 83 | 1018.5 |
| 20260831122037 | 74 | 196 | 2.6 | 7.0 | 0.00 | 0.00 | 0.00 | 83 | 1018.5 |
| 20260831121956 | 74 | 200 | 2.6 | 7.0 | 0.00 | 0.00 | 0.00 | 83 | 1018.5 |
| 20260831121857 | 74 | 205 | 1.7 | 7.0 | 0.00 | 0.00 | 0.00 | 83 | 1018.5 |
| 20260831121735 | 74 | 203 | 2.6 | 7.0 | 0.00 | 0.00 | 0.00 | 83 | 1018.5 |
| 20260831121705 | 74 | 205 | 3.5 | 7.0 | 0.00 | 0.00 | 0.00 | 83 | 1018.5 |
| 20260831121602 | 74 | 205 | 4.3 | 7.0 | 0.00 | 0.00 | 0.00 | 83 | 1018.5 |
| 20260831121440 | 74 | 215 | 2.6 | 6.1 | 0.00 | 0.00 | 0.00 | 83 | 1018.5 |
| 20260831121340 | 74 | 189 | 1.7 | 5.2 | 0.00 | 0.00 | 0.00 | 83 | 1018.5 |
| 20260831121243 | 74 | 189 | 2.6 | 5.2 | 0.00 | 0.00 | 0.00 | 83 | 1018.1 |
| 20260831121141 | 74 | 189 | 2.6 | 5.2 | 0.00 | 0.00 | 0.00 | 83 | 1018.1 |
| 20260831121039 | 74 | 179 | 1.7 | 5.2 | 0.00 | 0.00 | 0.00 | 83 | 1018.1 |
| 20260831120938 | 74 | 179 | 1.7 | 5.2 | 0.00 | 0.00 | 0.00 | 83 | 1018.1 |
| 20260831120836 | 74 | 176 | 1.7 | 5.2 | 0.00 | 0.00 | 0.00 | 83 | 1018.1 |
| 20260831120736 | 74 | 179 | 1.7 | 5.2 | 0.00 | 0.00 | 0.00 | 83 | 1018.1 |
| 20260831120640 | 74 | 179 | 2.6 | 5.2 | 0.00 | 0.00 | 0.00 | 83 | 1018.1 |
| 20260831120539 | 74 | 176 | 2.6 | 5.2 | 0.00 | 0.00 | 0.00 | 83 | 1018.1 |
| 20260831120436 | 74 | 175 | 1.7 | 5.2 | 0.00 | 0.00 | 0.00 | 83 | 1018.1 |
| 20260831120333 | 74 | 175 | 1.7 | 5.2 | 0.00 | 0.00 | 0.00 | 83 | 1018.1 |
| 20260831120231 | 74 | 174 | 1.7 | 5.2 | 0.00 | 0.00 | 0.00 | 83 | 1018.1 |
| 20260831120201 | 74 | 172 | 1.7 | 5.2 | 0.00 | 0.00 | 0.00 | 83 | 1018.1 |
| 20260831120038 | 74 | 172 | 2.6 | 5.2 | 0.00 | 0.00 | 0.00 | 83 | 1018.1 |
| 20260831115940 | 74 | 172 | 1.7 | 5.2 | 0.00 | 0.00 | 0.00 | 83 | 1018.1 |
| 20260831115839 | 74 | 168 | 1.7 | 5.2 | 0.00 | 0.00 | 0.00 | 83 | 1018.1 |
| 20260831115737 | 74 | 174 | 2.6 | 5.2 | 0.00 | 0.00 | 0.00 | 83 | 1018.0 |
| 20260831115654 | 74 | 174 | 1.7 | 5.2 | 0.00 | 0.00 | 0.00 | 83 | 1018.0 |
| 20260831115532 | 74 | 175 | 2.6 | 5.2 | 0.00 | 0.00 | 0.00 | 83 | 1018.0 |
| 20260831115432 | 74 | 174 | 2.6 | 5.2 | 0.00 | 0.00 | 0.00 | 83 | 1018.0 |
| 20260831115332 | 74 | 171 | 3.5 | 5.2 | 0.00 | 0.00 | 0.00 | 83 | 1018.0 |
| 20260831115236 | 74 | 176 | 2.6 | 4.3 | 0.00 | 0.00 | 0.00 | 83 | 1018.0 |
| 20260831115134 | 74 | 176 | 1.7 | 5.2 | 0.00 | 0.00 | 0.00 | 83 | 1018.0 |
| 20260831115033 | 74 | 178 | 1.7 | 5.2 | 0.00 | 0.00 | 0.00 | 83 | 1018.0 |
| 20260831114932 | 74 | 176 | 1.7 | 5.2 | 0.00 | 0.00 | 0.00 | 83 | 1018.0 |
| 20260831114829 | 74 | 176 | 1.7 | 5.2 | 0.00 | 0.00 | 0.00 | 83 | 1018.0 |
| 20260831114740 | 74 | 176 | 3.5 | 5.2 | 0.00 | 0.00 | 0.00 | 83 | 1018.0 |
| 20260831114649 | 74 | 176 | 2.6 | 5.2 | 0.00 | 0.00 | 0.00 | 83 | 1018.0 |
| 20260831114528 | 74 | 179 | 1.7 | 5.2 | 0.00 | 0.00 | 0.00 | 83 | 1018.0 |
| 20260831114450 | 74 | 178 | 1.7 | 5.2 | 0.00 | 0.00 | 0.00 | 83 | 1018.0 |
| 20260831114327 | 74 | 179 | 2.6 | 5.2 | 0.00 | 0.00 | 0.00 | 83 | 1018.0 |
| 20260831114244 | 74 | 184 | 2.6 | 5.2 | 0.00 | 0.00 | 0.00 | 83 | 1017.8 |
| 20260831114143 | 74 | 185 | 1.7 | 5.2 | 0.00 | 0.00 | 0.00 | 82 | 1017.8 |
| 20260831114042 | 74 | 185 | 1.7 | 5.2 | 0.00 | 0.00 | 0.00 | 82 | 1017.8 |
| 20260831113942 | 74 | 186 | 2.6 | 6.1 | 0.00 | 0.00 | 0.00 | 82 | 1017.8 |
| 20260831113840 | 74 | 185 | 1.7 | 6.1 | 0.00 | 0.00 | 0.00 | 82 | 1017.8 |
| 20260831113744 | 74 | 185 | 2.6 | 6.1 | 0.00 | 0.00 | 0.00 | 82 | 1017.8 |
| 20260831113702 | 74 | 182 | 3.5 | 6.1 | 0.00 | 0.00 | 0.00 | 82 | 1017.8 |
| 20260831113539 | 74 | 184 | 3.5 | 6.1 | 0.00 | 0.00 | 0.00 | 82 | 1017.8 |
| 20260831113438 | 74 | 188 | 3.5 | 6.1 | 0.00 | 0.00 | 0.00 | 82 | 1017.8 |
| 20260831113337 | 74 | 189 | 1.7 | 6.1 | 0.00 | 0.00 | 0.00 | 82 | 1017.8 |
| 20260831113256 | 74 | 188 | 1.7 | 6.1 | 0.00 | 0.00 | 0.00 | 82 | 1017.8 |
| 20260831113227 | 74 | 191 | 2.6 | 7.0 | 0.00 | 0.00 | 0.00 | 82 | 1017.8 |
| 20260831113103 | 74 | 202 | 3.5 | 7.8 | 0.00 | 0.00 | 0.00 | 82 | 1017.8 |
| 20260831112925 | 74 | 205 | 2.6 | 7.8 | 0.00 | 0.00 | 0.00 | 82 | 1017.8 |
| 20260831112843 | 74 | 203 | 2.6 | 7.8 | 0.00 | 0.00 | 0.00 | 82 | 1017.8 |
| 20260831112741 | 74 | 200 | 3.5 | 7.8 | 0.00 | 0.00 | 0.00 | 82 | 1017.8 |
| 20260831112639 | 74 | 195 | 2.6 | 7.8 | 0.00 | 0.00 | 0.00 | 82 | 1017.8 |
| 20260831112537 | 74 | 191 | 1.7 | 7.8 | 0.00 | 0.00 | 0.00 | 82 | 1017.8 |
| 20260831112439 | 74 | 203 | 2.6 | 7.8 | 0.00 | 0.00 | 0.00 | 82 | 1017.8 |
| 20260831112337 | 74 | 191 | 3.5 | 7.8 | 0.00 | 0.00 | 0.00 | 82 | 1017.8 |
| 20260831112255 | 74 | 196 | 4.3 | 7.8 | 0.00 | 0.00 | 0.00 | 82 | 1017.8 |
| 20260831112137 | 74 | 202 | 3.5 | 7.0 | 0.00 | 0.00 | 0.00 | 82 | 1017.8 |
| 20260831112037 | 74 | 195 | 3.5 | 7.0 | 0.00 | 0.00 | 0.00 | 82 | 1017.8 |
| 20260831111940 | 74 | 196 | 3.5 | 7.0 | 0.00 | 0.00 | 0.00 | 82 | 1017.8 |
| 20260831111901 | 74 | 199 | 3.5 | 7.0 | 0.00 | 0.00 | 0.00 | 82 | 1017.8 |
| 20260831111738 | 74 | 205 | 3.5 | 9.6 | 0.00 | 0.00 | 0.00 | 82 | 1017.8 |
| 20260831111709 | 74 | 203 | 4.3 | 9.6 | 0.00 | 0.00 | 0.00 | 82 | 1017.8 |
| 20260831111526 | 74 | 195 | 4.3 | 9.6 | 0.00 | 0.00 | 0.00 | 82 | 1017.8 |
| 20260831111428 | 74 | 184 | 3.5 | 9.6 | 0.00 | 0.00 | 0.00 | 82 | 1017.8 |
| 20260831111328 | 74 | 186 | 2.6 | 9.6 | 0.00 | 0.00 | 0.00 | 82 | 1017.8 |
| 20260831111224 | 74 | 185 | 2.6 | 9.6 | 0.00 | 0.00 | 0.00 | 82 | 1017.6 |
| 20260831111143 | 74 | 188 | 2.6 | 9.6 | 0.00 | 0.00 | 0.00 | 82 | 1017.6 |
| 20260831111041 | 74 | 189 | 2.6 | 9.6 | 0.00 | 0.00 | 0.00 | 82 | 1017.6 |
| 20260831110940 | 74 | 185 | 2.6 | 9.6 | 0.00 | 0.00 | 0.00 | 82 | 1017.6 |
| 20260831110838 | 74 | 174 | 2.6 | 5.2 | 0.00 | 0.00 | 0.00 | 82 | 1017.6 |
| 20260831110736 | 74 | 169 | 2.6 | 5.2 | 0.00 | 0.00 | 0.00 | 82 | 1017.6 |
| 20260831110639 | 74 | 171 | 2.6 | 5.2 | 0.00 | 0.00 | 0.00 | 82 | 1017.6 |
| 20260831110558 | 74 | 174 | 2.6 | 5.2 | 0.00 | 0.00 | 0.00 | 82 | 1017.6 |
| 20260831110435 | 74 | 174 | 1.7 | 5.2 | 0.00 | 0.00 | 0.00 | 82 | 1017.6 |
| 20260831110333 | 74 | 171 | 2.6 | 5.2 | 0.00 | 0.00 | 0.00 | 81 | 1017.6 |
| 20260831110232 | 74 | 169 | 2.6 | 6.1 | 0.00 | 0.00 | 0.00 | 81 | 1017.6 |
| 20260831110204 | 74 | 168 | 2.6 | 6.1 | 0.00 | 0.00 | 0.00 | 81 | 1017.6 |
| 20260831110040 | 74 | 167 | 2.6 | 6.1 | 0.00 | 0.00 | 0.00 | 81 | 1017.6 |
| 20260831105944 | 74 | 165 | 3.5 | 6.1 | 0.00 | 0.00 | 0.00 | 81 | 1017.6 |
| 20260831105842 | 74 | 168 | 3.5 | 6.1 | 0.00 | 0.00 | 0.00 | 81 | 1017.6 |
| 20260831105742 | 74 | 169 | 1.7 | 6.1 | 0.00 | 0.00 | 0.00 | 81 | 1017.3 |
| 20260831105641 | 74 | 171 | 1.7 | 6.1 | 0.00 | 0.00 | 0.00 | 81 | 1017.3 |
| 20260831105559 | 74 | 168 | 2.6 | 6.1 | 0.00 | 0.00 | 0.00 | 81 | 1017.3 |
| 20260831105437 | 74 | 167 | 2.6 | 6.1 | 0.00 | 0.00 | 0.00 | 81 | 1017.3 |
| 20260831105336 | 74 | 167 | 4.3 | 6.1 | 0.00 | 0.00 | 0.00 | 81 | 1017.3 |
| 20260831105240 | 74 | 172 | 3.5 | 5.2 | 0.00 | 0.00 | 0.00 | 81 | 1017.3 |
| 20260831105200 | 74 | 169 | 2.6 | 5.2 | 0.00 | 0.00 | 0.00 | 81 | 1017.3 |
| 20260831105035 | 74 | 169 | 1.7 | 5.2 | 0.00 | 0.00 | 0.00 | 81 | 1017.3 |
| 20260831104956 | 74 | 174 | 1.7 | 5.2 | 0.00 | 0.00 | 0.00 | 81 | 1017.3 |
| 20260831104833 | 74 | 172 | 2.6 | 5.2 | 0.00 | 0.00 | 0.00 | 81 | 1017.3 |
| 20260831104733 | 74 | 174 | 2.6 | 5.2 | 0.00 | 0.00 | 0.00 | 81 | 1017.3 |
| 20260831104700 | 74 | 175 | 2.6 | 5.2 | 0.00 | 0.00 | 0.00 | 81 | 1017.3 |
| 20260831104540 | 74 | 175 | 2.6 | 5.2 | 0.00 | 0.00 | 0.00 | 81 | 1017.3 |
| 20260831104436 | 74 | 175 | 2.6 | 5.2 | 0.00 | 0.00 | 0.00 | 81 | 1017.3 |
| 20260831104355 | 74 | 179 | 2.6 | 5.2 | 0.00 | 0.00 | 0.00 | 81 | 1017.3 |
| 20260831104238 | 74 | 181 | 2.6 | 5.2 | 0.00 | 0.00 | 0.00 | 81 | 1017.1 |
| 20260831104137 | 74 | 184 | 2.6 | 5.2 | 0.00 | 0.00 | 0.00 | 81 | 1017.1 |
| 20260831104036 | 74 | 185 | 1.7 | 7.0 | 0.00 | 0.00 | 0.00 | 81 | 1017.1 |
| 20260831103933 | 74 | 182 | 1.7 | 7.0 | 0.00 | 0.00 | 0.00 | 81 | 1017.1 |
| 20260831103852 | 74 | 186 | 1.7 | 7.0 | 0.00 | 0.00 | 0.00 | 81 | 1017.1 |
| 20260831103730 | 74 | 186 | 1.7 | 7.0 | 0.00 | 0.00 | 0.00 | 81 | 1017.1 |
| 20260831103629 | 74 | 185 | 2.6 | 7.0 | 0.00 | 0.00 | 0.00 | 80 | 1017.1 |
| 20260831103528 | 74 | 185 | 2.6 | 7.0 | 0.00 | 0.00 | 0.00 | 80 | 1017.1 |
| 20260831103450 | 74 | 184 | 2.6 | 7.0 | 0.00 | 0.00 | 0.00 | 80 | 1017.1 |
| 20260831103327 | 74 | 189 | 2.6 | 7.0 | 0.00 | 0.00 | 0.00 | 80 | 1017.1 |
| 20260831103227 | 74 | 189 | 4.3 | 7.0 | 0.00 | 0.00 | 0.00 | 80 | 1017.1 |
| 20260831103157 | 74 | 192 | 2.6 | 9.6 | 0.00 | 0.00 | 0.00 | 80 | 1017.1 |
| 20260831103035 | 74 | 205 | 2.6 | 9.6 | 0.00 | 0.00 | 0.00 | 80 | 1017.1 |
| 20260831102953 | 74 | 192 | 4.3 | 9.6 | 0.00 | 0.00 | 0.00 | 80 | 1017.1 |
| 20260831102830 | 74 | 191 | 3.5 | 9.6 | 0.00 | 0.00 | 0.00 | 80 | 1017.1 |
| 20260831102730 | 74 | 188 | 2.6 | 9.6 | 0.00 | 0.00 | 0.00 | 80 | 1017.0 |
| 20260831102653 | 74 | 196 | 3.5 | 9.6 | 0.00 | 0.00 | 0.00 | 80 | 1017.0 |
| 20260831102531 | 74 | 200 | 4.3 | 9.6 | 0.00 | 0.00 | 0.00 | 80 | 1017.0 |
| 20260831102430 | 74 | 195 | 3.5 | 9.6 | 0.00 | 0.00 | 0.00 | 80 | 1017.0 |
| 20260831102329 | 74 | 185 | 4.3 | 11.3 | 0.00 | 0.00 | 0.00 | 80 | 1017.0 |
| 20260831102229 | 74 | 188 | 5.2 | 11.3 | 0.00 | 0.00 | 0.00 | 80 | 1017.0 |
| 20260831102127 | 74 | 191 | 3.5 | 11.3 | 0.00 | 0.00 | 0.00 | 80 | 1017.0 |
| 20260831102027 | 74 | 178 | 5.2 | 11.3 | 0.00 | 0.00 | 0.00 | 80 | 1017.0 |
| 20260831101931 | 74 | 199 | 6.1 | 11.3 | 0.00 | 0.00 | 0.00 | 80 | 1017.0 |
| 20260831101830 | 74 | 205 | 4.3 | 11.3 | 0.00 | 0.00 | 0.00 | 80 | 1017.0 |
| 20260831101751 | 74 | 200 | 3.5 | 11.3 | 0.00 | 0.00 | 0.00 | 80 | 1017.0 |
| 20260831101720 | 74 | 188 | 5.2 | 11.3 | 0.00 | 0.00 | 0.00 | 80 | 1017.0 |
| 20260831101538 | 74 | 192 | 4.3 | 11.3 | 0.00 | 0.00 | 0.00 | 80 | 1017.0 |
| 20260831101435 | 74 | 202 | 5.2 | 11.3 | 0.00 | 0.00 | 0.00 | 80 | 1017.0 |
| 20260831101335 | 74 | 179 | 5.2 | 8.7 | 0.00 | 0.00 | 0.00 | 80 | 1017.0 |
| 20260831101234 | 74 | 206 | 6.1 | 8.7 | 0.00 | 0.00 | 0.00 | 80 | 1016.9 |
| 20260831101138 | 74 | 178 | 5.2 | 8.7 | 0.00 | 0.00 | 0.00 | 80 | 1016.9 |
| 20260831101036 | 74 | 179 | 5.2 | 8.7 | 0.00 | 0.00 | 0.00 | 80 | 1016.9 |
| 20260831100936 | 74 | 188 | 4.3 | 8.7 | 0.00 | 0.00 | 0.00 | 80 | 1016.9 |
| 20260831100835 | 74 | 186 | 4.3 | 8.7 | 0.00 | 0.00 | 0.00 | 80 | 1016.9 |
| 20260831100734 | 74 | 191 | 2.6 | 7.0 | 0.00 | 0.00 | 0.00 | 80 | 1016.9 |
| 20260831100633 | 74 | 188 | 3.5 | 7.0 | 0.00 | 0.00 | 0.00 | 80 | 1016.9 |
| 20260831100553 | 74 | 182 | 2.6 | 7.0 | 0.00 | 0.00 | 0.00 | 80 | 1016.9 |
| 20260831100434 | 74 | 169 | 4.3 | 7.0 | 0.00 | 0.00 | 0.00 | 80 | 1016.9 |
| 20260831100333 | 74 | 189 | 2.6 | 7.0 | 0.00 | 0.00 | 0.00 | 80 | 1016.9 |
| 20260831100233 | 74 | 175 | 2.6 | 7.0 | 0.00 | 0.00 | 0.00 | 80 | 1016.9 |
| 20260831100204 | 74 | 186 | 2.6 | 7.0 | 0.00 | 0.00 | 0.00 | 80 | 1016.9 |
| 20260831100040 | 74 | 186 | 3.5 | 7.8 | 0.00 | 0.00 | 0.00 | 80 | 1016.9 |
| 20260831095959 | 74 | 196 | 3.5 | 7.8 | 0.00 | 0.00 | 0.00 | 80 | 1016.9 |
| 20260831095837 | 74 | 185 | 4.3 | 7.8 | 0.00 | 0.00 | 0.00 | 80 | 1016.9 |
| 20260831095755 | 74 | 195 | 4.3 | 7.8 | 0.00 | 0.00 | 0.00 | 80 | 1016.9 |
| 20260831095634 | 74 | 193 | 4.3 | 7.8 | 0.00 | 0.00 | 0.00 | 80 | 1016.9 |
| 20260831095557 | 74 | 213 | 3.5 | 7.8 | 0.00 | 0.00 | 0.00 | 80 | 1016.9 |
| 20260831095454 | 74 | 184 | 4.3 | 7.8 | 0.00 | 0.00 | 0.00 | 80 | 1016.9 |
| 20260831095331 | 74 | 196 | 3.5 | 8.7 | 0.00 | 0.00 | 0.00 | 80 | 1016.9 |
| 20260831095230 | 74 | 193 | 3.5 | 8.7 | 0.00 | 0.00 | 0.00 | 80 | 1016.9 |
| 20260831095127 | 74 | 182 | 3.5 | 8.7 | 0.00 | 0.00 | 0.00 | 80 | 1016.9 |
| 20260831095024 | 74 | 189 | 4.3 | 8.7 | 0.00 | 0.00 | 0.00 | 80 | 1016.9 |
| 20260831094943 | 74 | 192 | 3.5 | 8.7 | 0.00 | 0.00 | 0.00 | 80 | 1016.9 |
| 20260831094843 | 74 | 189 | 2.6 | 8.7 | 0.00 | 0.00 | 0.00 | 80 | 1016.9 |
| 20260831094726 | 74 | 178 | 2.6 | 8.7 | 0.00 | 0.00 | 0.00 | 80 | 1016.9 |
| 20260831094657 | 74 | 182 | 4.3 | 8.7 | 0.00 | 0.00 | 0.00 | 80 | 1016.9 |
| 20260831094535 | 74 | 182 | 4.3 | 8.7 | 0.00 | 0.00 | 0.00 | 80 | 1016.9 |
| 20260831094453 | 74 | 191 | 3.5 | 8.7 | 0.00 | 0.00 | 0.00 | 80 | 1016.9 |
| 20260831094330 | 74 | 184 | 4.3 | 6.1 | 0.00 | 0.00 | 0.00 | 80 | 1016.9 |
| 20260831094228 | 74 | 193 | 3.5 | 6.1 | 0.00 | 0.00 | 0.00 | 80 | 1016.7 |
| 20260831094146 | 74 | 199 | 3.5 | 6.1 | 0.00 | 0.00 | 0.00 | 80 | 1016.7 |
| 20260831094104 | 74 | 193 | 2.6 | 6.1 | 0.00 | 0.00 | 0.00 | 80 | 1016.7 |
| 20260831093926 | 75 | 185 | 3.5 | 6.1 | 0.00 | 0.00 | 0.00 | 80 | 1016.7 |
| 20260831093825 | 75 | 188 | 2.6 | 6.1 | 0.00 | 0.00 | 0.00 | 80 | 1016.7 |
| 20260831093744 | 75 | 178 | 3.5 | 6.1 | 0.00 | 0.00 | 0.00 | 80 | 1016.7 |
| 20260831093702 | 75 | 175 | 4.3 | 6.1 | 0.00 | 0.00 | 0.00 | 80 | 1016.7 |
| 20260831093540 | 75 | 164 | 2.6 | 6.1 | 0.00 | 0.00 | 0.00 | 80 | 1016.7 |
| 20260831093440 | 75 | 167 | 2.6 | 6.1 | 0.00 | 0.00 | 0.00 | 80 | 1016.7 |
| 20260831093338 | 75 | 145 | 4.3 | 6.1 | 0.00 | 0.00 | 0.00 | 80 | 1016.7 |
| 20260831093242 | 75 | 144 | 5.2 | 6.1 | 0.00 | 0.00 | 0.00 | 80 | 1016.7 |
| 20260831093212 | 75 | 151 | 2.6 | 7.0 | 0.00 | 0.00 | 0.00 | 80 | 1016.7 |
| 20260831093026 | 75 | 165 | 3.5 | 7.0 | 0.00 | 0.00 | 0.00 | 80 | 1016.7 |
| 20260831092946 | 75 | 151 | 3.5 | 7.0 | 0.00 | 0.00 | 0.00 | 80 | 1016.7 |
| 20260831092844 | 75 | 145 | 4.3 | 7.0 | 0.00 | 0.00 | 0.00 | 80 | 1016.7 |
| 20260831092743 | 75 | 162 | 4.3 | 7.0 | 0.00 | 0.00 | 0.00 | 80 | 1016.7 |
| 20260831092703 | 75 | 169 | 3.5 | 7.0 | 0.00 | 0.00 | 0.00 | 80 | 1016.7 |
| 20260831092542 | 75 | 169 | 3.5 | 7.0 | 0.00 | 0.00 | 0.00 | 80 | 1016.7 |
| 20260831092425 | 75 | 160 | 2.6 | 7.0 | 0.00 | 0.00 | 0.00 | 79 | 1016.7 |
| 20260831092342 | 75 | 158 | 4.3 | 7.0 | 0.00 | 0.00 | 0.00 | 80 | 1016.7 |
| 20260831092240 | 75 | 137 | 4.3 | 7.0 | 0.00 | 0.00 | 0.00 | 80 | 1016.7 |
| 20260831092138 | 75 | 169 | 4.3 | 6.1 | 0.00 | 0.00 | 0.00 | 79 | 1016.7 |
| 20260831092037 | 75 | 169 | 2.6 | 7.0 | 0.00 | 0.00 | 0.00 | 79 | 1016.7 |
| 20260831091934 | 75 | 162 | 3.5 | 7.0 | 0.00 | 0.00 | 0.00 | 79 | 1016.7 |
| 20260831091852 | 75 | 182 | 3.5 | 7.0 | 0.00 | 0.00 | 0.00 | 79 | 1016.7 |
| 20260831091740 | 75 | 144 | 3.5 | 7.0 | 0.00 | 0.00 | 0.00 | 79 | 1016.7 |
| 20260831091650 | 75 | 162 | 3.5 | 7.0 | 0.00 | 0.00 | 0.00 | 79 | 1016.7 |
| 20260831091526 | 75 | 167 | 4.3 | 7.0 | 0.00 | 0.00 | 0.00 | 79 | 1016.7 |
| 20260831091427 | 75 | 171 | 1.7 | 7.0 | 0.00 | 0.00 | 0.00 | 79 | 1016.7 |
| 20260831091345 | 75 | 179 | 3.5 | 8.7 | 0.00 | 0.00 | 0.00 | 79 | 1016.7 |
| 20260831091242 | 75 | 167 | 4.3 | 8.7 | 0.00 | 0.00 | 0.00 | 79 | 1016.6 |
| 20260831091140 | 75 | 169 | 4.3 | 8.7 | 0.00 | 0.00 | 0.00 | 79 | 1016.6 |
| 20260831091038 | 75 | 168 | 3.5 | 8.7 | 0.00 | 0.00 | 0.00 | 79 | 1016.6 |
| 20260831090936 | 75 | 164 | 2.6 | 8.7 | 0.00 | 0.00 | 0.00 | 79 | 1016.6 |
| 20260831090835 | 75 | 168 | 4.3 | 8.7 | 0.00 | 0.00 | 0.00 | 79 | 1016.6 |
| 20260831090738 | 75 | 168 | 3.5 | 8.7 | 0.00 | 0.00 | 0.00 | 79 | 1016.6 |
| 20260831090635 | 75 | 165 | 3.5 | 8.7 | 0.00 | 0.00 | 0.00 | 79 | 1016.6 |
| 20260831090535 | 75 | 169 | 3.5 | 8.7 | 0.00 | 0.00 | 0.00 | 79 | 1016.6 |
| 20260831090435 | 75 | 169 | 3.5 | 7.0 | 0.00 | 0.00 | 0.00 | 79 | 1016.6 |
| 20260831090332 | 75 | 184 | 3.5 | 7.0 | 0.00 | 0.00 | 0.00 | 79 | 1016.6 |
| 20260831090240 | 75 | 182 | 4.3 | 7.0 | 0.00 | 0.00 | 0.00 | 79 | 1016.6 |
| 20260831090149 | 75 | 179 | 5.2 | 7.0 | 0.00 | 0.00 | 0.00 | 79 | 1016.6 |
| 20260831090029 | 75 | 165 | 3.5 | 7.0 | 0.00 | 0.00 | 0.00 | 79 | 1016.6 |
| 20260831085932 | 75 | 185 | 3.5 | 8.7 | 0.00 | 0.00 | 0.00 | 79 | 1016.6 |
| 20260831085830 | 75 | 174 | 4.3 | 8.7 | 0.00 | 0.00 | 0.00 | 79 | 1016.6 |
| 20260831085729 | 75 | 174 | 4.3 | 8.7 | 0.00 | 0.00 | 0.00 | 79 | 1016.5 |
| 20260831085626 | 75 | 181 | 4.3 | 8.7 | 0.00 | 0.00 | 0.00 | 79 | 1016.5 |
| 20260831085544 | 75 | 178 | 3.5 | 8.7 | 0.00 | 0.00 | 0.00 | 79 | 1016.5 |
| 20260831085441 | 75 | 165 | 3.5 | 8.7 | 0.00 | 0.00 | 0.00 | 79 | 1016.5 |
| 20260831085324 | 75 | 175 | 2.6 | 8.7 | 0.00 | 0.00 | 0.00 | 79 | 1016.5 |
| 20260831085244 | 75 | 165 | 2.6 | 8.7 | 0.00 | 0.00 | 0.00 | 79 | 1016.5 |
| 20260831085140 | 75 | 162 | 4.3 | 8.7 | 0.00 | 0.00 | 0.00 | 79 | 1016.5 |
| 20260831085038 | 75 | 161 | 4.3 | 8.7 | 0.00 | 0.00 | 0.00 | 79 | 1016.5 |
| 20260831084957 | 75 | 182 | 3.5 | 7.8 | 0.00 | 0.00 | 0.00 | 79 | 1016.5 |
| 20260831084857 | 75 | 172 | 4.3 | 7.8 | 0.00 | 0.00 | 0.00 | 79 | 1016.5 |
| 20260831084815 | 75 | 169 | 3.5 | 7.8 | 0.00 | 0.00 | 0.00 | 78 | 1016.5 |
| 20260831084723 | 75 | 179 | 2.6 | 7.8 | 0.00 | 0.00 | 0.00 | 79 | 1016.5 |
| 20260831084539 | 75 | 172 | 3.5 | 7.8 | 0.00 | 0.00 | 0.00 | 78 | 1016.5 |
| 20260831084458 | 75 | 181 | 4.3 | 7.8 | 0.00 | 0.00 | 0.00 | 78 | 1016.5 |
| 20260831084339 | 75 | 176 | 3.5 | 7.0 | 0.00 | 0.00 | 0.00 | 78 | 1016.5 |
| 20260831084239 | 75 | 164 | 4.3 | 7.0 | 0.00 | 0.00 | 0.00 | 78 | 1016.5 |
| 20260831084139 | 75 | 178 | 4.3 | 7.0 | 0.00 | 0.00 | 0.00 | 78 | 1016.5 |
| 20260831084037 | 75 | 179 | 4.3 | 7.0 | 0.00 | 0.00 | 0.00 | 78 | 1016.5 |
| 20260831083936 | 75 | 178 | 4.3 | 7.0 | 0.00 | 0.00 | 0.00 | 78 | 1016.5 |
| 20260831083834 | 75 | 176 | 4.3 | 7.0 | 0.00 | 0.00 | 0.00 | 78 | 1016.5 |
| 20260831083733 | 75 | 185 | 3.5 | 7.0 | 0.00 | 0.00 | 0.00 | 78 | 1016.5 |
| 20260831083637 | 75 | 178 | 3.5 | 7.0 | 0.00 | 0.00 | 0.00 | 78 | 1016.5 |
| 20260831083535 | 75 | 174 | 3.5 | 7.0 | 0.00 | 0.00 | 0.00 | 78 | 1016.5 |
| 20260831083432 | 75 | 168 | 2.6 | 7.8 | 0.00 | 0.00 | 0.00 | 79 | 1016.5 |
| 20260831083331 | 75 | 167 | 3.5 | 7.8 | 0.00 | 0.00 | 0.00 | 79 | 1016.5 |
| 20260831083231 | 75 | 158 | 4.3 | 7.8 | 0.00 | 0.00 | 0.00 | 79 | 1016.5 |
| 20260831083201 | 75 | 154 | 4.3 | 7.8 | 0.00 | 0.00 | 0.00 | 79 | 1016.5 |
| 20260831083041 | 75 | 164 | 3.5 | 7.8 | 0.00 | 0.00 | 0.00 | 79 | 1016.5 |
| 20260831082943 | 75 | 161 | 2.6 | 7.8 | 0.00 | 0.00 | 0.00 | 79 | 1016.5 |
| 20260831082902 | 75 | 158 | 3.5 | 7.8 | 0.00 | 0.00 | 0.00 | 79 | 1016.5 |
| 20260831082739 | 75 | 162 | 5.2 | 7.8 | 0.00 | 0.00 | 0.00 | 78 | 1016.4 |
| 20260831082638 | 75 | 179 | 6.1 | 7.8 | 0.00 | 0.00 | 0.00 | 78 | 1016.4 |
| 20260831082537 | 75 | 152 | 5.2 | 7.8 | 0.00 | 0.00 | 0.00 | 78 | 1016.4 |
| 20260831082436 | 75 | 167 | 4.3 | 7.8 | 0.00 | 0.00 | 0.00 | 78 | 1016.4 |
| 20260831082333 | 75 | 161 | 3.5 | 7.0 | 0.00 | 0.00 | 0.00 | 78 | 1016.4 |
| 20260831082236 | 75 | 157 | 3.5 | 7.0 | 0.00 | 0.00 | 0.00 | 78 | 1016.4 |
| 20260831082134 | 75 | 147 | 3.5 | 7.0 | 0.00 | 0.00 | 0.00 | 78 | 1016.4 |
| 20260831082034 | 75 | 171 | 4.3 | 7.0 | 0.00 | 0.00 | 0.00 | 78 | 1016.4 |
| 20260831081933 | 75 | 160 | 4.3 | 7.0 | 0.00 | 0.00 | 0.00 | 78 | 1016.4 |
| 20260831081831 | 75 | 158 | 3.5 | 7.0 | 0.00 | 0.00 | 0.00 | 78 | 1016.4 |
| 20260831081731 | 75 | 161 | 4.3 | 7.0 | 0.00 | 0.00 | 0.00 | 78 | 1016.4 |
| 20260831081700 | 75 | 152 | 4.3 | 7.0 | 0.00 | 0.00 | 0.00 | 78 | 1016.4 |
| 20260831081541 | 75 | 167 | 3.5 | 7.0 | 0.00 | 0.00 | 0.00 | 78 | 1016.4 |
| 20260831081438 | 75 | 165 | 3.5 | 7.0 | 0.00 | 0.00 | 0.00 | 78 | 1016.4 |
| 20260831081336 | 75 | 160 | 3.5 | 7.0 | 0.00 | 0.00 | 0.00 | 78 | 1016.4 |
| 20260831081234 | 75 | 161 | 3.5 | 7.0 | 0.00 | 0.00 | 0.00 | 78 | 1016.4 |
| 20260831081131 | 75 | 162 | 2.6 | 7.0 | 0.00 | 0.00 | 0.00 | 78 | 1016.4 |
| 20260831081030 | 75 | 150 | 3.5 | 7.0 | 0.00 | 0.00 | 0.00 | 78 | 1016.4 |
| 20260831080930 | 75 | 169 | 2.6 | 7.0 | 0.00 | 0.00 | 0.00 | 78 | 1016.4 |
| 20260831080828 | 75 | 164 | 3.5 | 7.0 | 0.00 | 0.00 | 0.00 | 78 | 1016.4 |
| 20260831080733 | 75 | 157 | 4.3 | 7.0 | 0.00 | 0.00 | 0.00 | 78 | 1016.4 |
| 20260831080630 | 75 | 171 | 3.5 | 7.8 | 0.00 | 0.00 | 0.00 | 78 | 1016.4 |
| 20260831080527 | 75 | 175 | 4.3 | 7.8 | 0.00 | 0.00 | 0.00 | 78 | 1016.4 |
| 20260831080446 | 75 | 162 | 5.2 | 7.8 | 0.00 | 0.00 | 0.00 | 78 | 1016.4 |
| 20260831080325 | 75 | 165 | 5.2 | 7.8 | 0.00 | 0.00 | 0.00 | 78 | 1016.4 |
| 20260831080237 | 75 | 157 | 6.1 | 7.8 | 0.00 | 0.00 | 0.00 | 78 | 1016.4 |
| 20260831080146 | 75 | 169 | 3.5 | 7.8 | 0.00 | 0.00 | 0.00 | 78 | 1016.4 |
| 20260831080024 | 75 | 178 | 5.2 | 7.8 | 0.00 | 0.00 | 0.00 | 78 | 1016.4 |
| 20260831075927 | 75 | 179 | 2.6 | 7.8 | 0.00 | 0.00 | 0.00 | 78 | 1016.4 |
| 20260831075826 | 75 | 185 | 4.3 | 7.8 | 0.00 | 0.00 | 0.00 | 77 | 1016.4 |
| 20260831075724 | 75 | 184 | 3.5 | 7.8 | 0.00 | 0.00 | 0.00 | 77 | 1016.5 |
| 20260831075643 | 75 | 143 | 4.3 | 7.0 | 0.00 | 0.00 | 0.00 | 77 | 1016.5 |
| 20260831075543 | 75 | 160 | 3.5 | 6.1 | 0.00 | 0.00 | 0.00 | 77 | 1016.5 |
| 20260831075442 | 75 | 175 | 3.5 | 6.1 | 0.00 | 0.00 | 0.00 | 77 | 1016.5 |
| 20260831075325 | 75 | 169 | 4.3 | 6.1 | 0.00 | 0.00 | 0.00 | 77 | 1016.5 |
| 20260831075242 | 75 | 168 | 4.3 | 7.8 | 0.00 | 0.00 | 0.00 | 77 | 1016.5 |
| 20260831075141 | 75 | 168 | 3.5 | 8.7 | 0.00 | 0.00 | 0.00 | 77 | 1016.5 |
| 20260831075040 | 75 | 171 | 2.6 | 8.7 | 0.00 | 0.00 | 0.00 | 77 | 1016.5 |
| 20260831074938 | 75 | 172 | 3.5 | 8.7 | 0.00 | 0.00 | 0.00 | 77 | 1016.5 |
| 20260831074836 | 75 | 172 | 4.3 | 8.7 | 0.00 | 0.00 | 0.00 | 77 | 1016.5 |
| 20260831074755 | 75 | 175 | 3.5 | 8.7 | 0.00 | 0.00 | 0.00 | 77 | 1016.5 |
| 20260831074702 | 75 | 169 | 3.5 | 8.7 | 0.00 | 0.00 | 0.00 | 77 | 1016.5 |
| 20260831074601 | 75 | 189 | 3.5 | 8.7 | 0.00 | 0.00 | 0.00 | 77 | 1016.5 |
| 20260831074503 | 75 | 202 | 4.3 | 8.7 | 0.00 | 0.00 | 0.00 | 77 | 1016.5 |
| 20260831074400 | 75 | 195 | 5.2 | 8.7 | 0.00 | 0.00 | 0.00 | 77 | 1016.5 |
| 20260831074236 | 75 | 165 | 4.3 | 7.0 | 0.00 | 0.00 | 0.00 | 77 | 1016.5 |
| 20260831074134 | 75 | 167 | 3.5 | 7.0 | 0.00 | 0.00 | 0.00 | 77 | 1016.5 |
| 20260831074053 | 75 | 161 | 4.3 | 7.0 | 0.00 | 0.00 | 0.00 | 77 | 1016.5 |
| 20260831073931 | 75 | 158 | 4.3 | 7.0 | 0.00 | 0.00 | 0.00 | 77 | 1016.5 |
| 20260831073829 | 75 | 154 | 4.3 | 6.1 | 0.00 | 0.00 | 0.00 | 77 | 1016.5 |
| 20260831073748 | 75 | 155 | 4.3 | 7.0 | 0.00 | 0.00 | 0.00 | 77 | 1016.5 |
| 20260831073627 | 75 | 160 | 3.5 | 7.0 | 0.00 | 0.00 | 0.00 | 77 | 1016.5 |
| 20260831073531 | 75 | 169 | 4.3 | 7.0 | 0.00 | 0.00 | 0.00 | 77 | 1016.5 |
| 20260831073430 | 75 | 165 | 4.3 | 7.0 | 0.00 | 0.00 | 0.00 | 77 | 1016.5 |
| 20260831073328 | 75 | 154 | 3.5 | 8.7 | 0.00 | 0.00 | 0.00 | 77 | 1016.5 |
| 20260831073239 | 75 | 158 | 2.6 | 8.7 | 0.00 | 0.00 | 0.00 | 77 | 1016.5 |
| 20260831073148 | 75 | 151 | 2.6 | 8.7 | 0.00 | 0.00 | 0.00 | 77 | 1016.5 |
| 20260831073045 | 75 | 168 | 2.6 | 8.7 | 0.00 | 0.00 | 0.00 | 77 | 1016.5 |
| 20260831073004 | 76 | 168 | 4.3 | 8.7 | 0.00 | 0.00 | 0.00 | 77 | 1016.5 |
| 20260831072901 | 76 | 158 | 4.3 | 8.7 | 0.00 | 0.00 | 0.00 | 77 | 1016.5 |
| 20260831072739 | 76 | 165 | 2.6 | 8.7 | 0.00 | 0.00 | 0.00 | 77 | 1016.5 |
| 20260831072642 | 76 | 182 | 4.3 | 8.7 | 0.00 | 0.00 | 0.00 | 77 | 1016.5 |
| 20260831072541 | 76 | 167 | 5.2 | 9.6 | 0.00 | 0.00 | 0.00 | 77 | 1016.5 |
| 20260831072439 | 76 | 161 | 4.3 | 9.6 | 0.00 | 0.00 | 0.00 | 77 | 1016.5 |
| 20260831072338 | 76 | 158 | 2.6 | 9.6 | 0.00 | 0.00 | 0.00 | 77 | 1016.5 |
| 20260831072236 | 76 | 162 | 3.5 | 9.6 | 0.00 | 0.00 | 0.00 | 77 | 1016.5 |
| 20260831072135 | 76 | 171 | 4.3 | 9.6 | 0.00 | 0.00 | 0.00 | 77 | 1016.5 |
| 20260831072040 | 76 | 145 | 4.3 | 9.6 | 0.00 | 0.00 | 0.00 | 77 | 1016.5 |
| 20260831071937 | 76 | 148 | 2.6 | 9.6 | 0.00 | 0.00 | 0.00 | 77 | 1016.5 |
| 20260831071834 | 76 | 145 | 3.5 | 9.6 | 0.00 | 0.00 | 0.00 | 77 | 1016.5 |
| 20260831071743 | 76 | 154 | 6.1 | 9.6 | 0.00 | 0.00 | 0.00 | 77 | 1016.5 |
| 20260831071652 | 76 | 144 | 3.5 | 9.6 | 0.00 | 0.00 | 0.00 | 77 | 1016.5 |
| 20260831071529 | 76 | 172 | 2.6 | 6.1 | 0.00 | 0.00 | 0.00 | 77 | 1016.5 |
| 20260831071427 | 76 | 175 | 1.7 | 6.1 | 0.00 | 0.00 | 0.00 | 77 | 1016.5 |
| 20260831071329 | 76 | 161 | 1.7 | 6.1 | 0.00 | 0.00 | 0.00 | 77 | 1016.5 |
| 20260831071232 | 76 | 169 | 2.6 | 6.1 | 0.00 | 0.00 | 0.00 | 77 | 1016.4 |
| 20260831071130 | 76 | 161 | 1.7 | 6.1 | 0.00 | 0.00 | 0.00 | 77 | 1016.4 |
| 20260831071029 | 76 | 155 | 2.6 | 6.1 | 0.00 | 0.00 | 0.00 | 77 | 1016.4 |
| 20260831070929 | 76 | 151 | 3.5 | 6.1 | 0.00 | 0.00 | 0.00 | 77 | 1016.4 |
| 20260831070829 | 76 | 169 | 2.6 | 6.1 | 0.00 | 0.00 | 0.00 | 77 | 1016.4 |
| 20260831070728 | 76 | 162 | 2.6 | 6.1 | 0.00 | 0.00 | 0.00 | 77 | 1016.4 |
| 20260831070631 | 76 | 154 | 3.5 | 6.1 | 0.00 | 0.00 | 0.00 | 77 | 1016.4 |
| 20260831070530 | 76 | 154 | 2.6 | 6.1 | 0.00 | 0.00 | 0.00 | 77 | 1016.4 |
| 20260831070429 | 76 | 152 | 3.5 | 7.0 | 0.00 | 0.00 | 0.00 | 77 | 1016.4 |
| 20260831070330 | 76 | 152 | 4.3 | 7.0 | 0.00 | 0.00 | 0.00 | 77 | 1016.4 |
| 20260831070249 | 76 | 157 | 4.3 | 7.0 | 0.00 | 0.00 | 0.00 | 76 | 1016.4 |
| 20260831070157 | 76 | 164 | 3.5 | 7.0 | 0.00 | 0.00 | 0.00 | 77 | 1016.4 |
| 20260831070033 | 76 | 165 | 3.5 | 7.0 | 0.00 | 0.00 | 0.00 | 77 | 1016.4 |
| 20260831065937 | 76 | 162 | 3.5 | 7.0 | 0.00 | 0.00 | 0.00 | 77 | 1016.4 |
| 20260831065835 | 76 | 169 | 2.6 | 7.0 | 0.00 | 0.00 | 0.00 | 77 | 1016.4 |
| 20260831065733 | 76 | 158 | 2.6 | 7.0 | 0.00 | 0.00 | 0.00 | 77 | 1016.5 |
| 20260831065633 | 76 | 143 | 4.3 | 7.0 | 0.00 | 0.00 | 0.00 | 77 | 1016.5 |
| 20260831065532 | 76 | 151 | 3.5 | 7.0 | 0.00 | 0.00 | 0.00 | 77 | 1016.5 |
| 20260831065432 | 76 | 154 | 4.3 | 7.0 | 0.00 | 0.00 | 0.00 | 77 | 1016.5 |
| 20260831065352 | 76 | 148 | 3.5 | 7.0 | 0.00 | 0.00 | 0.00 | 77 | 1016.5 |
| 20260831065232 | 76 | 191 | 3.5 | 7.0 | 0.00 | 0.00 | 0.00 | 77 | 1016.5 |
| 20260831065132 | 76 | 186 | 0.9 | 7.0 | 0.00 | 0.00 | 0.00 | 77 | 1016.5 |
| 20260831065031 | 76 | 188 | 1.7 | 7.0 | 0.00 | 0.00 | 0.00 | 77 | 1016.5 |
| 20260831064930 | 76 | 186 | 1.7 | 7.0 | 0.00 | 0.00 | 0.00 | 77 | 1016.5 |
| 20260831064829 | 76 | 186 | 2.6 | 7.0 | 0.00 | 0.00 | 0.00 | 77 | 1016.5 |
| 20260831064748 | 76 | 192 | 4.3 | 7.0 | 0.00 | 0.00 | 0.00 | 77 | 1016.5 |
| 20260831064657 | 76 | 174 | 3.5 | 5.2 | 0.00 | 0.00 | 0.00 | 77 | 1016.5 |
| 20260831064536 | 76 | 181 | 2.6 | 5.2 | 0.00 | 0.00 | 0.00 | 77 | 1016.5 |
| 20260831064459 | 76 | 171 | 1.7 | 5.2 | 0.00 | 0.00 | 0.00 | 77 | 1016.5 |
| 20260831064337 | 76 | 165 | 3.5 | 5.2 | 0.00 | 0.00 | 0.00 | 77 | 1016.5 |
| 20260831064237 | 76 | 175 | 1.7 | 5.2 | 0.00 | 0.00 | 0.00 | 77 | 1016.5 |
| 20260831064136 | 76 | 178 | 2.6 | 5.2 | 0.00 | 0.00 | 0.00 | 77 | 1016.5 |
| 20260831064035 | 76 | 178 | 1.7 | 5.2 | 0.00 | 0.00 | 0.00 | 77 | 1016.5 |
| 20260831063954 | 76 | 178 | 0.9 | 5.2 | 0.00 | 0.00 | 0.00 | 77 | 1016.5 |
| 20260831063831 | 76 | 175 | 1.7 | 6.1 | 0.00 | 0.00 | 0.00 | 77 | 1016.5 |
| 20260831063733 | 76 | 176 | 2.6 | 7.0 | 0.00 | 0.00 | 0.00 | 77 | 1016.5 |
| 20260831063633 | 76 | 172 | 0.9 | 7.0 | 0.00 | 0.00 | 0.00 | 77 | 1016.5 |
| 20260831063532 | 76 | 172 | 1.7 | 7.0 | 0.00 | 0.00 | 0.00 | 77 | 1016.5 |
| 20260831063452 | 76 | 169 | 2.6 | 7.0 | 0.00 | 0.00 | 0.00 | 76 | 1016.5 |
| 20260831063330 | 76 | 176 | 2.6 | 7.0 | 0.00 | 0.00 | 0.00 | 76 | 1016.5 |
| 20260831063240 | 76 | 171 | 2.6 | 7.0 | 0.00 | 0.00 | 0.00 | 76 | 1016.5 |
| 20260831063151 | 76 | 175 | 1.7 | 7.0 | 0.00 | 0.00 | 0.00 | 76 | 1016.5 |
| 20260831063026 | 76 | 165 | 3.5 | 7.0 | 0.00 | 0.00 | 0.00 | 76 | 1016.5 |
| 20260831062928 | 76 | 188 | 4.3 | 7.0 | 0.00 | 0.00 | 0.00 | 76 | 1016.5 |
| 20260831062828 | 76 | 167 | 4.3 | 6.1 | 0.00 | 0.00 | 0.00 | 76 | 1016.5 |
| 20260831062725 | 76 | 172 | 2.6 | 6.1 | 0.00 | 0.00 | 0.00 | 76 | 1016.6 |
| 20260831062643 | 76 | 169 | 2.6 | 6.1 | 0.00 | 0.00 | 0.00 | 76 | 1016.6 |
| 20260831062542 | 76 | 161 | 3.5 | 6.1 | 0.00 | 0.00 | 0.00 | 76 | 1016.6 |
| 20260831062501 | 76 | 155 | 4.3 | 6.1 | 0.00 | 0.00 | 0.00 | 76 | 1016.6 |
| 20260831062359 | 76 | 144 | 3.5 | 7.0 | 0.00 | 0.00 | 0.00 | 76 | 1016.6 |
| 20260831062237 | 76 | 182 | 3.5 | 7.0 | 0.00 | 0.00 | 0.00 | 76 | 1016.6 |
| 20260831062136 | 76 | 165 | 3.5 | 7.0 | 0.00 | 0.00 | 0.00 | 76 | 1016.6 |
| 20260831062037 | 76 | 158 | 2.6 | 7.0 | 0.00 | 0.00 | 0.00 | 76 | 1016.6 |
| 20260831061936 | 76 | 162 | 2.6 | 7.0 | 0.00 | 0.00 | 0.00 | 76 | 1016.6 |
| 20260831061834 | 76 | 174 | 2.6 | 7.0 | 0.00 | 0.00 | 0.00 | 76 | 1016.6 |
| 20260831061754 | 76 | 171 | 2.6 | 7.0 | 0.00 | 0.00 | 0.00 | 76 | 1016.6 |
| 20260831061702 | 76 | 171 | 3.5 | 7.0 | 0.00 | 0.00 | 0.00 | 76 | 1016.6 |
| 20260831061559 | 76 | 174 | 3.5 | 7.0 | 0.00 | 0.00 | 0.00 | 76 | 1016.6 |
| 20260831061437 | 76 | 161 | 4.3 | 7.0 | 0.00 | 0.00 | 0.00 | 76 | 1016.6 |
| 20260831061335 | 76 | 150 | 4.3 | 7.0 | 0.00 | 0.00 | 0.00 | 76 | 1016.6 |
| 20260831061233 | 76 | 151 | 3.5 | 7.0 | 0.00 | 0.00 | 0.00 | 76 | 1016.8 |
| 20260831061138 | 76 | 160 | 4.3 | 7.0 | 0.00 | 0.00 | 0.00 | 76 | 1016.8 |
| 20260831061038 | 76 | 164 | 3.5 | 7.0 | 0.00 | 0.00 | 0.00 | 76 | 1016.8 |
| 20260831060937 | 76 | 165 | 3.5 | 7.0 | 0.00 | 0.00 | 0.00 | 76 | 1016.8 |
| 20260831060835 | 76 | 155 | 3.5 | 7.0 | 0.00 | 0.00 | 0.00 | 76 | 1016.8 |
| 20260831060753 | 76 | 150 | 4.3 | 7.0 | 0.00 | 0.00 | 0.00 | 76 | 1016.8 |
| 20260831060631 | 76 | 138 | 2.6 | 7.0 | 0.00 | 0.00 | 0.00 | 76 | 1016.8 |
| 20260831060530 | 76 | 128 | 3.5 | 7.0 | 0.00 | 0.00 | 0.00 | 76 | 1016.8 |
| 20260831060433 | 76 | 144 | 4.3 | 7.0 | 0.00 | 0.00 | 0.00 | 76 | 1016.8 |
| 20260831060330 | 76 | 161 | 5.2 | 6.1 | 0.00 | 0.00 | 0.00 | 76 | 1016.8 |
| 20260831060240 | 76 | 151 | 4.3 | 6.1 | 0.00 | 0.00 | 0.00 | 76 | 1016.8 |
| 20260831060151 | 76 | 154 | 5.2 | 6.1 | 0.00 | 0.00 | 0.00 | 76 | 1016.8 |
| 20260831060047 | 76 | 150 | 5.2 | 6.1 | 0.00 | 0.00 | 0.00 | 76 | 1016.8 |
| 20260831055944 | 76 | 152 | 4.3 | 6.1 | 0.00 | 0.00 | 0.00 | 76 | 1016.8 |
| 20260831055902 | 76 | 154 | 3.5 | 6.1 | 0.00 | 0.00 | 0.00 | 76 | 1016.8 |
| 20260831055739 | 76 | 162 | 2.6 | 6.1 | 0.00 | 0.00 | 0.00 | 76 | 1016.7 |
| 20260831055658 | 76 | 158 | 2.6 | 6.1 | 0.00 | 0.00 | 0.00 | 76 | 1016.7 |
| 20260831055540 | 76 | 160 | 2.6 | 6.1 | 0.00 | 0.00 | 0.00 | 76 | 1016.7 |
| 20260831055439 | 76 | 162 | 1.7 | 6.1 | 0.00 | 0.00 | 0.00 | 76 | 1016.7 |
| 20260831055337 | 76 | 160 | 2.6 | 6.1 | 0.00 | 0.00 | 0.00 | 75 | 1016.7 |
| 20260831055235 | 76 | 160 | 5.2 | 6.1 | 0.00 | 0.00 | 0.00 | 75 | 1016.7 |
| 20260831055138 | 76 | 162 | 3.5 | 6.1 | 0.00 | 0.00 | 0.00 | 75 | 1016.7 |
| 20260831055036 | 76 | 165 | 3.5 | 6.1 | 0.00 | 0.00 | 0.00 | 75 | 1016.7 |
| 20260831054935 | 76 | 165 | 2.6 | 6.1 | 0.00 | 0.00 | 0.00 | 75 | 1016.7 |
| 20260831054838 | 76 | 161 | 2.6 | 6.1 | 0.00 | 0.00 | 0.00 | 75 | 1016.7 |
| 20260831054757 | 76 | 157 | 3.5 | 6.1 | 0.00 | 0.00 | 0.00 | 75 | 1016.7 |
| 20260831054707 | 76 | 152 | 3.5 | 6.1 | 0.00 | 0.00 | 0.00 | 75 | 1016.7 |
| 20260831054524 | 76 | 154 | 4.3 | 6.1 | 0.00 | 0.00 | 0.00 | 75 | 1016.7 |
| 20260831054444 | 76 | 150 | 4.3 | 6.1 | 0.00 | 0.00 | 0.00 | 75 | 1016.7 |
| 20260831054403 | 76 | 157 | 3.5 | 6.1 | 0.00 | 0.00 | 0.00 | 75 | 1016.7 |
| 20260831054239 | 76 | 171 | 3.5 | 6.1 | 0.00 | 0.00 | 0.00 | 75 | 1016.5 |
| 20260831054138 | 76 | 167 | 2.6 | 6.1 | 0.00 | 0.00 | 0.00 | 75 | 1016.5 |
| 20260831054036 | 76 | 151 | 2.6 | 6.1 | 0.00 | 0.00 | 0.00 | 75 | 1016.5 |
| 20260831053939 | 76 | 155 | 3.5 | 6.1 | 0.00 | 0.00 | 0.00 | 75 | 1016.5 |
| 20260831053837 | 76 | 161 | 3.5 | 6.1 | 0.00 | 0.00 | 0.00 | 75 | 1016.5 |
| 20260831053737 | 76 | 167 | 4.3 | 6.1 | 0.00 | 0.00 | 0.00 | 75 | 1016.5 |
| 20260831053635 | 76 | 148 | 4.3 | 6.1 | 0.00 | 0.00 | 0.00 | 75 | 1016.5 |
| 20260831053534 | 76 | 151 | 4.3 | 6.1 | 0.00 | 0.00 | 0.00 | 75 | 1016.5 |
| 20260831053432 | 76 | 151 | 2.6 | 6.1 | 0.00 | 0.00 | 0.00 | 75 | 1016.5 |
| 20260831053350 | 76 | 161 | 3.5 | 6.1 | 0.00 | 0.00 | 0.00 | 75 | 1016.5 |
| 20260831053252 | 76 | 147 | 4.3 | 6.1 | 0.00 | 0.00 | 0.00 | 75 | 1016.5 |
| 20260831053222 | 76 | 154 | 3.5 | 6.1 | 0.00 | 0.00 | 0.00 | 75 | 1016.5 |
| 20260831053058 | 76 | 161 | 4.3 | 7.0 | 0.00 | 0.00 | 0.00 | 75 | 1016.5 |
| 20260831052936 | 76 | 145 | 5.2 | 7.0 | 0.00 | 0.00 | 0.00 | 75 | 1016.5 |
| 20260831052855 | 76 | 148 | 3.5 | 7.0 | 0.00 | 0.00 | 0.00 | 75 | 1016.5 |
| 20260831052733 | 76 | 148 | 3.5 | 7.0 | 0.00 | 0.00 | 0.00 | 75 | 1016.5 |
| 20260831052632 | 76 | 137 | 3.5 | 7.0 | 0.00 | 0.00 | 0.00 | 75 | 1016.5 |
| 20260831052530 | 76 | 145 | 4.3 | 7.0 | 0.00 | 0.00 | 0.00 | 75 | 1016.5 |
| 20260831052433 | 76 | 144 | 4.3 | 7.0 | 0.00 | 0.00 | 0.00 | 75 | 1016.5 |
| 20260831052350 | 76 | 144 | 3.5 | 7.0 | 0.00 | 0.00 | 0.00 | 75 | 1016.5 |
| 20260831052248 | 77 | 136 | 4.3 | 7.0 | 0.00 | 0.00 | 0.00 | 75 | 1016.5 |
| 20260831052127 | 77 | 128 | 6.1 | 7.0 | 0.00 | 0.00 | 0.00 | 75 | 1016.5 |
| 20260831052026 | 77 | 147 | 4.3 | 7.0 | 0.00 | 0.00 | 0.00 | 75 | 1016.5 |
| 20260831051926 | 77 | 137 | 4.3 | 7.0 | 0.00 | 0.00 | 0.00 | 75 | 1016.5 |
| 20260831051824 | 77 | 141 | 5.2 | 7.0 | 0.00 | 0.00 | 0.00 | 75 | 1016.5 |
| 20260831051733 | 77 | 137 | 4.3 | 7.0 | 0.00 | 0.00 | 0.00 | 75 | 1016.5 |
| 20260831051645 | 77 | 136 | 5.2 | 7.0 | 0.00 | 0.00 | 0.00 | 75 | 1016.5 |
| 20260831051543 | 77 | 145 | 3.5 | 7.0 | 0.00 | 0.00 | 0.00 | 74 | 1016.5 |
| 20260831051441 | 77 | 143 | 3.5 | 7.0 | 0.00 | 0.00 | 0.00 | 74 | 1016.5 |
| 20260831051341 | 77 | 138 | 4.3 | 7.0 | 0.00 | 0.00 | 0.00 | 74 | 1016.5 |
| 20260831051301 | 77 | 138 | 4.3 | 7.0 | 0.00 | 0.00 | 0.00 | 74 | 1016.5 |
| 20260831051138 | 77 | 144 | 4.3 | 7.0 | 0.00 | 0.00 | 0.00 | 74 | 1016.5 |
| 20260831051037 | 77 | 138 | 4.3 | 7.0 | 0.00 | 0.00 | 0.00 | 74 | 1016.5 |
| 20260831050936 | 77 | 143 | 5.2 | 7.0 | 0.00 | 0.00 | 0.00 | 74 | 1016.5 |
| 20260831050858 | 77 | 151 | 5.2 | 7.0 | 0.00 | 0.00 | 0.00 | 74 | 1016.5 |
| 20260831050757 | 77 | 143 | 3.5 | 6.1 | 0.00 | 0.00 | 0.00 | 74 | 1016.5 |
| 20260831050636 | 77 | 157 | 2.6 | 6.1 | 0.00 | 0.00 | 0.00 | 74 | 1016.5 |
| 20260831050553 | 77 | 145 | 4.3 | 6.1 | 0.00 | 0.00 | 0.00 | 74 | 1016.5 |
| 20260831050431 | 77 | 144 | 2.6 | 7.0 | 0.00 | 0.00 | 0.00 | 74 | 1016.5 |
| 20260831050331 | 77 | 138 | 3.5 | 7.0 | 0.00 | 0.00 | 0.00 | 74 | 1016.5 |
| 20260831050229 | 77 | 140 | 3.5 | 7.0 | 0.00 | 0.00 | 0.00 | 74 | 1016.5 |
| 20260831050159 | 77 | 137 | 3.5 | 7.0 | 0.00 | 0.00 | 0.00 | 74 | 1016.5 |
| 20260831050040 | 77 | 124 | 3.5 | 7.0 | 0.00 | 0.00 | 0.00 | 74 | 1016.5 |
| 20260831045938 | 77 | 121 | 2.6 | 7.0 | 0.00 | 0.00 | 0.00 | 74 | 1016.5 |
| 20260831045839 | 77 | 113 | 2.6 | 7.0 | 0.00 | 0.00 | 0.00 | 74 | 1016.5 |
| 20260831045738 | 77 | 119 | 5.2 | 7.0 | 0.00 | 0.00 | 0.00 | 74 | 1016.6 |
| 20260831045638 | 77 | 127 | 4.3 | 7.0 | 0.00 | 0.00 | 0.00 | 74 | 1016.6 |
| 20260831045540 | 77 | 124 | 4.3 | 7.0 | 0.00 | 0.00 | 0.00 | 74 | 1016.6 |
| 20260831045440 | 77 | 141 | 4.3 | 7.0 | 0.00 | 0.00 | 0.00 | 74 | 1016.6 |
| 20260831045343 | 77 | 133 | 4.3 | 7.0 | 0.00 | 0.00 | 0.00 | 74 | 1016.6 |
| 20260831045241 | 77 | 121 | 4.3 | 7.0 | 0.00 | 0.00 | 0.00 | 73 | 1016.6 |
| 20260831045139 | 77 | 121 | 5.2 | 7.0 | 0.00 | 0.00 | 0.00 | 73 | 1016.6 |
| 20260831045037 | 77 | 133 | 4.3 | 6.1 | 0.00 | 0.00 | 0.00 | 74 | 1016.6 |
| 20260831044956 | 77 | 124 | 2.6 | 6.1 | 0.00 | 0.00 | 0.00 | 73 | 1016.6 |
| 20260831044833 | 77 | 117 | 3.5 | 6.1 | 0.00 | 0.00 | 0.00 | 73 | 1016.6 |
| 20260831044732 | 77 | 114 | 4.3 | 6.1 | 0.00 | 0.00 | 0.00 | 73 | 1016.6 |
| 20260831044700 | 77 | 141 | 3.5 | 6.1 | 0.00 | 0.00 | 0.00 | 74 | 1016.6 |
| 20260831044542 | 77 | 137 | 2.6 | 6.1 | 0.00 | 0.00 | 0.00 | 73 | 1016.6 |
| 20260831044440 | 77 | 138 | 4.3 | 6.1 | 0.00 | 0.00 | 0.00 | 73 | 1016.6 |
| 20260831044400 | 77 | 137 | 4.3 | 6.1 | 0.00 | 0.00 | 0.00 | 73 | 1016.6 |
| 20260831044239 | 77 | 137 | 4.3 | 6.1 | 0.00 | 0.00 | 0.00 | 73 | 1016.5 |
| 20260831044137 | 77 | 134 | 3.5 | 6.1 | 0.00 | 0.00 | 0.00 | 73 | 1016.5 |
| 20260831044037 | 77 | 133 | 4.3 | 6.1 | 0.00 | 0.00 | 0.00 | 73 | 1016.5 |
| 20260831043935 | 77 | 134 | 3.5 | 6.1 | 0.00 | 0.00 | 0.00 | 73 | 1016.5 |
| 20260831043838 | 77 | 137 | 3.5 | 6.1 | 0.00 | 0.00 | 0.00 | 73 | 1016.5 |
| 20260831043735 | 77 | 141 | 2.6 | 6.1 | 0.00 | 0.00 | 0.00 | 73 | 1016.5 |
| 20260831043633 | 77 | 145 | 2.6 | 6.1 | 0.00 | 0.00 | 0.00 | 73 | 1016.5 |
| 20260831043553 | 77 | 137 | 4.3 | 6.1 | 0.00 | 0.00 | 0.00 | 73 | 1016.5 |
| 20260831043452 | 77 | 143 | 2.6 | 6.1 | 0.00 | 0.00 | 0.00 | 73 | 1016.5 |
| 20260831043330 | 77 | 140 | 2.6 | 6.1 | 0.00 | 0.00 | 0.00 | 73 | 1016.5 |
| 20260831043229 | 77 | 144 | 5.2 | 6.1 | 0.00 | 0.00 | 0.00 | 73 | 1016.5 |
| 20260831043201 | 77 | 143 | 4.3 | 6.1 | 0.00 | 0.00 | 0.00 | 73 | 1016.5 |
| 20260831043042 | 77 | 141 | 3.5 | 6.1 | 0.00 | 0.00 | 0.00 | 73 | 1016.5 |
| 20260831043000 | 77 | 147 | 2.6 | 6.1 | 0.00 | 0.00 | 0.00 | 73 | 1016.5 |
| 20260831042837 | 77 | 148 | 4.3 | 6.1 | 0.00 | 0.00 | 0.00 | 73 | 1016.5 |
| 20260831042738 | 77 | 140 | 3.5 | 6.1 | 0.00 | 0.00 | 0.00 | 73 | 1016.6 |
| 20260831042638 | 77 | 141 | 5.2 | 6.1 | 0.00 | 0.00 | 0.00 | 74 | 1016.6 |
| 20260831042536 | 77 | 136 | 3.5 | 6.1 | 0.00 | 0.00 | 0.00 | 73 | 1016.6 |
| 20260831042434 | 77 | 133 | 3.5 | 6.1 | 0.00 | 0.00 | 0.00 | 73 | 1016.6 |
| 20260831042332 | 77 | 144 | 3.5 | 6.1 | 0.00 | 0.00 | 0.00 | 74 | 1016.6 |
| 20260831042256 | 77 | 143 | 2.6 | 6.1 | 0.00 | 0.00 | 0.00 | 74 | 1016.6 |
| 20260831042133 | 77 | 145 | 3.5 | 6.1 | 0.00 | 0.00 | 0.00 | 74 | 1016.6 |
| 20260831042032 | 77 | 140 | 3.5 | 6.1 | 0.00 | 0.00 | 0.00 | 74 | 1016.6 |
| 20260831041951 | 77 | 141 | 3.5 | 6.1 | 0.00 | 0.00 | 0.00 | 74 | 1016.6 |
| 20260831041828 | 77 | 140 | 5.2 | 6.1 | 0.00 | 0.00 | 0.00 | 74 | 1016.6 |
| 20260831041726 | 77 | 141 | 3.5 | 6.1 | 0.00 | 0.00 | 0.00 | 74 | 1016.6 |
| 20260831041656 | 77 | 147 | 3.5 | 6.1 | 0.00 | 0.00 | 0.00 | 74 | 1016.6 |
| 20260831041534 | 77 | 145 | 3.5 | 6.1 | 0.00 | 0.00 | 0.00 | 74 | 1016.6 |
| 20260831041453 | 77 | 151 | 3.5 | 6.1 | 0.00 | 0.00 | 0.00 | 74 | 1016.6 |
| 20260831041355 | 77 | 134 | 4.3 | 6.1 | 0.00 | 0.00 | 0.00 | 74 | 1016.6 |
| 20260831041233 | 77 | 134 | 3.5 | 6.1 | 0.00 | 0.00 | 0.00 | 74 | 1016.8 |
| 20260831041132 | 77 | 137 | 2.6 | 6.1 | 0.00 | 0.00 | 0.00 | 74 | 1016.8 |
| 20260831041032 | 77 | 134 | 2.6 | 6.1 | 0.00 | 0.00 | 0.00 | 74 | 1016.8 |
| 20260831040954 | 77 | 133 | 2.6 | 6.1 | 0.00 | 0.00 | 0.00 | 74 | 1016.8 |
| 20260831040831 | 77 | 136 | 3.5 | 6.1 | 0.00 | 0.00 | 0.00 | 74 | 1016.8 |
| 20260831040730 | 77 | 133 | 5.2 | 6.1 | 0.00 | 0.00 | 0.00 | 74 | 1016.8 |
| 20260831040633 | 77 | 134 | 4.3 | 6.1 | 0.00 | 0.00 | 0.00 | 74 | 1016.8 |
| 20260831040533 | 77 | 137 | 3.5 | 6.1 | 0.00 | 0.00 | 0.00 | 73 | 1016.8 |
| 20260831040432 | 77 | 127 | 2.6 | 6.1 | 0.00 | 0.00 | 0.00 | 73 | 1016.8 |
| 20260831040331 | 77 | 121 | 3.5 | 6.1 | 0.00 | 0.00 | 0.00 | 73 | 1016.8 |
| 20260831040229 | 77 | 119 | 3.5 | 6.1 | 0.00 | 0.00 | 0.00 | 73 | 1016.8 |
| 20260831040200 | 77 | 120 | 4.3 | 6.1 | 0.00 | 0.00 | 0.00 | 73 | 1016.8 |
| 20260831040038 | 77 | 144 | 3.5 | 6.1 | 0.00 | 0.00 | 0.00 | 73 | 1016.8 |
| 20260831035941 | 77 | 144 | 3.5 | 6.1 | 0.00 | 0.00 | 0.00 | 73 | 1016.8 |
| 20260831035859 | 77 | 145 | 2.6 | 6.1 | 0.00 | 0.00 | 0.00 | 73 | 1016.8 |
| 20260831035737 | 77 | 148 | 4.3 | 6.1 | 0.00 | 0.00 | 0.00 | 73 | 1016.8 |
| 20260831035636 | 77 | 137 | 2.6 | 5.2 | 0.00 | 0.00 | 0.00 | 73 | 1016.8 |
| 20260831035535 | 77 | 138 | 3.5 | 5.2 | 0.00 | 0.00 | 0.00 | 73 | 1016.8 |
| 20260831035433 | 77 | 137 | 2.6 | 5.2 | 0.00 | 0.00 | 0.00 | 73 | 1016.8 |
| 20260831035332 | 77 | 140 | 2.6 | 5.2 | 0.00 | 0.00 | 0.00 | 73 | 1016.8 |
| 20260831035234 | 77 | 140 | 3.5 | 5.2 | 0.00 | 0.00 | 0.00 | 72 | 1016.8 |
| 20260831035133 | 77 | 141 | 1.7 | 5.2 | 0.00 | 0.00 | 0.00 | 72 | 1016.8 |
| 20260831035034 | 77 | 143 | 0.9 | 5.2 | 0.00 | 0.00 | 0.00 | 72 | 1016.8 |
| 20260831034932 | 77 | 141 | 2.6 | 5.2 | 0.00 | 0.00 | 0.00 | 72 | 1016.8 |
| 20260831034852 | 77 | 141 | 2.6 | 6.1 | 0.00 | 0.00 | 0.00 | 73 | 1016.8 |
| 20260831034742 | 77 | 143 | 4.3 | 6.1 | 0.00 | 0.00 | 0.00 | 73 | 1016.8 |
| 20260831034649 | 77 | 143 | 4.3 | 6.1 | 0.00 | 0.00 | 0.00 | 73 | 1016.8 |
| 20260831034527 | 77 | 137 | 4.3 | 6.1 | 0.00 | 0.00 | 0.00 | 73 | 1016.8 |
| 20260831034429 | 77 | 137 | 2.6 | 6.1 | 0.00 | 0.00 | 0.00 | 72 | 1016.8 |
| 20260831034329 | 77 | 137 | 4.3 | 6.1 | 0.00 | 0.00 | 0.00 | 72 | 1016.8 |
| 20260831034227 | 77 | 137 | 3.5 | 6.1 | 0.00 | 0.00 | 0.00 | 72 | 1017.1 |
| 20260831034125 | 77 | 131 | 3.5 | 6.1 | 0.00 | 0.00 | 0.00 | 72 | 1017.1 |
| 20260831034024 | 77 | 133 | 4.3 | 6.1 | 0.00 | 0.00 | 0.00 | 73 | 1017.1 |
| 20260831033924 | 77 | 131 | 3.5 | 6.1 | 0.00 | 0.00 | 0.00 | 72 | 1017.1 |
| 20260831033827 | 77 | 127 | 2.6 | 6.1 | 0.00 | 0.00 | 0.00 | 72 | 1017.1 |
| 20260831033725 | 77 | 130 | 4.3 | 6.1 | 0.00 | 0.00 | 0.00 | 72 | 1017.1 |
| 20260831033624 | 77 | 136 | 3.5 | 5.2 | 0.00 | 0.00 | 0.00 | 72 | 1017.1 |
| 20260831033543 | 77 | 137 | 2.6 | 5.2 | 0.00 | 0.00 | 0.00 | 72 | 1017.1 |
| 20260831033502 | 77 | 136 | 2.6 | 5.2 | 0.00 | 0.00 | 0.00 | 72 | 1017.1 |
| 20260831033400 | 77 | 137 | 3.5 | 5.2 | 0.00 | 0.00 | 0.00 | 72 | 1017.1 |
| 20260831033256 | 77 | 138 | 3.5 | 5.2 | 0.00 | 0.00 | 0.00 | 72 | 1017.1 |
| 20260831033225 | 77 | 137 | 2.6 | 5.2 | 0.00 | 0.00 | 0.00 | 72 | 1017.1 |
| 20260831033041 | 77 | 138 | 2.6 | 5.2 | 0.00 | 0.00 | 0.00 | 72 | 1017.1 |
| 20260831032944 | 77 | 140 | 3.5 | 5.2 | 0.00 | 0.00 | 0.00 | 72 | 1017.1 |
| 20260831032843 | 77 | 144 | 3.5 | 5.2 | 0.00 | 0.00 | 0.00 | 72 | 1017.1 |
| 20260831032802 | 77 | 140 | 2.6 | 5.2 | 0.00 | 0.00 | 0.00 | 72 | 1017.2 |
| 20260831032638 | 77 | 140 | 3.5 | 5.2 | 0.00 | 0.00 | 0.00 | 72 | 1017.2 |
| 20260831032538 | 77 | 143 | 3.5 | 5.2 | 0.00 | 0.00 | 0.00 | 71 | 1017.2 |
| 20260831032437 | 77 | 143 | 4.3 | 5.2 | 0.00 | 0.00 | 0.00 | 71 | 1017.2 |
| 20260831032335 | 77 | 138 | 3.5 | 5.2 | 0.00 | 0.00 | 0.00 | 71 | 1017.2 |
| 20260831032238 | 77 | 137 | 3.5 | 5.2 | 0.00 | 0.00 | 0.00 | 71 | 1017.2 |
| 20260831032136 | 77 | 137 | 3.5 | 5.2 | 0.00 | 0.00 | 0.00 | 71 | 1017.2 |
| 20260831032036 | 77 | 138 | 1.7 | 5.2 | 0.00 | 0.00 | 0.00 | 71 | 1017.2 |
| 20260831031939 | 77 | 134 | 2.6 | 5.2 | 0.00 | 0.00 | 0.00 | 71 | 1017.2 |
| 20260831031837 | 77 | 133 | 3.5 | 5.2 | 0.00 | 0.00 | 0.00 | 71 | 1017.2 |
| 20260831031735 | 77 | 128 | 3.5 | 5.2 | 0.00 | 0.00 | 0.00 | 71 | 1017.2 |
| 20260831031703 | 77 | 130 | 2.6 | 5.2 | 0.00 | 0.00 | 0.00 | 71 | 1017.2 |
| 20260831031544 | 77 | 131 | 2.6 | 5.2 | 0.00 | 0.00 | 0.00 | 71 | 1017.2 |
| 20260831031442 | 77 | 131 | 2.6 | 5.2 | 0.00 | 0.00 | 0.00 | 71 | 1017.2 |
| 20260831031340 | 77 | 131 | 3.5 | 5.2 | 0.00 | 0.00 | 0.00 | 71 | 1017.2 |
| 20260831031239 | 77 | 133 | 3.5 | 5.2 | 0.00 | 0.00 | 0.00 | 71 | 1017.3 |
| 20260831031138 | 77 | 131 | 2.6 | 5.2 | 0.00 | 0.00 | 0.00 | 71 | 1017.3 |
| 20260831031037 | 77 | 130 | 3.5 | 5.2 | 0.00 | 0.00 | 0.00 | 72 | 1017.3 |
| 20260831030935 | 77 | 130 | 2.6 | 5.2 | 0.00 | 0.00 | 0.00 | 72 | 1017.3 |
| 20260831030838 | 77 | 130 | 2.6 | 5.2 | 0.00 | 0.00 | 0.00 | 72 | 1017.3 |
| 20260831030737 | 77 | 128 | 2.6 | 5.2 | 0.00 | 0.00 | 0.00 | 72 | 1017.3 |
| 20260831030636 | 77 | 130 | 1.7 | 5.2 | 0.00 | 0.00 | 0.00 | 72 | 1017.3 |
| 20260831030534 | 77 | 130 | 2.6 | 5.2 | 0.00 | 0.00 | 0.00 | 72 | 1017.3 |
| 20260831030432 | 77 | 131 | 3.5 | 5.2 | 0.00 | 0.00 | 0.00 | 72 | 1017.3 |
| 20260831030352 | 77 | 131 | 1.7 | 5.2 | 0.00 | 0.00 | 0.00 | 72 | 1017.3 |
| 20260831030312 | 77 | 130 | 2.6 | 5.2 | 0.00 | 0.00 | 0.00 | 72 | 1017.3 |
| 20260831030220 | 77 | 124 | 3.5 | 6.1 | 0.00 | 0.00 | 0.00 | 72 | 1017.3 |
| 20260831030039 | 78 | 119 | 2.6 | 6.1 | 0.00 | 0.00 | 0.00 | 72 | 1017.3 |
| 20260831025958 | 78 | 121 | 1.7 | 6.1 | 0.00 | 0.00 | 0.00 | 72 | 1017.3 |
| 20260831025834 | 78 | 119 | 1.7 | 6.1 | 0.00 | 0.00 | 0.00 | 72 | 1017.3 |
| 20260831025733 | 78 | 120 | 3.5 | 6.1 | 0.00 | 0.00 | 0.00 | 72 | 1017.3 |
| 20260831025632 | 78 | 119 | 3.5 | 6.1 | 0.00 | 0.00 | 0.00 | 72 | 1017.3 |
| 20260831025550 | 78 | 120 | 4.3 | 6.1 | 0.00 | 0.00 | 0.00 | 72 | 1017.3 |
| 20260831025428 | 78 | 116 | 2.6 | 6.1 | 0.00 | 0.00 | 0.00 | 73 | 1017.3 |
| 20260831025332 | 78 | 120 | 4.3 | 6.1 | 0.00 | 0.00 | 0.00 | 73 | 1017.3 |
| 20260831025253 | 78 | 121 | 4.3 | 6.1 | 0.00 | 0.00 | 0.00 | 72 | 1017.3 |
| 20260831025130 | 78 | 119 | 3.5 | 5.2 | 0.00 | 0.00 | 0.00 | 72 | 1017.3 |
| 20260831025029 | 78 | 123 | 3.5 | 5.2 | 0.00 | 0.00 | 0.00 | 72 | 1017.3 |
| 20260831024928 | 78 | 121 | 3.5 | 6.1 | 0.00 | 0.00 | 0.00 | 73 | 1017.3 |
| 20260831024827 | 78 | 123 | 2.6 | 6.1 | 0.00 | 0.00 | 0.00 | 73 | 1017.3 |
| 20260831024736 | 78 | 123 | 3.5 | 6.1 | 0.00 | 0.00 | 0.00 | 73 | 1017.3 |
| 20260831024646 | 78 | 124 | 4.3 | 6.1 | 0.00 | 0.00 | 0.00 | 73 | 1017.3 |
| 20260831024528 | 78 | 119 | 3.5 | 6.1 | 0.00 | 0.00 | 0.00 | 73 | 1017.3 |
| 20260831024427 | 78 | 123 | 3.5 | 6.1 | 0.00 | 0.00 | 0.00 | 73 | 1017.3 |
| 20260831024327 | 78 | 124 | 3.5 | 6.1 | 0.00 | 0.00 | 0.00 | 73 | 1017.3 |
| 20260831024226 | 78 | 120 | 3.5 | 6.1 | 0.00 | 0.00 | 0.00 | 73 | 1017.2 |
| 20260831024126 | 78 | 127 | 4.3 | 6.1 | 0.00 | 0.00 | 0.00 | 73 | 1017.2 |
| 20260831024025 | 78 | 136 | 3.5 | 5.2 | 0.00 | 0.00 | 0.00 | 73 | 1017.2 |
| 20260831023945 | 78 | 134 | 4.3 | 5.2 | 0.00 | 0.00 | 0.00 | 73 | 1017.2 |
| 20260831023827 | 78 | 134 | 3.5 | 5.2 | 0.00 | 0.00 | 0.00 | 73 | 1017.2 |
| 20260831023726 | 78 | 136 | 2.6 | 5.2 | 0.00 | 0.00 | 0.00 | 73 | 1017.2 |
| 20260831023624 | 78 | 134 | 3.5 | 5.2 | 0.00 | 0.00 | 0.00 | 73 | 1017.2 |
| 20260831023543 | 78 | 136 | 2.6 | 5.2 | 0.00 | 0.00 | 0.00 | 73 | 1017.2 |
| 20260831023442 | 78 | 136 | 2.6 | 5.2 | 0.00 | 0.00 | 0.00 | 73 | 1017.2 |
| 20260831023342 | 78 | 136 | 3.5 | 5.2 | 0.00 | 0.00 | 0.00 | 73 | 1017.2 |
| 20260831023250 | 78 | 136 | 2.6 | 5.2 | 0.00 | 0.00 | 0.00 | 73 | 1017.2 |
| 20260831023146 | 78 | 136 | 2.6 | 5.2 | 0.00 | 0.00 | 0.00 | 73 | 1017.2 |
| 20260831023044 | 78 | 137 | 3.5 | 5.2 | 0.00 | 0.00 | 0.00 | 73 | 1017.2 |
| 20260831022941 | 78 | 137 | 2.6 | 5.2 | 0.00 | 0.00 | 0.00 | 73 | 1017.2 |
| 20260831022839 | 78 | 138 | 2.6 | 5.2 | 0.00 | 0.00 | 0.00 | 73 | 1017.2 |
| 20260831022738 | 78 | 137 | 3.5 | 5.2 | 0.00 | 0.00 | 0.00 | 73 | 1017.1 |
| 20260831022636 | 78 | 138 | 4.3 | 5.2 | 0.00 | 0.00 | 0.00 | 73 | 1017.1 |
| 20260831022556 | 78 | 138 | 3.5 | 5.2 | 0.00 | 0.00 | 0.00 | 73 | 1017.1 |
| 20260831022454 | 78 | 138 | 2.6 | 5.2 | 0.00 | 0.00 | 0.00 | 73 | 1017.1 |
| 20260831022332 | 78 | 138 | 4.3 | 5.2 | 0.00 | 0.00 | 0.00 | 73 | 1017.1 |
| 20260831022235 | 78 | 141 | 2.6 | 5.2 | 0.00 | 0.00 | 0.00 | 73 | 1017.1 |
| 20260831022134 | 78 | 143 | 1.7 | 5.2 | 0.00 | 0.00 | 0.00 | 73 | 1017.1 |
| 20260831022032 | 78 | 143 | 1.7 | 5.2 | 0.00 | 0.00 | 0.00 | 73 | 1017.1 |
| 20260831021951 | 78 | 143 | 2.6 | 5.2 | 0.00 | 0.00 | 0.00 | 73 | 1017.1 |
| 20260831021830 | 78 | 144 | 2.6 | 5.2 | 0.00 | 0.00 | 0.00 | 73 | 1017.1 |
| 20260831021728 | 78 | 151 | 2.6 | 5.2 | 0.00 | 0.00 | 0.00 | 73 | 1017.1 |
| 20260831021659 | 78 | 151 | 3.5 | 5.2 | 0.00 | 0.00 | 0.00 | 73 | 1017.1 |
| 20260831021541 | 78 | 151 | 3.5 | 5.2 | 0.00 | 0.00 | 0.00 | 73 | 1017.1 |
| 20260831021502 | 78 | 155 | 2.6 | 5.2 | 0.00 | 0.00 | 0.00 | 73 | 1017.1 |
| 20260831021339 | 78 | 155 | 3.5 | 5.2 | 0.00 | 0.00 | 0.00 | 73 | 1017.1 |
| 20260831021238 | 78 | 154 | 3.5 | 5.2 | 0.00 | 0.00 | 0.00 | 73 | 1017.1 |
| 20260831021135 | 78 | 155 | 1.7 | 4.3 | 0.00 | 0.00 | 0.00 | 73 | 1017.1 |
| 20260831021034 | 78 | 157 | 2.6 | 4.3 | 0.00 | 0.00 | 0.00 | 72 | 1017.1 |
| 20260831020953 | 78 | 157 | 2.6 | 4.3 | 0.00 | 0.00 | 0.00 | 72 | 1017.1 |
| 20260831020855 | 78 | 157 | 2.6 | 4.3 | 0.00 | 0.00 | 0.00 | 73 | 1017.1 |
| 20260831020736 | 78 | 154 | 2.6 | 4.3 | 0.00 | 0.00 | 0.00 | 73 | 1017.1 |
| 20260831020658 | 78 | 155 | 1.7 | 5.2 | 0.00 | 0.00 | 0.00 | 73 | 1017.1 |
| 20260831020537 | 78 | 157 | 2.6 | 5.2 | 0.00 | 0.00 | 0.00 | 73 | 1017.1 |
| 20260831020436 | 78 | 157 | 2.6 | 5.2 | 0.00 | 0.00 | 0.00 | 73 | 1017.1 |
| 20260831020334 | 78 | 158 | 2.6 | 5.2 | 0.00 | 0.00 | 0.00 | 73 | 1017.1 |
| 20260831020232 | 78 | 157 | 2.6 | 5.2 | 0.00 | 0.00 | 0.00 | 73 | 1017.1 |
| 20260831020202 | 78 | 157 | 1.7 | 5.2 | 0.00 | 0.00 | 0.00 | 73 | 1017.1 |
| 20260831020039 | 78 | 157 | 0.9 | 5.2 | 0.00 | 0.00 | 0.00 | 73 | 1017.1 |
| 20260831015939 | 78 | 158 | 2.6 | 5.2 | 0.00 | 0.00 | 0.00 | 72 | 1017.1 |
| 20260831015842 | 78 | 158 | 3.5 | 5.2 | 0.00 | 0.00 | 0.00 | 73 | 1017.1 |
| 20260831015741 | 78 | 171 | 2.6 | 5.2 | 0.00 | 0.00 | 0.00 | 73 | 1016.9 |
| 20260831015641 | 78 | 171 | 1.7 | 5.2 | 0.00 | 0.00 | 0.00 | 73 | 1016.9 |
| 20260831015541 | 78 | 171 | 2.6 | 5.2 | 0.00 | 0.00 | 0.00 | 73 | 1016.9 |
| 20260831015440 | 78 | 171 | 2.6 | 5.2 | 0.00 | 0.00 | 0.00 | 73 | 1016.9 |
| 20260831015400 | 78 | 171 | 2.6 | 5.2 | 0.00 | 0.00 | 0.00 | 73 | 1016.9 |
| 20260831015257 | 78 | 171 | 3.5 | 5.2 | 0.00 | 0.00 | 0.00 | 73 | 1016.9 |
| 20260831015140 | 78 | 172 | 3.5 | 5.2 | 0.00 | 0.00 | 0.00 | 73 | 1016.9 |
| 20260831015039 | 78 | 174 | 3.5 | 4.3 | 0.00 | 0.00 | 0.00 | 73 | 1016.9 |
| 20260831014939 | 78 | 175 | 1.7 | 4.3 | 0.00 | 0.00 | 0.00 | 73 | 1016.9 |
| 20260831014836 | 78 | 175 | 1.7 | 4.3 | 0.00 | 0.00 | 0.00 | 73 | 1016.9 |
| 20260831014755 | 78 | 176 | 3.5 | 4.3 | 0.00 | 0.00 | 0.00 | 73 | 1016.9 |
| 20260831014704 | 78 | 179 | 3.5 | 4.3 | 0.00 | 0.00 | 0.00 | 73 | 1016.9 |
| 20260831014541 | 78 | 184 | 1.7 | 4.3 | 0.00 | 0.00 | 0.00 | 72 | 1016.9 |
| 20260831014441 | 78 | 182 | 1.7 | 4.3 | 0.00 | 0.00 | 0.00 | 72 | 1016.9 |
| 20260831014343 | 78 | 184 | 2.6 | 4.3 | 0.00 | 0.00 | 0.00 | 72 | 1016.9 |
| 20260831014242 | 78 | 184 | 2.6 | 4.3 | 0.00 | 0.00 | 0.00 | 72 | 1016.7 |
| 20260831014200 | 78 | 182 | 2.6 | 4.3 | 0.00 | 0.00 | 0.00 | 72 | 1016.7 |
| 20260831014038 | 78 | 186 | 1.7 | 3.5 | 0.00 | 0.00 | 0.00 | 72 | 1016.7 |
| 20260831013934 | 78 | 185 | 1.7 | 3.5 | 0.00 | 0.00 | 0.00 | 72 | 1016.7 |
| 20260831013832 | 78 | 186 | 1.7 | 3.5 | 0.00 | 0.00 | 0.00 | 72 | 1016.7 |
| 20260831013730 | 78 | 186 | 1.7 | 3.5 | 0.00 | 0.00 | 0.00 | 72 | 1016.7 |
| 20260831013629 | 78 | 186 | 1.7 | 3.5 | 0.00 | 0.00 | 0.00 | 72 | 1016.7 |
| 20260831013531 | 78 | 184 | 1.7 | 3.5 | 0.00 | 0.00 | 0.00 | 72 | 1016.7 |
| 20260831013429 | 78 | 185 | 1.7 | 3.5 | 0.00 | 0.00 | 0.00 | 72 | 1016.7 |
| 20260831013328 | 78 | 186 | 1.7 | 2.6 | 0.00 | 0.00 | 0.00 | 72 | 1016.7 |
| 20260831013237 | 78 | 186 | 2.6 | 2.6 | 0.00 | 0.00 | 0.00 | 72 | 1016.7 |
| 20260831013146 | 78 | 186 | 2.6 | 2.6 | 0.00 | 0.00 | 0.00 | 72 | 1016.7 |
| 20260831013043 | 78 | 186 | 2.6 | 2.6 | 0.00 | 0.00 | 0.00 | 72 | 1016.7 |
| 20260831012941 | 78 | 185 | 2.6 | 2.6 | 0.00 | 0.00 | 0.00 | 72 | 1016.7 |
| 20260831012839 | 78 | 186 | 1.7 | 3.5 | 0.00 | 0.00 | 0.00 | 72 | 1016.7 |
| 20260831012741 | 78 | 188 | 0.9 | 3.5 | 0.00 | 0.00 | 0.00 | 72 | 1016.4 |
| 20260831012700 | 78 | 186 | 0.9 | 3.5 | 0.00 | 0.00 | 0.00 | 72 | 1016.4 |
| 20260831012557 | 78 | 188 | 0.9 | 3.5 | 0.00 | 0.00 | 0.00 | 72 | 1016.4 |
| 20260831012434 | 78 | 181 | 1.7 | 3.5 | 0.00 | 0.00 | 0.00 | 72 | 1016.4 |
| 20260831012333 | 78 | 186 | 1.7 | 3.5 | 0.00 | 0.00 | 0.00 | 72 | 1016.4 |
| 20260831012232 | 78 | 186 | 1.7 | 4.3 | 0.00 | 0.00 | 0.00 | 72 | 1016.4 |
| 20260831012130 | 78 | 186 | 1.7 | 4.3 | 0.00 | 0.00 | 0.00 | 72 | 1016.4 |
| 20260831012028 | 78 | 186 | 2.6 | 4.3 | 0.00 | 0.00 | 0.00 | 72 | 1016.4 |
| 20260831011932 | 79 | 186 | 1.7 | 4.3 | 0.00 | 0.00 | 0.00 | 72 | 1016.4 |
| 20260831011855 | 79 | 186 | 1.7 | 4.3 | 0.00 | 0.00 | 0.00 | 72 | 1016.4 |
| 20260831011734 | 79 | 185 | 1.7 | 4.3 | 0.00 | 0.00 | 0.00 | 72 | 1016.4 |
| 20260831011702 | 79 | 186 | 1.7 | 4.3 | 0.00 | 0.00 | 0.00 | 72 | 1016.4 |
| 20260831011541 | 79 | 182 | 1.7 | 4.3 | 0.00 | 0.00 | 0.00 | 72 | 1016.4 |
| 20260831011439 | 79 | 186 | 2.6 | 4.3 | 0.00 | 0.00 | 0.00 | 72 | 1016.4 |
| 20260831011338 | 79 | 188 | 2.6 | 4.3 | 0.00 | 0.00 | 0.00 | 72 | 1016.4 |
| 20260831011240 | 79 | 186 | 1.7 | 4.3 | 0.00 | 0.00 | 0.00 | 72 | 1016.4 |
| 20260831011139 | 79 | 184 | 2.6 | 4.3 | 0.00 | 0.00 | 0.00 | 71 | 1016.4 |
| 20260831011038 | 79 | 192 | 2.6 | 3.5 | 0.00 | 0.00 | 0.00 | 71 | 1016.4 |
| 20260831010936 | 79 | 193 | 1.7 | 3.5 | 0.00 | 0.00 | 0.00 | 71 | 1016.4 |
| 20260831010835 | 79 | 193 | 2.6 | 3.5 | 0.00 | 0.00 | 0.00 | 71 | 1016.4 |
| 20260831010733 | 79 | 193 | 2.6 | 3.5 | 0.00 | 0.00 | 0.00 | 71 | 1016.4 |
| 20260831010633 | 79 | 195 | 2.6 | 3.5 | 0.00 | 0.00 | 0.00 | 71 | 1016.4 |
| 20260831010536 | 79 | 193 | 1.7 | 2.6 | 0.00 | 0.00 | 0.00 | 71 | 1016.4 |
| 20260831010434 | 79 | 193 | 1.7 | 2.6 | 0.00 | 0.00 | 0.00 | 71 | 1016.4 |
| 20260831010332 | 79 | 195 | 2.6 | 2.6 | 0.00 | 0.00 | 0.00 | 71 | 1016.4 |
| 20260831010243 | 79 | 195 | 1.7 | 2.6 | 0.00 | 0.00 | 0.00 | 71 | 1016.4 |
| 20260831010153 | 79 | 196 | 1.7 | 2.6 | 0.00 | 0.00 | 0.00 | 71 | 1016.4 |
| 20260831010031 | 79 | 195 | 1.7 | 2.6 | 0.00 | 0.00 | 0.00 | 71 | 1016.4 |
| 20260831005950 | 79 | 195 | 2.6 | 2.6 | 0.00 | 0.00 | 0.00 | 70 | 1016.4 |
| 20260831005827 | 79 | 195 | 1.7 | 2.6 | 0.00 | 0.00 | 0.00 | 70 | 1016.4 |
| 20260831005749 | 79 | 193 | 1.7 | 2.6 | 0.00 | 0.00 | 0.00 | 70 | 1016.2 |
| 20260831005628 | 79 | 195 | 1.7 | 2.6 | 0.00 | 0.00 | 0.00 | 70 | 1016.2 |
| 20260831005527 | 79 | 196 | 1.7 | 2.6 | 0.00 | 0.00 | 0.00 | 70 | 1016.2 |
| 20260831005428 | 79 | 195 | 1.7 | 2.6 | 0.00 | 0.00 | 0.00 | 70 | 1016.2 |
| 20260831005329 | 79 | 195 | 1.7 | 2.6 | 0.00 | 0.00 | 0.00 | 70 | 1016.2 |
| 20260831005231 | 79 | 193 | 1.7 | 2.6 | 0.00 | 0.00 | 0.00 | 70 | 1016.2 |
| 20260831005129 | 79 | 191 | 1.7 | 2.6 | 0.00 | 0.00 | 0.00 | 70 | 1016.2 |
| 20260831005031 | 79 | 195 | 1.7 | 2.6 | 0.00 | 0.00 | 0.00 | 70 | 1016.2 |
| 20260831004931 | 79 | 193 | 1.7 | 2.6 | 0.00 | 0.00 | 0.00 | 69 | 1016.2 |
| 20260831004829 | 79 | 195 | 1.7 | 2.6 | 0.00 | 0.00 | 0.00 | 69 | 1016.2 |
| 20260831004740 | 79 | 195 | 1.7 | 2.6 | 0.00 | 0.00 | 0.00 | 69 | 1016.2 |
| 20260831004649 | 79 | 195 | 1.7 | 2.6 | 0.00 | 0.00 | 0.00 | 69 | 1016.2 |
| 20260831004526 | 80 | 195 | 1.7 | 2.6 | 0.00 | 0.00 | 0.00 | 69 | 1016.2 |
| 20260831004424 | 80 | 195 | 1.7 | 2.6 | 0.00 | 0.00 | 0.00 | 69 | 1016.2 |
| 20260831004327 | 80 | 195 | 1.7 | 2.6 | 0.00 | 0.00 | 0.00 | 69 | 1016.2 |
| 20260831004228 | 80 | 195 | 1.7 | 2.6 | 0.00 | 0.00 | 0.00 | 69 | 1016.1 |
| 20260831004127 | 80 | 196 | 1.7 | 2.6 | 0.00 | 0.00 | 0.00 | 69 | 1016.1 |
| 20260831004025 | 80 | 195 | 1.7 | 2.6 | 0.00 | 0.00 | 0.00 | 69 | 1016.1 |
| 20260831003924 | 80 | 195 | 1.7 | 2.6 | 0.00 | 0.00 | 0.00 | 69 | 1016.1 |
| 20260831003821 | 80 | 192 | 0.9 | 2.6 | 0.00 | 0.00 | 0.00 | 69 | 1016.1 |
| 20260831003724 | 80 | 195 | 1.7 | 2.6 | 0.00 | 0.00 | 0.00 | 69 | 1016.1 |
| 20260831003631 | 80 | 193 | 0.9 | 2.6 | 0.00 | 0.00 | 0.00 | 69 | 1016.1 |
| 20260831003530 | 80 | 195 | 0.9 | 2.6 | 0.00 | 0.00 | 0.00 | 69 | 1016.1 |
| 20260831003429 | 80 | 195 | 1.7 | 2.6 | 0.00 | 0.00 | 0.00 | 69 | 1016.1 |
| 20260831003329 | 80 | 195 | 1.7 | 2.6 | 0.00 | 0.00 | 0.00 | 69 | 1016.1 |
| 20260831003247 | 80 | 195 | 2.6 | 2.6 | 0.00 | 0.00 | 0.00 | 68 | 1016.1 |
| 20260831003157 | 80 | 195 | 1.7 | 2.6 | 0.00 | 0.00 | 0.00 | 68 | 1016.1 |
| 20260831003034 | 80 | 195 | 0.9 | 2.6 | 0.00 | 0.00 | 0.00 | 69 | 1016.1 |
| 20260831002938 | 80 | 195 | 0.9 | 2.6 | 0.00 | 0.00 | 0.00 | 69 | 1016.1 |
| 20260831002836 | 80 | 195 | 0.9 | 2.6 | 0.00 | 0.00 | 0.00 | 69 | 1016.1 |
| 20260831002734 | 80 | 189 | 0.0 | 2.6 | 0.00 | 0.00 | 0.00 | 69 | 1016.2 |
| 20260831002632 | 80 | 193 | 0.0 | 1.7 | 0.00 | 0.00 | 0.00 | 68 | 1016.2 |
| 20260831002533 | 80 | 195 | 0.0 | 1.7 | 0.00 | 0.00 | 0.00 | 68 | 1016.2 |
| 20260831002433 | 80 | 195 | 0.0 | 1.7 | 0.00 | 0.00 | 0.00 | 69 | 1016.2 |
| 20260831002352 | 80 | 195 | 0.0 | 1.7 | 0.00 | 0.00 | 0.00 | 69 | 1016.2 |
| 20260831002228 | 80 | 193 | 0.0 | 1.7 | 0.00 | 0.00 | 0.00 | 69 | 1016.2 |
| 20260831002132 | 80 | 192 | 0.0 | 1.7 | 0.00 | 0.00 | 0.00 | 69 | 1016.2 |
| 20260831002031 | 80 | 195 | 0.9 | 1.7 | 0.00 | 0.00 | 0.00 | 69 | 1016.2 |
| 20260831001953 | 80 | 195 | 0.9 | 1.7 | 0.00 | 0.00 | 0.00 | 68 | 1016.2 |
| 20260831001830 | 80 | 196 | 0.0 | 1.7 | 0.00 | 0.00 | 0.00 | 68 | 1016.2 |
| 20260831001730 | 80 | 195 | 0.9 | 2.6 | 0.00 | 0.00 | 0.00 | 68 | 1016.2 |
| 20260831001700 | 80 | 195 | 0.9 | 2.6 | 0.00 | 0.00 | 0.00 | 68 | 1016.2 |
| 20260831001537 | 80 | 193 | 0.9 | 2.6 | 0.00 | 0.00 | 0.00 | 68 | 1016.2 |
| 20260831001441 | 80 | 195 | 0.0 | 2.6 | 0.00 | 0.00 | 0.00 | 68 | 1016.2 |
| 20260831001339 | 80 | 192 | 0.0 | 2.6 | 0.00 | 0.00 | 0.00 | 68 | 1016.2 |
| 20260831001238 | 80 | 195 | 0.0 | 2.6 | 0.00 | 0.00 | 0.00 | 68 | 1016.3 |
| 20260831001136 | 80 | 196 | 0.9 | 2.6 | 0.00 | 0.00 | 0.00 | 68 | 1016.3 |
| 20260831001035 | 80 | 195 | 0.9 | 2.6 | 0.00 | 0.00 | 0.00 | 68 | 1016.3 |
| 20260831000934 | 80 | 195 | 0.9 | 2.6 | 0.00 | 0.00 | 0.00 | 68 | 1016.3 |
| 20260831000833 | 81 | 189 | 0.9 | 2.6 | 0.00 | 0.00 | 0.00 | 68 | 1016.3 |
| 20260831000736 | 81 | 195 | 0.9 | 2.6 | 0.00 | 0.00 | 0.00 | 68 | 1016.3 |
| 20260831000636 | 81 | 196 | 0.9 | 1.7 | 0.00 | 0.00 | 0.00 | 68 | 1016.3 |
| 20260831000534 | 81 | 193 | 0.0 | 1.7 | 0.00 | 0.00 | 0.00 | 68 | 1016.3 |
| 20260831000432 | 81 | 196 | 0.0 | 1.7 | 0.00 | 0.00 | 0.00 | 68 | 1016.3 |
| 20260831000332 | 81 | 195 | 0.0 | 1.7 | 0.00 | 0.00 | 0.00 | 68 | 1016.3 |
| 20260831000241 | 81 | 195 | 0.0 | 2.6 | 0.00 | 0.00 | 0.00 | 67 | 1016.3 |
| 20260831000150 | 81 | 193 | 0.0 | 2.6 | 0.00 | 0.00 | 0.00 | 67 | 1016.3 |
| 20260831000029 | 81 | 189 | 0.9 | 2.6 | 0.00 | 0.00 | 0.00 | 67 | 1016.3 |
| 20260830235951 | 81 | 195 | 0.0 | 2.6 | 0.00 | 0.00 | 0.00 | 67 | 1016.3 |
| 20260830235828 | 81 | 195 | 0.0 | 2.6 | 0.00 | 0.00 | 0.00 | 67 | 1016.3 |
| 20260830235748 | 81 | 195 | 0.0 | 2.6 | 0.00 | 0.00 | 0.00 | 67 | 1016.3 |
| 20260830235646 | 81 | 193 | 0.0 | 2.6 | 0.00 | 0.00 | 0.00 | 67 | 1016.3 |
| 20260830235544 | 81 | 195 | 0.9 | 2.6 | 0.00 | 0.00 | 0.00 | 67 | 1016.3 |
| 20260830235442 | 81 | 195 | 0.9 | 2.6 | 0.00 | 0.00 | 0.00 | 66 | 1016.3 |
| 20260830235342 | 81 | 195 | 0.9 | 2.6 | 0.00 | 0.00 | 0.00 | 66 | 1016.3 |
| 20260830235237 | 81 | 195 | 0.9 | 2.6 | 0.00 | 0.00 | 0.00 | 66 | 1016.3 |
| 20260830235138 | 81 | 195 | 0.9 | 2.6 | 0.00 | 0.00 | 0.00 | 66 | 1016.3 |
| 20260830235037 | 81 | 196 | 0.9 | 2.6 | 0.00 | 0.00 | 0.00 | 66 | 1016.3 |
| 20260830234934 | 81 | 193 | 1.7 | 2.6 | 0.00 | 0.00 | 0.00 | 66 | 1016.3 |
| 20260830234834 | 81 | 195 | 1.7 | 2.6 | 0.00 | 0.00 | 0.00 | 66 | 1016.3 |
| 20260830234734 | 81 | 195 | 0.0 | 2.6 | 0.00 | 0.00 | 0.00 | 66 | 1016.3 |
| 20260830234703 | 81 | 195 | 0.9 | 2.6 | 0.00 | 0.00 | 0.00 | 66 | 1016.3 |
| 20260830234601 | 81 | 193 | 0.9 | 2.6 | 0.00 | 0.00 | 0.00 | 66 | 1016.3 |
| 20260830234443 | 81 | 195 | 1.7 | 2.6 | 0.00 | 0.00 | 0.00 | 66 | 1016.3 |
| 20260830234343 | 81 | 192 | 1.7 | 2.6 | 0.00 | 0.00 | 0.00 | 66 | 1016.3 |
| 20260830234242 | 81 | 195 | 0.9 | 2.6 | 0.00 | 0.00 | 0.00 | 66 | 1016.5 |
| 20260830234141 | 81 | 196 | 0.9 | 1.7 | 0.00 | 0.00 | 0.00 | 65 | 1016.5 |
| 20260830234040 | 81 | 193 | 1.7 | 1.7 | 0.00 | 0.00 | 0.00 | 65 | 1016.5 |
| 20260830233937 | 81 | 193 | 1.7 | 2.6 | 0.00 | 0.00 | 0.00 | 65 | 1016.5 |
| 20260830233834 | 81 | 195 | 0.9 | 2.6 | 0.00 | 0.00 | 0.00 | 65 | 1016.5 |
| 20260830233739 | 81 | 195 | 0.9 | 2.6 | 0.00 | 0.00 | 0.00 | 65 | 1016.5 |
| 20260830233639 | 81 | 195 | 0.9 | 2.6 | 0.00 | 0.00 | 0.00 | 65 | 1016.5 |
| 20260830233537 | 81 | 195 | 0.9 | 2.6 | 0.00 | 0.00 | 0.00 | 65 | 1016.5 |
| 20260830233456 | 82 | 196 | 0.9 | 2.6 | 0.00 | 0.00 | 0.00 | 65 | 1016.5 |
| 20260830233416 | 82 | 195 | 0.9 | 2.6 | 0.00 | 0.00 | 0.00 | 65 | 1016.5 |
| 20260830233315 | 82 | 195 | 0.0 | 2.6 | 0.00 | 0.00 | 0.00 | 65 | 1016.5 |
| 20260830233224 | 82 | 196 | 0.9 | 5.2 | 0.00 | 0.00 | 0.00 | 65 | 1016.5 |
| 20260830233039 | 82 | 195 | 0.9 | 5.2 | 0.00 | 0.00 | 0.00 | 65 | 1016.5 |
| 20260830232938 | 82 | 195 | 0.9 | 5.2 | 0.00 | 0.00 | 0.00 | 65 | 1016.5 |
| 20260830232841 | 82 | 195 | 0.9 | 5.2 | 0.00 | 0.00 | 0.00 | 65 | 1016.5 |
| 20260830232739 | 82 | 195 | 0.0 | 5.2 | 0.00 | 0.00 | 0.00 | 65 | 1016.4 |
| 20260830232637 | 82 | 193 | 0.9 | 5.2 | 0.00 | 0.00 | 0.00 | 64 | 1016.4 |
| 20260830232537 | 82 | 195 | 0.9 | 5.2 | 0.00 | 0.00 | 0.00 | 64 | 1016.4 |
| 20260830232434 | 82 | 195 | 0.9 | 5.2 | 0.00 | 0.00 | 0.00 | 64 | 1016.4 |
| 20260830232332 | 82 | 189 | 2.6 | 5.2 | 0.00 | 0.00 | 0.00 | 64 | 1016.4 |
| 20260830232235 | 82 | 200 | 1.7 | 4.3 | 0.00 | 0.00 | 0.00 | 64 | 1016.4 |
| 20260830232153 | 82 | 199 | 0.9 | 4.3 | 0.00 | 0.00 | 0.00 | 64 | 1016.4 |
| 20260830232030 | 82 | 199 | 0.9 | 4.3 | 0.00 | 0.00 | 0.00 | 64 | 1016.4 |
| 20260830231929 | 82 | 199 | 0.0 | 4.3 | 0.00 | 0.00 | 0.00 | 65 | 1016.4 |
| 20260830231829 | 82 | 199 | 1.7 | 4.3 | 0.00 | 0.00 | 0.00 | 65 | 1016.4 |
| 20260830231727 | 82 | 200 | 0.9 | 4.3 | 0.00 | 0.00 | 0.00 | 64 | 1016.4 |
| 20260830231656 | 82 | 199 | 2.6 | 4.3 | 0.00 | 0.00 | 0.00 | 64 | 1016.4 |
| 20260830231535 | 82 | 203 | 1.7 | 4.3 | 0.00 | 0.00 | 0.00 | 64 | 1016.4 |
| 20260830231437 | 82 | 208 | 1.7 | 2.6 | 0.00 | 0.00 | 0.00 | 64 | 1016.4 |
| 20260830231339 | 82 | 208 | 1.7 | 2.6 | 0.00 | 0.00 | 0.00 | 64 | 1016.4 |
| 20260830231236 | 82 | 212 | 0.9 | 1.7 | 0.00 | 0.00 | 0.00 | 64 | 1016.2 |
| 20260830231136 | 82 | 212 | 0.0 | 2.6 | 0.00 | 0.00 | 0.00 | 64 | 1016.2 |
| 20260830231035 | 82 | 212 | 0.0 | 2.6 | 0.00 | 0.00 | 0.00 | 63 | 1016.2 |
| 20260830230934 | 82 | 210 | 0.0 | 2.6 | 0.00 | 0.00 | 0.00 | 63 | 1016.2 |
| 20260830230853 | 82 | 212 | 0.0 | 2.6 | 0.00 | 0.00 | 0.00 | 63 | 1016.2 |
| 20260830230730 | 82 | 212 | 0.0 | 2.6 | 0.00 | 0.00 | 0.00 | 63 | 1016.2 |
| 20260830230633 | 82 | 212 | 0.9 | 2.6 | 0.00 | 0.00 | 0.00 | 63 | 1016.2 |
| 20260830230532 | 83 | 212 | 0.0 | 2.6 | 0.00 | 0.00 | 0.00 | 63 | 1016.2 |
| 20260830230453 | 83 | 210 | 0.0 | 2.6 | 0.00 | 0.00 | 0.00 | 63 | 1016.2 |
| 20260830230350 | 83 | 212 | 0.9 | 2.6 | 0.00 | 0.00 | 0.00 | 63 | 1016.2 |
| 20260830230229 | 83 | 213 | 1.7 | 2.6 | 0.00 | 0.00 | 0.00 | 63 | 1016.2 |
| 20260830230201 | 83 | 216 | 0.9 | 2.6 | 0.00 | 0.00 | 0.00 | 64 | 1016.2 |
| 20260830230058 | 83 | 217 | 0.9 | 2.6 | 0.00 | 0.00 | 0.00 | 63 | 1016.2 |
| 20260830225937 | 83 | 213 | 1.7 | 2.6 | 0.00 | 0.00 | 0.00 | 64 | 1016.2 |
| 20260830225840 | 83 | 217 | 0.9 | 2.6 | 0.00 | 0.00 | 0.00 | 64 | 1016.2 |
| 20260830225740 | 83 | 213 | 0.0 | 2.6 | 0.00 | 0.00 | 0.00 | 64 | 1016.1 |
| 20260830225639 | 83 | 219 | 0.9 | 2.6 | 0.00 | 0.00 | 0.00 | 64 | 1016.1 |
| 20260830225538 | 83 | 217 | 0.9 | 2.6 | 0.00 | 0.00 | 0.00 | 64 | 1016.1 |
| 20260830225436 | 83 | 215 | 0.0 | 4.3 | 0.00 | 0.00 | 0.00 | 64 | 1016.1 |
| 20260830225335 | 83 | 217 | 0.0 | 4.3 | 0.00 | 0.00 | 0.00 | 64 | 1016.1 |
| 20260830225234 | 83 | 219 | 0.0 | 4.3 | 0.00 | 0.00 | 0.00 | 64 | 1016.1 |
| 20260830225137 | 83 | 219 | 0.9 | 4.3 | 0.00 | 0.00 | 0.00 | 64 | 1016.1 |
| 20260830225037 | 83 | 217 | 0.9 | 4.3 | 0.00 | 0.00 | 0.00 | 63 | 1016.1 |
| 20260830224955 | 83 | 219 | 0.9 | 4.3 | 0.00 | 0.00 | 0.00 | 63 | 1016.1 |
| 20260830224852 | 83 | 219 | 0.9 | 5.2 | 0.00 | 0.00 | 0.00 | 63 | 1016.1 |
| 20260830224750 | 83 | 220 | 0.0 | 7.0 | 0.00 | 0.00 | 0.00 | 62 | 1016.1 |
| 20260830224720 | 83 | 219 | 0.9 | 7.0 | 0.00 | 0.00 | 0.00 | 62 | 1016.1 |
| 20260830224537 | 83 | 213 | 1.7 | 7.0 | 0.00 | 0.00 | 0.00 | 62 | 1016.1 |
| 20260830224435 | 83 | 205 | 1.7 | 7.0 | 0.00 | 0.00 | 0.00 | 62 | 1016.1 |
| 20260830224337 | 83 | 202 | 0.9 | 7.0 | 0.00 | 0.00 | 0.00 | 63 | 1016.1 |
| 20260830224235 | 83 | 203 | 0.9 | 7.0 | 0.00 | 0.00 | 0.00 | 63 | 1016.0 |
| 20260830224134 | 83 | 202 | 3.5 | 7.0 | 0.00 | 0.00 | 0.00 | 62 | 1016.0 |
| 20260830224054 | 83 | 202 | 3.5 | 7.0 | 0.00 | 0.00 | 0.00 | 62 | 1016.0 |
| 20260830223931 | 83 | 199 | 5.2 | 7.0 | 0.00 | 0.00 | 0.00 | 63 | 1016.0 |
| 20260830223850 | 83 | 202 | 3.5 | 6.1 | 0.00 | 0.00 | 0.00 | 64 | 1016.0 |
| 20260830223728 | 83 | 193 | 1.7 | 6.1 | 0.00 | 0.00 | 0.00 | 63 | 1016.0 |
| 20260830223626 | 83 | 193 | 4.3 | 6.1 | 0.00 | 0.00 | 0.00 | 64 | 1016.0 |
| 20260830223529 | 83 | 191 | 1.7 | 6.1 | 0.00 | 0.00 | 0.00 | 64 | 1016.0 |
| 20260830223429 | 83 | 185 | 2.6 | 6.1 | 0.00 | 0.00 | 0.00 | 62 | 1016.0 |
| 20260830223327 | 83 | 165 | 0.0 | 5.2 | 0.00 | 0.00 | 0.00 | 63 | 1016.0 |
| 20260830223246 | 83 | 167 | 0.9 | 5.2 | 0.00 | 0.00 | 0.00 | 62 | 1016.0 |
| 20260830223217 | 83 | 164 | 0.9 | 5.2 | 0.00 | 0.00 | 0.00 | 62 | 1016.0 |
| 20260830223033 | 83 | 161 | 0.9 | 5.2 | 0.00 | 0.00 | 0.00 | 62 | 1016.0 |
| 20260830222931 | 83 | 162 | 1.7 | 5.2 | 0.00 | 0.00 | 0.00 | 62 | 1016.0 |
| 20260830222835 | 83 | 157 | 1.7 | 5.2 | 0.00 | 0.00 | 0.00 | 62 | 1016.0 |
| 20260830222734 | 83 | 158 | 2.6 | 5.2 | 0.00 | 0.00 | 0.00 | 62 | 1016.2 |
| 20260830222654 | 83 | 162 | 2.6 | 5.2 | 0.00 | 0.00 | 0.00 | 62 | 1016.2 |
| 20260830222531 | 83 | 168 | 3.5 | 5.2 | 0.00 | 0.00 | 0.00 | 63 | 1016.2 |
| 20260830222429 | 83 | 172 | 1.7 | 5.2 | 0.00 | 0.00 | 0.00 | 63 | 1016.2 |
| 20260830222330 | 83 | 171 | 3.5 | 5.2 | 0.00 | 0.00 | 0.00 | 63 | 1016.2 |
| 20260830222228 | 83 | 176 | 2.6 | 5.2 | 0.00 | 0.00 | 0.00 | 63 | 1016.2 |
| 20260830222133 | 83 | 182 | 2.6 | 5.2 | 0.00 | 0.00 | 0.00 | 63 | 1016.2 |
| 20260830222053 | 83 | 184 | 1.7 | 5.2 | 0.00 | 0.00 | 0.00 | 63 | 1016.2 |
| 20260830221930 | 83 | 189 | 0.9 | 5.2 | 0.00 | 0.00 | 0.00 | 62 | 1016.2 |
| 20260830221828 | 83 | 188 | 0.0 | 5.2 | 0.00 | 0.00 | 0.00 | 63 | 1016.2 |
| 20260830221747 | 83 | 191 | 2.6 | 5.2 | 0.00 | 0.00 | 0.00 | 62 | 1016.2 |
| 20260830221657 | 83 | 192 | 2.6 | 5.2 | 0.00 | 0.00 | 0.00 | 62 | 1016.2 |
| 20260830221534 | 83 | 179 | 0.9 | 5.2 | 0.00 | 0.00 | 0.00 | 62 | 1016.2 |
| 20260830221433 | 83 | 182 | 2.6 | 5.2 | 0.00 | 0.00 | 0.00 | 62 | 1016.2 |
| 20260830221336 | 83 | 178 | 2.6 | 3.5 | 0.00 | 0.00 | 0.00 | 62 | 1016.2 |
| 20260830221235 | 83 | 182 | 1.7 | 5.2 | 0.00 | 0.00 | 0.00 | 62 | 1016.2 |
| 20260830221137 | 83 | 182 | 0.0 | 5.2 | 0.00 | 0.00 | 0.00 | 62 | 1016.2 |
| 20260830221035 | 83 | 182 | 0.9 | 5.2 | 0.00 | 0.00 | 0.00 | 62 | 1016.2 |
| 20260830220954 | 83 | 164 | 0.9 | 5.2 | 0.00 | 0.00 | 0.00 | 61 | 1016.2 |
| 20260830220831 | 83 | 154 | 0.0 | 5.2 | 0.00 | 0.00 | 0.00 | 61 | 1016.2 |
| 20260830220729 | 83 | 154 | 0.9 | 5.2 | 0.00 | 0.00 | 0.00 | 60 | 1016.2 |
| 20260830220650 | 83 | 151 | 0.0 | 6.1 | 0.00 | 0.00 | 0.00 | 61 | 1016.2 |
| 20260830220531 | 83 | 151 | 0.9 | 7.8 | 0.00 | 0.00 | 0.00 | 61 | 1016.2 |
| 20260830220430 | 83 | 154 | 1.7 | 7.8 | 0.00 | 0.00 | 0.00 | 62 | 1016.2 |
| 20260830220329 | 83 | 152 | 2.6 | 7.8 | 0.00 | 0.00 | 0.00 | 62 | 1016.2 |
| 20260830220229 | 83 | 150 | 3.5 | 7.8 | 0.00 | 0.00 | 0.00 | 62 | 1016.2 |
| 20260830220200 | 83 | 144 | 3.5 | 7.8 | 0.00 | 0.00 | 0.00 | 62 | 1016.2 |
| 20260830220055 | 83 | 196 | 0.9 | 7.8 | 0.00 | 0.00 | 0.00 | 62 | 1016.2 |
| 20260830215937 | 83 | 196 | 0.9 | 7.8 | 0.00 | 0.00 | 0.00 | 62 | 1016.2 |
| 20260830215838 | 83 | 193 | 4.3 | 7.8 | 0.00 | 0.00 | 0.00 | 62 | 1016.2 |
| 20260830215740 | 83 | 213 | 5.2 | 7.8 | 0.00 | 0.00 | 0.00 | 62 | 1016.3 |
| 20260830215639 | 83 | 210 | 4.3 | 7.8 | 0.00 | 0.00 | 0.00 | 61 | 1016.3 |
| 20260830215538 | 83 | 147 | 0.9 | 6.1 | 0.00 | 0.00 | 0.00 | 61 | 1016.3 |
| 20260830215437 | 83 | 144 | 0.9 | 6.1 | 0.00 | 0.00 | 0.00 | 61 | 1016.3 |
| 20260830215336 | 83 | 145 | 1.7 | 6.1 | 0.00 | 0.00 | 0.00 | 62 | 1016.3 |
| 20260830215254 | 83 | 143 | 2.6 | 6.1 | 0.00 | 0.00 | 0.00 | 62 | 1016.3 |
| 20260830215152 | 83 | 143 | 1.7 | 6.1 | 0.00 | 0.00 | 0.00 | 62 | 1016.3 |
| 20260830215050 | 83 | 141 | 1.7 | 6.1 | 0.00 | 0.00 | 0.00 | 62 | 1016.3 |
| 20260830214947 | 83 | 127 | 4.3 | 6.1 | 0.00 | 0.00 | 0.00 | 62 | 1016.3 |
| 20260830214828 | 83 | 152 | 2.6 | 5.2 | 0.00 | 0.00 | 0.00 | 61 | 1016.3 |
| 20260830214727 | 83 | 158 | 1.7 | 5.2 | 0.00 | 0.00 | 0.00 | 61 | 1016.3 |
| 20260830214657 | 83 | 151 | 1.7 | 5.2 | 0.00 | 0.00 | 0.00 | 61 | 1016.3 |
| 20260830214536 | 83 | 148 | 3.5 | 5.2 | 0.00 | 0.00 | 0.00 | 61 | 1016.3 |
| 20260830214434 | 83 | 191 | 0.9 | 5.2 | 0.00 | 0.00 | 0.00 | 61 | 1016.3 |
| 20260830214354 | 83 | 193 | 1.7 | 5.2 | 0.00 | 0.00 | 0.00 | 62 | 1016.3 |
| 20260830214233 | 83 | 192 | 0.9 | 5.2 | 0.00 | 0.00 | 0.00 | 61 | 1016.1 |
| 20260830214136 | 83 | 192 | 0.0 | 5.2 | 0.00 | 0.00 | 0.00 | 61 | 1016.1 |
| 20260830214035 | 83 | 189 | 0.9 | 5.2 | 0.00 | 0.00 | 0.00 | 61 | 1016.1 |
| 20260830213934 | 83 | 193 | 1.7 | 5.2 | 0.00 | 0.00 | 0.00 | 62 | 1016.1 |
| 20260830213834 | 84 | 193 | 0.9 | 5.2 | 0.00 | 0.00 | 0.00 | 62 | 1016.1 |
| 20260830213733 | 84 | 192 | 0.9 | 5.2 | 0.00 | 0.00 | 0.00 | 61 | 1016.1 |
| 20260830213633 | 84 | 192 | 1.7 | 6.1 | 0.00 | 0.00 | 0.00 | 62 | 1016.1 |
| 20260830213532 | 84 | 178 | 2.6 | 6.1 | 0.00 | 0.00 | 0.00 | 62 | 1016.1 |
| 20260830213435 | 84 | 174 | 2.6 | 6.1 | 0.00 | 0.00 | 0.00 | 63 | 1016.1 |
| 20260830213335 | 84 | 200 | 0.9 | 6.1 | 0.00 | 0.00 | 0.00 | 63 | 1016.1 |
| 20260830213254 | 84 | 205 | 0.0 | 6.1 | 0.00 | 0.00 | 0.00 | 62 | 1016.1 |
| 20260830213204 | 84 | 202 | 0.9 | 6.1 | 0.00 | 0.00 | 0.00 | 62 | 1016.1 |
| 20260830213041 | 84 | 199 | 0.9 | 6.1 | 0.00 | 0.00 | 0.00 | 62 | 1016.1 |
| 20260830212939 | 84 | 196 | 2.6 | 6.1 | 0.00 | 0.00 | 0.00 | 62 | 1016.1 |
| 20260830212836 | 84 | 212 | 5.2 | 6.1 | 0.00 | 0.00 | 0.00 | 62 | 1016.1 |
| 20260830212738 | 84 | 196 | 3.5 | 6.1 | 0.00 | 0.00 | 0.00 | 62 | 1016.3 |
| 20260830212637 | 84 | 167 | 0.9 | 5.2 | 0.00 | 0.00 | 0.00 | 62 | 1016.3 |
| 20260830212536 | 84 | 161 | 1.7 | 6.1 | 0.00 | 0.00 | 0.00 | 62 | 1016.3 |
| 20260830212435 | 84 | 164 | 0.0 | 6.1 | 0.00 | 0.00 | 0.00 | 62 | 1016.3 |
| 20260830212334 | 84 | 164 | 2.6 | 6.1 | 0.00 | 0.00 | 0.00 | 62 | 1016.3 |
| 20260830212232 | 84 | 169 | 1.7 | 6.1 | 0.00 | 0.00 | 0.00 | 61 | 1016.3 |
| 20260830212131 | 84 | 213 | 0.9 | 6.1 | 0.00 | 0.00 | 0.00 | 61 | 1016.3 |
| 20260830212033 | 84 | 215 | 2.6 | 6.1 | 0.00 | 0.00 | 0.00 | 62 | 1016.3 |
| 20260830211933 | 84 | 208 | 1.7 | 6.1 | 0.00 | 0.00 | 0.00 | 62 | 1016.3 |
| 20260830211831 | 84 | 203 | 1.7 | 6.1 | 0.00 | 0.00 | 0.00 | 61 | 1016.3 |
| 20260830211730 | 84 | 226 | 1.7 | 6.1 | 0.00 | 0.00 | 0.00 | 61 | 1016.3 |
| 20260830211700 | 84 | 210 | 2.6 | 6.1 | 0.00 | 0.00 | 0.00 | 62 | 1016.3 |
| 20260830211539 | 84 | 196 | 2.6 | 6.1 | 0.00 | 0.00 | 0.00 | 62 | 1016.3 |
| 20260830211437 | 84 | 200 | 1.7 | 6.1 | 0.00 | 0.00 | 0.00 | 62 | 1016.3 |
| 20260830211341 | 84 | 209 | 1.7 | 6.1 | 0.00 | 0.00 | 0.00 | 61 | 1016.3 |
| 20260830211238 | 84 | 155 | 2.6 | 6.1 | 0.00 | 0.00 | 0.00 | 61 | 1016.4 |
| 20260830211139 | 84 | 155 | 2.6 | 6.1 | 0.00 | 0.00 | 0.00 | 60 | 1016.4 |
| 20260830211039 | 84 | 157 | 1.7 | 6.1 | 0.00 | 0.00 | 0.00 | 60 | 1016.4 |
| 20260830210937 | 84 | 155 | 2.6 | 6.1 | 0.00 | 0.00 | 0.00 | 60 | 1016.4 |
| 20260830210837 | 84 | 128 | 3.5 | 6.1 | 0.00 | 0.00 | 0.00 | 60 | 1016.4 |
| 20260830210739 | 84 | 119 | 3.5 | 6.1 | 0.00 | 0.00 | 0.00 | 62 | 1016.4 |
| 20260830210638 | 84 | 124 | 3.5 | 6.1 | 0.00 | 0.00 | 0.00 | 63 | 1016.4 |
| 20260830210558 | 84 | 116 | 1.7 | 7.0 | 0.00 | 0.00 | 0.00 | 62 | 1016.4 |
| 20260830210435 | 84 | 109 | 1.7 | 7.0 | 0.00 | 0.00 | 0.00 | 62 | 1016.4 |
| 20260830210355 | 84 | 107 | 1.7 | 7.0 | 0.00 | 0.00 | 0.00 | 61 | 1016.4 |
| 20260830210253 | 84 | 113 | 1.7 | 7.0 | 0.00 | 0.00 | 0.00 | 62 | 1016.4 |
| 20260830210203 | 84 | 107 | 1.7 | 7.0 | 0.00 | 0.00 | 0.00 | 62 | 1016.4 |
| 20260830210039 | 84 | 110 | 1.7 | 7.0 | 0.00 | 0.00 | 0.00 | 62 | 1016.4 |
| 20260830205958 | 84 | 175 | 2.6 | 7.0 | 0.00 | 0.00 | 0.00 | 62 | 1016.4 |
| 20260830205840 | 84 | 208 | 2.6 | 7.0 | 0.00 | 0.00 | 0.00 | 63 | 1016.4 |
| 20260830205739 | 84 | 195 | 3.5 | 7.0 | 0.00 | 0.00 | 0.00 | 62 | 1016.5 |
| 20260830205637 | 84 | 198 | 0.9 | 7.0 | 0.00 | 0.00 | 0.00 | 62 | 1016.5 |
| 20260830205556 | 84 | 199 | 0.0 | 7.0 | 0.00 | 0.00 | 0.00 | 62 | 1016.5 |
| 20260830205433 | 84 | 196 | 1.7 | 7.0 | 0.00 | 0.00 | 0.00 | 61 | 1016.5 |
| 20260830205332 | 84 | 195 | 0.0 | 7.0 | 0.00 | 0.00 | 0.00 | 61 | 1016.5 |
| 20260830205232 | 84 | 196 | 1.7 | 7.0 | 0.00 | 0.00 | 0.00 | 61 | 1016.5 |
| 20260830205127 | 84 | 192 | 3.5 | 7.0 | 0.00 | 0.00 | 0.00 | 61 | 1016.5 |
| 20260830205050 | 84 | 186 | 1.7 | 7.0 | 0.00 | 0.00 | 0.00 | 61 | 1016.5 |
| 20260830204948 | 84 | 196 | 3.5 | 7.0 | 0.00 | 0.00 | 0.00 | 60 | 1016.5 |
| 20260830204826 | 84 | 189 | 2.6 | 5.2 | 0.00 | 0.00 | 0.00 | 60 | 1016.5 |
| 20260830204725 | 84 | 181 | 1.7 | 6.1 | 0.00 | 0.00 | 0.00 | 60 | 1016.5 |
| 20260830204654 | 84 | 179 | 1.7 | 6.1 | 0.00 | 0.00 | 0.00 | 61 | 1016.5 |
| 20260830204533 | 84 | 178 | 2.6 | 6.1 | 0.00 | 0.00 | 0.00 | 62 | 1016.5 |
| 20260830204431 | 84 | 195 | 2.6 | 6.1 | 0.00 | 0.00 | 0.00 | 61 | 1016.5 |
| 20260830204349 | 84 | 88 | 2.6 | 6.1 | 0.00 | 0.00 | 0.00 | 61 | 1016.5 |
| 20260830204226 | 84 | 51 | 2.6 | 7.0 | 0.00 | 0.00 | 0.00 | 61 | 1016.8 |
| 20260830204148 | 84 | 48 | 1.7 | 7.0 | 0.00 | 0.00 | 0.00 | 60 | 1016.8 |
| 20260830204046 | 84 | 49 | 0.0 | 7.0 | 0.00 | 0.00 | 0.00 | 61 | 1016.8 |
| 20260830203943 | 84 | 49 | 1.7 | 7.0 | 0.00 | 0.00 | 0.00 | 61 | 1016.8 |
| 20260830203841 | 84 | 49 | 2.6 | 7.0 | 0.00 | 0.00 | 0.00 | 60 | 1016.8 |
| 20260830203740 | 84 | 114 | 2.6 | 7.0 | 0.00 | 0.00 | 0.00 | 60 | 1016.8 |
| 20260830203638 | 83 | 114 | 2.6 | 7.0 | 0.00 | 0.00 | 0.00 | 61 | 1016.8 |
| 20260830203534 | 83 | 109 | 3.5 | 7.0 | 0.00 | 0.00 | 0.00 | 61 | 1016.8 |
| 20260830203453 | 83 | 97 | 5.2 | 7.0 | 0.00 | 0.00 | 0.00 | 62 | 1016.8 |
| 20260830203350 | 83 | 141 | 2.6 | 5.2 | 0.00 | 0.00 | 0.00 | 62 | 1016.8 |
| 20260830203231 | 83 | 203 | 0.9 | 5.2 | 0.00 | 0.00 | 0.00 | 62 | 1016.8 |
| 20260830203202 | 83 | 202 | 0.9 | 5.2 | 0.00 | 0.00 | 0.00 | 62 | 1016.8 |
| 20260830203100 | 83 | 202 | 2.6 | 5.2 | 0.00 | 0.00 | 0.00 | 62 | 1016.8 |
| 20260830202938 | 83 | 133 | 0.0 | 4.3 | 0.00 | 0.00 | 0.00 | 61 | 1016.8 |
| 20260830202835 | 83 | 134 | 0.9 | 4.3 | 0.00 | 0.00 | 0.00 | 62 | 1016.8 |
| 20260830202734 | 83 | 134 | 1.7 | 5.2 | 0.00 | 0.00 | 0.00 | 62 | 1016.8 |
| 20260830202653 | 84 | 92 | 0.0 | 5.2 | 0.00 | 0.00 | 0.00 | 62 | 1016.8 |
| 20260830202531 | 84 | 89 | 0.0 | 5.2 | 0.00 | 0.00 | 0.00 | 61 | 1016.8 |
| 20260830202433 | 84 | 90 | 0.0 | 5.2 | 0.00 | 0.00 | 0.00 | 60 | 1016.8 |
| 20260830202332 | 84 | 92 | 0.0 | 7.0 | 0.00 | 0.00 | 0.00 | 60 | 1016.8 |
| 20260830202231 | 84 | 92 | 0.9 | 7.0 | 0.00 | 0.00 | 0.00 | 60 | 1016.8 |
| 20260830202150 | 84 | 90 | 1.7 | 7.0 | 0.00 | 0.00 | 0.00 | 59 | 1016.8 |
| 20260830202028 | 84 | 89 | 0.9 | 7.0 | 0.00 | 0.00 | 0.00 | 59 | 1016.8 |
| 20260830201926 | 84 | 90 | 2.6 | 7.0 | 0.00 | 0.00 | 0.00 | 60 | 1016.8 |
| 20260830201843 | 84 | 86 | 2.6 | 7.0 | 0.00 | 0.00 | 0.00 | 60 | 1016.8 |
| 20260830201754 | 84 | 96 | 0.0 | 7.0 | 0.00 | 0.00 | 0.00 | 59 | 1016.8 |
| 20260830201646 | 84 | 96 | 2.6 | 7.0 | 0.00 | 0.00 | 0.00 | 59 | 1016.8 |
| 20260830201543 | 84 | 96 | 4.3 | 7.0 | 0.00 | 0.00 | 0.00 | 60 | 1016.8 |
| 20260830201444 | 84 | 76 | 4.3 | 6.1 | 0.00 | 0.00 | 0.00 | 61 | 1016.8 |
| 20260830201343 | 84 | 110 | 4.3 | 6.1 | 0.00 | 0.00 | 0.00 | 61 | 1016.8 |
| 20260830201301 | 84 | 110 | 2.6 | 6.1 | 0.00 | 0.00 | 0.00 | 61 | 1017.0 |
| 20260830201159 | 84 | 172 | 0.0 | 6.1 | 0.00 | 0.00 | 0.00 | 60 | 1017.0 |
| 20260830201056 | 84 | 175 | 0.0 | 6.1 | 0.00 | 0.00 | 0.00 | 59 | 1017.0 |
| 20260830200934 | 84 | 174 | 0.0 | 6.1 | 0.00 | 0.00 | 0.00 | 60 | 1017.0 |
| 20260830200834 | 84 | 175 | 0.0 | 6.1 | 0.00 | 0.00 | 0.00 | 61 | 1017.0 |
| 20260830200736 | 84 | 175 | 0.9 | 6.1 | 0.00 | 0.00 | 0.00 | 62 | 1017.0 |
| 20260830200640 | 84 | 175 | 3.5 | 6.1 | 0.00 | 0.00 | 0.00 | 62 | 1017.0 |
| 20260830200538 | 84 | 162 | 1.7 | 6.1 | 0.00 | 0.00 | 0.00 | 62 | 1017.0 |
| 20260830200436 | 84 | 119 | 2.6 | 5.2 | 0.00 | 0.00 | 0.00 | 61 | 1017.0 |
| 20260830200354 | 84 | 116 | 3.5 | 5.2 | 0.00 | 0.00 | 0.00 | 60 | 1017.0 |
| 20260830200232 | 84 | 113 | 1.7 | 5.2 | 0.00 | 0.00 | 0.00 | 60 | 1017.0 |
| 20260830200202 | 84 | 110 | 0.9 | 5.2 | 0.00 | 0.00 | 0.00 | 60 | 1017.0 |
| 20260830200037 | 84 | 112 | 0.9 | 5.2 | 0.00 | 0.00 | 0.00 | 59 | 1017.0 |
| 20260830195939 | 84 | 113 | 0.0 | 5.2 | 0.00 | 0.00 | 0.00 | 59 | 1017.0 |
| 20260830195838 | 84 | 113 | 1.7 | 6.1 | 0.00 | 0.00 | 0.00 | 60 | 1017.0 |
| 20260830195757 | 84 | 112 | 3.5 | 6.1 | 0.00 | 0.00 | 0.00 | 59 | 1017.2 |
| 20260830195655 | 84 | 112 | 1.7 | 6.1 | 0.00 | 0.00 | 0.00 | 60 | 1017.2 |
| 20260830195553 | 84 | 110 | 2.6 | 6.1 | 0.00 | 0.00 | 0.00 | 60 | 1017.2 |
| 20260830195432 | 84 | 106 | 0.9 | 6.1 | 0.00 | 0.00 | 0.00 | 59 | 1017.2 |
| 20260830195350 | 84 | 106 | 0.9 | 6.1 | 0.00 | 0.00 | 0.00 | 60 | 1017.2 |
| 20260830195229 | 84 | 106 | 0.0 | 6.1 | 0.00 | 0.00 | 0.00 | 60 | 1017.2 |
| 20260830195128 | 84 | 106 | 0.0 | 7.0 | 0.00 | 0.00 | 0.00 | 60 | 1017.2 |
| 20260830195031 | 84 | 104 | 3.5 | 7.0 | 0.00 | 0.00 | 0.00 | 61 | 1017.2 |
| 20260830194931 | 84 | 127 | 3.5 | 7.0 | 0.00 | 0.00 | 0.00 | 60 | 1017.2 |
| 20260830194829 | 84 | 168 | 3.5 | 7.0 | 0.00 | 0.00 | 0.00 | 60 | 1017.2 |
| 20260830194728 | 84 | 148 | 4.3 | 7.0 | 0.00 | 0.00 | 0.00 | 59 | 1017.2 |
| 20260830194658 | 84 | 157 | 4.3 | 7.0 | 0.00 | 0.00 | 0.00 | 59 | 1017.2 |
| 20260830194555 | 84 | 144 | 4.3 | 7.0 | 0.00 | 0.00 | 0.00 | 60 | 1017.2 |
| 20260830194457 | 84 | 134 | 4.3 | 7.0 | 0.00 | 0.00 | 0.00 | 61 | 1017.2 |
| 20260830194336 | 84 | 157 | 5.2 | 7.0 | 0.00 | 0.00 | 0.00 | 62 | 1017.2 |
| 20260830194239 | 84 | 155 | 4.3 | 7.0 | 0.00 | 0.00 | 0.00 | 62 | 1017.2 |
| 20260830194139 | 84 | 199 | 1.7 | 6.1 | 0.00 | 0.00 | 0.00 | 62 | 1017.2 |
| 20260830194038 | 84 | 203 | 0.9 | 5.2 | 0.00 | 0.00 | 0.00 | 61 | 1017.2 |
| 20260830193937 | 84 | 200 | 0.9 | 5.2 | 0.00 | 0.00 | 0.00 | 61 | 1017.2 |
| 20260830193835 | 84 | 157 | 0.9 | 5.2 | 0.00 | 0.00 | 0.00 | 60 | 1017.2 |
| 20260830193733 | 84 | 150 | 3.5 | 5.2 | 0.00 | 0.00 | 0.00 | 62 | 1017.2 |
| 20260830193636 | 84 | 152 | 2.6 | 5.2 | 0.00 | 0.00 | 0.00 | 61 | 1017.2 |
| 20260830193555 | 84 | 158 | 1.7 | 5.2 | 0.00 | 0.00 | 0.00 | 61 | 1017.2 |
| 20260830193453 | 84 | 164 | 1.7 | 5.2 | 0.00 | 0.00 | 0.00 | 60 | 1017.2 |
| 20260830193331 | 84 | 161 | 3.5 | 5.2 | 0.00 | 0.00 | 0.00 | 59 | 1017.2 |
| 20260830193241 | 84 | 145 | 0.9 | 5.2 | 0.00 | 0.00 | 0.00 | 59 | 1017.2 |
| 20260830193151 | 84 | 144 | 0.9 | 5.2 | 0.00 | 0.00 | 0.00 | 61 | 1017.2 |
| 20260830193047 | 84 | 143 | 1.7 | 5.2 | 0.00 | 0.00 | 0.00 | 61 | 1017.2 |
| 20260830192944 | 85 | 141 | 1.7 | 5.2 | 0.00 | 0.00 | 0.00 | 61 | 1017.2 |
| 20260830192841 | 85 | 140 | 0.9 | 6.1 | 0.00 | 0.00 | 0.00 | 61 | 1017.2 |
| 20260830192739 | 85 | 137 | 1.7 | 7.0 | 0.00 | 0.00 | 0.00 | 61 | 1017.4 |
| 20260830192643 | 85 | 133 | 1.7 | 7.0 | 0.00 | 0.00 | 0.00 | 60 | 1017.4 |
| 20260830192541 | 85 | 131 | 3.5 | 7.0 | 0.00 | 0.00 | 0.00 | 60 | 1017.4 |
| 20260830192438 | 85 | 143 | 2.6 | 7.0 | 0.00 | 0.00 | 0.00 | 62 | 1017.4 |
| 20260830192336 | 85 | 136 | 2.6 | 7.0 | 0.00 | 0.00 | 0.00 | 59 | 1017.4 |
| 20260830192255 | 85 | 104 | 2.6 | 7.0 | 0.00 | 0.00 | 0.00 | 58 | 1017.4 |
| 20260830192153 | 85 | 103 | 3.5 | 7.0 | 0.00 | 0.00 | 0.00 | 58 | 1017.4 |
| 20260830192033 | 85 | 95 | 3.5 | 7.0 | 0.00 | 0.00 | 0.00 | 59 | 1017.4 |
| 20260830191951 | 85 | 95 | 4.3 | 7.0 | 0.00 | 0.00 | 0.00 | 59 | 1017.4 |
| 20260830191833 | 85 | 79 | 1.7 | 7.0 | 0.00 | 0.00 | 0.00 | 60 | 1017.4 |
| 20260830191753 | 85 | 158 | 0.9 | 7.0 | 0.00 | 0.00 | 0.00 | 60 | 1017.4 |
| 20260830191702 | 85 | 158 | 1.7 | 7.0 | 0.00 | 0.00 | 0.00 | 60 | 1017.4 |
| 20260830191538 | 85 | 151 | 0.9 | 7.0 | 0.00 | 0.00 | 0.00 | 60 | 1017.4 |
| 20260830191457 | 85 | 152 | 1.7 | 7.0 | 0.00 | 0.00 | 0.00 | 59 | 1017.4 |
| 20260830191355 | 85 | 141 | 2.6 | 7.0 | 0.00 | 0.00 | 0.00 | 60 | 1017.4 |
| 20260830191232 | 85 | 138 | 4.3 | 7.0 | 0.00 | 0.00 | 0.00 | 60 | 1017.4 |
| 20260830191132 | 85 | 136 | 5.2 | 7.0 | 0.00 | 0.00 | 0.00 | 60 | 1017.4 |
| 20260830191029 | 85 | 116 | 5.2 | 7.8 | 0.00 | 0.00 | 0.00 | 59 | 1017.4 |
| 20260830190931 | 85 | 154 | 2.6 | 7.8 | 0.00 | 0.00 | 0.00 | 60 | 1017.4 |
| 20260830190831 | 85 | 150 | 5.2 | 7.8 | 0.00 | 0.00 | 0.00 | 61 | 1017.4 |
| 20260830190729 | 85 | 157 | 2.6 | 7.8 | 0.00 | 0.00 | 0.00 | 61 | 1017.4 |
| 20260830190628 | 85 | 189 | 2.6 | 7.8 | 0.00 | 0.00 | 0.00 | 61 | 1017.4 |
| 20260830190528 | 85 | 185 | 2.6 | 7.8 | 0.00 | 0.00 | 0.00 | 60 | 1017.4 |
| 20260830190427 | 85 | 154 | 2.6 | 7.8 | 0.00 | 0.00 | 0.00 | 60 | 1017.4 |
| 20260830190329 | 85 | 168 | 3.5 | 7.8 | 0.00 | 0.00 | 0.00 | 60 | 1017.4 |
| 20260830190229 | 85 | 178 | 1.7 | 7.8 | 0.00 | 0.00 | 0.00 | 61 | 1017.4 |
| 20260830190158 | 85 | 178 | 0.9 | 7.8 | 0.00 | 0.00 | 0.00 | 61 | 1017.4 |
| 20260830190035 | 85 | 42 | 0.9 | 7.8 | 0.00 | 0.00 | 0.00 | 61 | 1017.4 |
| 20260830185933 | 85 | 41 | 1.7 | 7.8 | 0.00 | 0.00 | 0.00 | 61 | 1017.4 |
| 20260830185832 | 85 | 80 | 1.7 | 8.7 | 0.00 | 0.00 | 0.00 | 60 | 1017.4 |